Time,TemperatureF,DewpointF,PressureIn,WindDirection,WindDirectionDegrees,WindSpeedMPH,WindSpeedGustMPH,Humidity,HourlyPrecipIn,Conditions,Clouds,dailyrainin,SoftwareType,DateUTC
2013-09-21 00:00:00,65.3,56.4,29.94,SW,225,0.0,0.0,73,0.00,,---,0.00,VWS V14.00,2013-09-21 04:00:00,
2013-09-21 00:01:00,65.5,56.6,29.94,SW,225,0.0,0.0,73,0.00,,---,0.00,VWS V14.00,2013-09-21 04:01:00,
2013-09-21 00:02:00,65.5,56.6,29.94,SW,225,0.0,0.0,73,0.00,,---,0.00,VWS V14.00,2013-09-21 04:02:00,
2013-09-21 00:03:00,65.5,56.6,29.94,SW,225,0.0,0.0,73,0.00,,---,0.00,VWS V14.00,2013-09-21 04:03:00,
2013-09-21 00:04:00,65.5,56.6,29.94,SW,225,0.0,0.0,73,0.00,,---,0.00,VWS V14.00,2013-09-21 04:04:00,
2013-09-21 00:05:00,65.3,56.4,29.91,SW,225,0.0,0.0,73,0.00,,---,0.00,VWS V14.00,2013-09-21 04:05:00,
2013-09-21 00:06:00,65.5,56.6,29.91,SW,225,0.0,0.0,73,0.00,,---,0.00,VWS V14.00,2013-09-21 04:06:00,
2013-09-21 00:07:00,65.5,56.6,29.91,SW,225,0.0,0.0,73,0.00,,---,0.00,VWS V14.00,2013-09-21 04:07:00,
2013-09-21 00:08:00,65.5,56.6,29.91,SW,225,0.0,0.0,73,0.00,,---,0.00,VWS V14.00,2013-09-21 04:08:00,
2013-09-21 00:09:00,65.7,56.8,29.94,SW,225,0.0,0.0,73,0.00,,---,0.00,VWS V14.00,2013-09-21 04:09:00,
2013-09-21 00:10:00,65.5,56.6,29.91,SW,225,0.0,0.0,73,0.00,,---,0.00,VWS V14.00,2013-09-21 04:10:00,
2013-09-21 00:11:00,65.5,56.6,29.91,SW,225,0.0,0.0,73,0.00,,---,0.00,VWS V14.00,2013-09-21 04:11:00,
2013-09-21 00:12:00,65.5,56.6,29.91,SW,225,0.0,0.0,73,0.00,,---,0.00,VWS V14.00,2013-09-21 04:12:00,
2013-09-21 00:13:00,65.5,56.6,29.91,SW,225,0.0,0.0,73,0.00,,---,0.00,VWS V14.00,2013-09-21 04:13:00,
2013-09-21 00:14:00,65.5,56.6,29.91,SW,225,0.0,0.0,73,0.00,,---,0.00,VWS V14.00,2013-09-21 04:14:00,
2013-09-21 00:15:00,65.7,56.8,29.94,SW,225,0.0,0.0,73,0.00,,---,0.00,VWS V14.00,2013-09-21 04:15:00,
2013-09-21 00:16:00,65.5,56.6,29.91,SW,225,0.0,0.0,73,0.00,,---,0.00,VWS V14.00,2013-09-21 04:16:00,
2013-09-21 00:17:00,65.5,56.6,29.94,SW,225,0.0,0.0,73,0.00,,---,0.00,VWS V14.00,2013-09-21 04:17:00,
2013-09-21 00:18:00,65.5,56.6,29.94,SW,225,0.0,0.0,73,0.00,,---,0.00,VWS V14.00,2013-09-21 04:18:00,
2013-09-21 00:19:00,65.5,56.6,29.94,SW,225,0.0,0.0,73,0.00,,---,0.00,VWS V14.00,2013-09-21 04:19:00,
2013-09-21 00:20:00,65.7,56.8,29.94,SW,225,0.0,0.0,73,0.00,,---,0.00,VWS V14.00,2013-09-21 04:20:00,
2013-09-21 00:21:00,65.5,56.6,29.94,SW,225,0.0,0.0,73,0.00,,---,0.00,VWS V14.00,2013-09-21 04:21:00,
2013-09-21 00:22:00,65.5,56.6,29.94,SW,225,0.0,0.0,73,0.00,,---,0.00,VWS V14.00,2013-09-21 04:22:00,
2013-09-21 00:23:00,65.5,56.6,29.94,SW,225,0.0,0.0,73,0.00,,---,0.00,VWS V14.00,2013-09-21 04:23:00,
2013-09-21 00:24:00,65.5,56.6,29.94,SW,225,0.0,0.0,73,0.00,,---,0.00,VWS V14.00,2013-09-21 04:24:00,
2013-09-21 00:25:00,65.7,56.8,29.94,SW,225,0.0,0.0,73,0.00,,---,0.00,VWS V14.00,2013-09-21 04:25:00,
2013-09-21 00:26:00,65.5,56.6,29.94,SW,225,0.0,0.0,73,0.00,,---,0.00,VWS V14.00,2013-09-21 04:26:00,
2013-09-21 00:27:00,65.5,56.6,29.94,SW,225,0.0,0.0,73,0.00,,---,0.00,VWS V14.00,2013-09-21 04:27:00,
2013-09-21 00:28:00,65.7,56.8,29.94,SW,225,0.0,0.0,73,0.00,,---,0.00,VWS V14.00,2013-09-21 04:28:00,
2013-09-21 00:29:00,65.7,56.8,29.94,SW,225,0.0,0.0,73,0.00,,---,0.00,VWS V14.00,2013-09-21 04:29:00,
2013-09-21 00:30:00,65.7,56.8,29.94,SW,225,0.0,0.0,73,0.00,,---,0.00,VWS V14.00,2013-09-21 04:30:00,
2013-09-21 00:31:00,65.7,56.8,29.94,SW,225,0.0,0.0,73,0.00,,---,0.00,VWS V14.00,2013-09-21 04:31:00,
2013-09-21 00:32:00,65.7,56.8,29.94,SW,225,0.0,0.0,73,0.00,,---,0.00,VWS V14.00,2013-09-21 04:32:00,
2013-09-21 00:33:00,65.7,56.8,29.94,SW,225,0.0,0.0,73,0.00,,---,0.00,VWS V14.00,2013-09-21 04:33:00,
2013-09-21 00:34:00,65.7,56.8,29.94,SW,225,0.0,0.0,73,0.00,,---,0.00,VWS V14.00,2013-09-21 04:34:00,
2013-09-21 00:35:00,65.8,57.0,29.94,SW,225,0.0,0.0,73,0.00,,---,0.00,VWS V14.00,2013-09-21 04:35:00,
2013-09-21 00:36:00,65.7,56.8,29.94,SW,225,0.0,0.0,73,0.00,,---,0.00,VWS V14.00,2013-09-21 04:36:00,
2013-09-21 00:37:00,65.7,56.8,29.94,SW,225,0.0,0.0,73,0.00,,---,0.00,VWS V14.00,2013-09-21 04:37:00,
2013-09-21 00:38:00,65.7,56.8,29.94,SW,225,0.0,0.0,73,0.00,,---,0.00,VWS V14.00,2013-09-21 04:38:00,
2013-09-21 00:39:00,65.7,56.8,29.94,SW,225,0.0,0.0,73,0.00,,---,0.00,VWS V14.00,2013-09-21 04:39:00,
2013-09-21 00:40:00,65.8,57.0,29.94,SW,225,0.0,0.0,73,0.00,,---,0.00,VWS V14.00,2013-09-21 04:40:00,
2013-09-21 00:41:00,65.7,56.8,29.94,SW,225,0.0,0.0,73,0.00,,---,0.00,VWS V14.00,2013-09-21 04:41:00,
2013-09-21 00:42:00,65.7,56.8,29.94,SW,225,0.0,0.0,73,0.00,,---,0.00,VWS V14.00,2013-09-21 04:42:00,
2013-09-21 00:43:00,65.7,56.8,29.94,SW,225,0.0,0.0,73,0.00,,---,0.00,VWS V14.00,2013-09-21 04:43:00,
2013-09-21 00:44:00,65.7,56.8,29.94,SW,225,0.0,0.0,73,0.00,,---,0.00,VWS V14.00,2013-09-21 04:44:00,
2013-09-21 00:45:00,65.7,56.8,29.94,SW,225,0.0,0.0,73,0.00,,---,0.00,VWS V14.00,2013-09-21 04:45:00,
2013-09-21 00:46:00,65.7,56.8,29.94,SW,225,0.0,0.0,73,0.00,,---,0.00,VWS V14.00,2013-09-21 04:46:00,
2013-09-21 00:47:00,65.7,56.8,29.94,SW,225,0.0,0.0,73,0.00,,---,0.00,VWS V14.00,2013-09-21 04:47:00,
2013-09-21 00:48:00,65.7,56.8,29.94,SW,225,0.0,0.0,73,0.00,,---,0.00,VWS V14.00,2013-09-21 04:48:00,
2013-09-21 00:49:00,65.7,56.8,29.94,SW,225,0.0,0.0,73,0.00,,---,0.00,VWS V14.00,2013-09-21 04:49:00,
2013-09-21 00:50:00,65.7,56.8,29.94,SW,225,0.0,0.0,73,0.00,,---,0.00,VWS V14.00,2013-09-21 04:50:00,
2013-09-21 00:51:00,65.7,56.8,29.94,SW,225,0.0,0.0,73,0.00,,---,0.00,VWS V14.00,2013-09-21 04:51:00,
2013-09-21 00:52:00,65.7,56.8,29.94,SW,225,0.0,0.0,73,0.00,,---,0.00,VWS V14.00,2013-09-21 04:52:00,
2013-09-21 00:53:00,65.7,56.8,29.94,SW,225,0.0,0.0,73,0.00,,---,0.00,VWS V14.00,2013-09-21 04:53:00,
2013-09-21 00:54:00,65.7,56.8,29.94,SW,225,0.0,0.0,73,0.00,,---,0.00,VWS V14.00,2013-09-21 04:54:00,
2013-09-21 00:55:00,65.7,56.8,29.94,SW,225,0.0,0.0,73,0.00,,---,0.00,VWS V14.00,2013-09-21 04:55:00,
2013-09-21 00:56:00,65.8,57.0,29.94,SW,225,0.0,0.0,73,0.00,,---,0.00,VWS V14.00,2013-09-21 04:56:00,
2013-09-21 00:57:00,65.8,57.0,29.94,SW,225,0.0,0.0,73,0.00,,---,0.00,VWS V14.00,2013-09-21 04:57:00,
2013-09-21 00:58:00,65.8,57.0,29.94,SW,225,0.0,0.0,73,0.00,,---,0.00,VWS V14.00,2013-09-21 04:58:00,
2013-09-21 00:59:00,65.8,57.0,29.94,SW,225,0.0,0.0,73,0.00,,---,0.00,VWS V14.00,2013-09-21 04:59:00,
2013-09-21 01:00:00,65.5,56.6,29.94,SW,225,0.0,0.0,73,0.00,,---,0.00,VWS V14.00,2013-09-21 05:00:00,
2013-09-21 01:01:00,65.8,57.0,29.94,SW,225,0.0,0.0,73,0.00,,---,0.00,VWS V14.00,2013-09-21 05:01:00,
2013-09-21 01:02:00,65.8,57.0,29.94,SW,225,0.0,0.0,73,0.00,,---,0.00,VWS V14.00,2013-09-21 05:02:00,
2013-09-21 01:03:00,65.8,57.0,29.94,SW,225,0.0,0.0,73,0.00,,---,0.00,VWS V14.00,2013-09-21 05:03:00,
2013-09-21 01:04:00,65.8,57.0,29.94,SW,225,0.0,0.0,73,0.00,,---,0.00,VWS V14.00,2013-09-21 05:04:00,
2013-09-21 01:05:00,65.5,56.6,29.94,SW,225,0.0,0.0,73,0.00,,---,0.00,VWS V14.00,2013-09-21 05:05:00,
2013-09-21 01:06:00,65.7,56.8,29.94,SW,225,0.0,0.0,73,0.00,,---,0.00,VWS V14.00,2013-09-21 05:06:00,
2013-09-21 01:07:00,65.7,56.8,29.94,SW,225,0.0,0.0,73,0.00,,---,0.00,VWS V14.00,2013-09-21 05:07:00,
2013-09-21 01:08:00,65.7,56.8,29.94,SW,225,0.0,0.0,73,0.00,,---,0.00,VWS V14.00,2013-09-21 05:08:00,
2013-09-21 01:09:00,65.7,56.8,29.94,SW,225,0.0,0.0,73,0.00,,---,0.00,VWS V14.00,2013-09-21 05:09:00,
2013-09-21 01:10:00,65.5,56.6,29.91,SW,225,0.0,0.0,73,0.00,,---,0.00,VWS V14.00,2013-09-21 05:10:00,
2013-09-21 01:11:00,65.7,56.8,29.94,SW,225,0.0,0.0,73,0.00,,---,0.00,VWS V14.00,2013-09-21 05:11:00,
2013-09-21 01:12:00,65.7,56.8,29.94,SW,225,0.0,0.0,73,0.00,,---,0.00,VWS V14.00,2013-09-21 05:12:00,
2013-09-21 01:14:00,65.7,56.8,29.94,SW,225,0.0,0.0,73,0.00,,---,0.00,VWS V14.00,2013-09-21 05:14:00,
2013-09-21 01:15:00,65.3,56.8,29.91,SW,225,0.0,0.0,74,0.00,,---,0.00,VWS V14.00,2013-09-21 05:15:00,
2013-09-21 01:16:00,65.7,56.8,29.94,SW,225,0.0,0.0,73,0.00,,---,0.00,VWS V14.00,2013-09-21 05:16:00,
2013-09-21 01:17:00,65.7,56.8,29.94,SW,225,0.0,0.0,73,0.00,,---,0.00,VWS V14.00,2013-09-21 05:17:00,
2013-09-21 01:18:00,65.5,56.6,29.94,SW,225,0.0,0.0,73,0.00,,---,0.00,VWS V14.00,2013-09-21 05:18:00,
2013-09-21 01:19:00,65.5,56.6,29.94,SW,225,0.0,0.0,73,0.00,,---,0.00,VWS V14.00,2013-09-21 05:19:00,
2013-09-21 01:20:00,65.3,57.2,29.91,SW,225,0.0,0.0,75,0.00,,---,0.00,VWS V14.00,2013-09-21 05:20:00,
2013-09-21 01:21:00,65.5,56.6,29.94,SW,225,0.0,0.0,73,0.00,,---,0.00,VWS V14.00,2013-09-21 05:21:00,
2013-09-21 01:22:00,65.5,56.6,29.94,SW,225,0.0,0.0,73,0.00,,---,0.00,VWS V14.00,2013-09-21 05:22:00,
2013-09-21 01:23:00,65.5,56.6,29.94,SW,225,0.0,0.0,73,0.00,,---,0.00,VWS V14.00,2013-09-21 05:23:00,
2013-09-21 01:24:00,65.5,56.6,29.94,SW,225,0.0,0.0,73,0.00,,---,0.00,VWS V14.00,2013-09-21 05:24:00,
2013-09-21 01:25:00,65.3,57.2,29.94,SW,225,0.0,0.0,75,0.00,,---,0.00,VWS V14.00,2013-09-21 05:25:00,
2013-09-21 01:26:00,65.5,56.6,29.94,SW,225,0.0,0.0,73,0.00,,---,0.00,VWS V14.00,2013-09-21 05:26:00,
2013-09-21 01:27:00,65.5,56.6,29.94,SW,225,0.0,0.0,73,0.00,,---,0.00,VWS V14.00,2013-09-21 05:27:00,
2013-09-21 01:28:00,65.5,56.6,29.94,SW,225,0.0,0.0,73,0.00,,---,0.00,VWS V14.00,2013-09-21 05:28:00,
2013-09-21 01:29:00,65.5,56.6,29.94,SW,225,0.0,0.0,73,0.00,,---,0.00,VWS V14.00,2013-09-21 05:29:00,
2013-09-21 01:30:00,65.3,57.2,29.94,SW,225,0.0,0.0,75,0.00,,---,0.00,VWS V14.00,2013-09-21 05:30:00,
2013-09-21 01:31:00,65.5,56.6,29.94,SW,225,0.0,0.0,73,0.00,,---,0.00,VWS V14.00,2013-09-21 05:31:00,
2013-09-21 01:32:00,65.5,56.6,29.91,SW,225,0.0,0.0,73,0.00,,---,0.00,VWS V14.00,2013-09-21 05:32:00,
2013-09-21 01:33:00,65.3,56.8,29.91,SW,225,0.0,0.0,74,0.00,,---,0.00,VWS V14.00,2013-09-21 05:33:00,
2013-09-21 01:34:00,65.3,56.8,29.91,SW,225,0.0,0.0,74,0.00,,---,0.00,VWS V14.00,2013-09-21 05:34:00,
2013-09-21 01:35:00,65.3,56.8,29.91,SW,225,0.0,0.0,74,0.00,,---,0.00,VWS V14.00,2013-09-21 05:35:00,
2013-09-21 01:36:00,65.5,57.7,29.94,SW,225,0.0,0.0,76,0.00,,---,0.00,VWS V14.00,2013-09-21 05:36:00,
2013-09-21 01:37:00,65.3,56.8,29.91,SW,225,0.0,0.0,74,0.00,,---,0.00,VWS V14.00,2013-09-21 05:37:00,
2013-09-21 01:38:00,65.3,56.8,29.91,SW,225,0.0,0.0,74,0.00,,---,0.00,VWS V14.00,2013-09-21 05:38:00,
2013-09-21 01:39:00,65.3,57.2,29.91,SW,225,0.0,0.0,75,0.00,,---,0.00,VWS V14.00,2013-09-21 05:39:00,
2013-09-21 01:40:00,65.3,57.2,29.91,SW,225,0.0,0.0,75,0.00,,---,0.00,VWS V14.00,2013-09-21 05:40:00,
2013-09-21 01:41:00,65.5,57.7,29.94,SW,225,0.0,0.0,76,0.00,,---,0.00,VWS V14.00,2013-09-21 05:41:00,
2013-09-21 01:42:00,65.3,57.2,29.91,SW,225,0.0,0.0,75,0.00,,---,0.00,VWS V14.00,2013-09-21 05:42:00,
2013-09-21 01:43:00,65.3,57.2,29.91,SW,225,0.0,0.0,75,0.00,,---,0.00,VWS V14.00,2013-09-21 05:43:00,
2013-09-21 01:44:00,65.3,57.2,29.91,SW,225,0.0,0.0,75,0.00,,---,0.00,VWS V14.00,2013-09-21 05:44:00,
2013-09-21 01:45:00,65.3,57.2,29.91,SW,225,0.0,0.0,75,0.00,,---,0.00,VWS V14.00,2013-09-21 05:45:00,
2013-09-21 01:46:00,65.5,58.1,29.94,SW,225,0.0,0.0,77,0.00,,---,0.00,VWS V14.00,2013-09-21 05:46:00,
2013-09-21 01:47:00,65.3,57.2,29.94,SW,225,0.0,0.0,75,0.00,,---,0.00,VWS V14.00,2013-09-21 05:47:00,
2013-09-21 01:48:00,65.3,57.2,29.94,SW,225,0.0,0.0,75,0.00,,---,0.00,VWS V14.00,2013-09-21 05:48:00,
2013-09-21 01:49:00,65.3,57.2,29.94,SW,225,0.0,0.0,75,0.00,,---,0.00,VWS V14.00,2013-09-21 05:49:00,
2013-09-21 01:50:00,65.3,57.2,29.94,SW,225,0.0,0.0,75,0.00,,---,0.00,VWS V14.00,2013-09-21 05:50:00,
2013-09-21 01:51:00,65.5,58.1,29.94,SW,225,0.0,1.1,77,0.00,,---,0.00,VWS V14.00,2013-09-21 05:51:00,
2013-09-21 01:52:00,65.3,57.2,29.94,SW,225,0.0,0.0,75,0.00,,---,0.00,VWS V14.00,2013-09-21 05:52:00,
2013-09-21 01:53:00,65.3,57.2,29.94,SW,225,0.0,0.0,75,0.00,,---,0.00,VWS V14.00,2013-09-21 05:53:00,
2013-09-21 01:54:00,65.3,57.2,29.94,SW,225,0.0,0.0,75,0.00,,---,0.00,VWS V14.00,2013-09-21 05:54:00,
2013-09-21 01:55:00,65.3,57.5,29.94,SW,225,0.0,0.0,76,0.00,,---,0.00,VWS V14.00,2013-09-21 05:55:00,
2013-09-21 01:56:00,65.7,58.3,29.94,WSW,248,0.0,0.0,77,0.00,,---,0.00,VWS V14.00,2013-09-21 05:56:00,
2013-09-21 01:57:00,65.5,57.7,29.94,SW,225,0.0,0.0,76,0.00,,---,0.00,VWS V14.00,2013-09-21 05:57:00,
2013-09-21 01:58:00,65.3,57.5,29.94,SW,225,0.0,0.0,76,0.00,,---,0.00,VWS V14.00,2013-09-21 05:58:00,
2013-09-21 01:59:00,65.5,57.7,29.94,SW,225,0.0,1.1,76,0.00,,---,0.00,VWS V14.00,2013-09-21 05:59:00,
2013-09-21 02:00:00,65.5,57.7,29.94,SW,225,0.0,0.0,76,0.00,,---,0.00,VWS V14.00,2013-09-21 06:00:00,
2013-09-21 02:01:00,65.7,58.3,29.94,WSW,248,0.0,0.0,77,0.00,,---,0.00,VWS V14.00,2013-09-21 06:01:00,
2013-09-21 02:02:00,65.5,57.7,29.94,SW,225,0.0,0.0,76,0.00,,---,0.00,VWS V14.00,2013-09-21 06:02:00,
2013-09-21 02:03:00,65.5,57.7,29.94,SW,225,0.0,0.0,76,0.00,,---,0.00,VWS V14.00,2013-09-21 06:03:00,
2013-09-21 02:04:00,65.5,58.1,29.94,SW,225,0.9,1.3,77,0.00,,---,0.00,VWS V14.00,2013-09-21 06:04:00,
2013-09-21 02:05:00,65.5,57.7,29.94,SW,225,0.0,0.9,76,0.00,,---,0.00,VWS V14.00,2013-09-21 06:05:00,
2013-09-21 02:06:00,65.7,58.3,29.94,SW,225,0.0,1.3,77,0.00,,---,0.00,VWS V14.00,2013-09-21 06:06:00,
2013-09-21 02:07:00,65.5,58.1,29.94,SW,225,0.0,1.1,77,0.00,,---,0.00,VWS V14.00,2013-09-21 06:07:00,
2013-09-21 02:08:00,65.5,58.1,29.94,SW,225,0.0,1.1,77,0.00,,---,0.00,VWS V14.00,2013-09-21 06:08:00,
2013-09-21 02:09:00,65.5,58.1,29.94,SW,225,0.0,0.0,77,0.00,,---,0.00,VWS V14.00,2013-09-21 06:09:00,
2013-09-21 02:10:00,65.5,58.1,29.94,SW,225,0.0,0.9,77,0.00,,---,0.00,VWS V14.00,2013-09-21 06:10:00,
2013-09-21 02:11:00,65.7,58.3,29.94,SW,225,0.0,0.0,77,0.00,,---,0.00,VWS V14.00,2013-09-21 06:11:00,
2013-09-21 02:12:00,65.5,58.1,29.94,SW,225,0.0,1.3,77,0.00,,---,0.00,VWS V14.00,2013-09-21 06:12:00,
2013-09-21 02:13:00,65.5,58.1,29.94,SW,225,1.1,1.1,77,0.00,,---,0.00,VWS V14.00,2013-09-21 06:13:00,
2013-09-21 02:14:00,65.5,58.1,29.94,WSW,248,1.3,1.6,77,0.00,,---,0.00,VWS V14.00,2013-09-21 06:14:00,
2013-09-21 02:15:00,65.5,58.1,29.94,WSW,248,0.9,1.3,77,0.00,,---,0.00,VWS V14.00,2013-09-21 06:15:00,
2013-09-21 02:16:00,65.7,58.3,29.94,SW,225,2.2,2.2,77,0.00,,---,0.00,VWS V14.00,2013-09-21 06:16:00,
2013-09-21 02:17:00,65.5,58.1,29.94,WSW,248,0.0,1.3,77,0.00,,---,0.00,VWS V14.00,2013-09-21 06:17:00,
2013-09-21 02:18:00,65.7,58.3,29.94,WSW,248,0.0,0.0,77,0.00,,---,0.00,VWS V14.00,2013-09-21 06:18:00,
2013-09-21 02:19:00,65.7,58.3,29.94,WSW,248,0.0,0.0,77,0.00,,---,0.00,VWS V14.00,2013-09-21 06:19:00,
2013-09-21 02:20:00,65.7,58.3,29.94,WSW,248,0.0,0.0,77,0.00,,---,0.00,VWS V14.00,2013-09-21 06:20:00,
2013-09-21 02:21:00,65.7,58.3,29.94,SW,225,0.0,0.0,77,0.00,,---,0.00,VWS V14.00,2013-09-21 06:21:00,
2013-09-21 02:22:00,65.7,58.3,29.94,WSW,248,0.0,0.0,77,0.00,,---,0.00,VWS V14.00,2013-09-21 06:22:00,
2013-09-21 02:23:00,65.7,58.3,29.94,WSW,248,0.0,0.0,77,0.00,,---,0.00,VWS V14.00,2013-09-21 06:23:00,
2013-09-21 02:24:00,65.7,58.3,29.94,WSW,248,0.0,0.0,77,0.00,,---,0.00,VWS V14.00,2013-09-21 06:24:00,
2013-09-21 02:25:00,65.7,58.3,29.94,WSW,248,1.1,1.1,77,0.00,,---,0.00,VWS V14.00,2013-09-21 06:25:00,
2013-09-21 02:26:00,65.7,58.3,29.94,SW,225,0.0,0.0,77,0.00,,---,0.00,VWS V14.00,2013-09-21 06:26:00,
2013-09-21 02:27:00,65.7,58.3,29.94,SW,225,1.3,1.3,77,0.00,,---,0.00,VWS V14.00,2013-09-21 06:27:00,
2013-09-21 02:28:00,65.7,58.3,29.94,SW,225,0.0,1.3,77,0.00,,---,0.00,VWS V14.00,2013-09-21 06:28:00,
2013-09-21 02:29:00,65.7,58.3,29.94,SW,225,0.0,0.0,77,0.00,,---,0.00,VWS V14.00,2013-09-21 06:29:00,
2013-09-21 02:30:00,65.7,58.3,29.94,SW,225,0.0,0.0,77,0.00,,---,0.00,VWS V14.00,2013-09-21 06:30:00,
2013-09-21 02:31:00,65.7,58.3,29.94,SW,225,0.0,1.1,77,0.00,,---,0.00,VWS V14.00,2013-09-21 06:31:00,
2013-09-21 02:32:00,65.7,58.3,29.94,SW,225,0.0,1.3,77,0.00,,---,0.00,VWS V14.00,2013-09-21 06:32:00,
2013-09-21 02:33:00,65.7,58.3,29.94,SW,225,0.9,1.3,77,0.00,,---,0.00,VWS V14.00,2013-09-21 06:33:00,
2013-09-21 02:34:00,65.7,58.3,29.94,SW,225,0.0,0.9,77,0.00,,---,0.00,VWS V14.00,2013-09-21 06:34:00,
2013-09-21 02:35:00,65.7,58.3,29.94,SW,225,1.1,1.1,77,0.00,,---,0.00,VWS V14.00,2013-09-21 06:35:00,
2013-09-21 02:36:00,65.8,58.4,29.94,SW,225,0.0,0.0,77,0.00,,---,0.00,VWS V14.00,2013-09-21 06:36:00,
2013-09-21 02:37:00,65.7,58.3,29.94,SW,225,0.0,0.0,77,0.00,,---,0.00,VWS V14.00,2013-09-21 06:37:00,
2013-09-21 02:38:00,65.7,58.3,29.94,SW,225,1.1,2.2,77,0.00,,---,0.00,VWS V14.00,2013-09-21 06:38:00,
2013-09-21 02:39:00,65.7,58.3,29.94,SW,225,1.1,1.1,77,0.00,,---,0.00,VWS V14.00,2013-09-21 06:39:00,
2013-09-21 02:40:00,65.7,58.3,29.94,SW,225,0.0,1.6,77,0.00,,---,0.00,VWS V14.00,2013-09-21 06:40:00,
2013-09-21 02:41:00,65.8,58.4,29.91,SW,225,0.0,0.0,77,0.00,,---,0.00,VWS V14.00,2013-09-21 06:41:00,
2013-09-21 02:42:00,65.7,58.3,29.94,SW,225,0.0,0.0,77,0.00,,---,0.00,VWS V14.00,2013-09-21 06:42:00,
2013-09-21 02:43:00,65.7,58.3,29.94,SW,225,0.0,0.0,77,0.00,,---,0.00,VWS V14.00,2013-09-21 06:43:00,
2013-09-21 02:44:00,65.7,58.3,29.94,SW,225,0.0,0.0,77,0.00,,---,0.00,VWS V14.00,2013-09-21 06:44:00,
2013-09-21 02:45:00,65.7,58.3,29.94,SW,225,1.6,1.6,77,0.00,,---,0.00,VWS V14.00,2013-09-21 06:45:00,
2013-09-21 02:46:00,65.8,58.1,29.91,SW,225,0.0,0.0,76,0.00,,---,0.00,VWS V14.00,2013-09-21 06:46:00,
2013-09-21 02:47:00,65.7,58.3,29.94,SW,225,0.0,0.0,77,0.00,,---,0.00,VWS V14.00,2013-09-21 06:47:00,
2013-09-21 02:48:00,65.7,58.3,29.94,SW,225,0.0,0.0,77,0.00,,---,0.00,VWS V14.00,2013-09-21 06:48:00,
2013-09-21 02:49:00,65.8,58.4,29.94,SW,225,0.0,0.0,77,0.00,,---,0.00,VWS V14.00,2013-09-21 06:49:00,
2013-09-21 02:50:00,65.8,58.4,29.94,SW,225,0.0,0.0,77,0.00,,---,0.00,VWS V14.00,2013-09-21 06:50:00,
2013-09-21 02:51:00,65.8,58.1,29.91,SW,225,0.0,0.0,76,0.00,,---,0.00,VWS V14.00,2013-09-21 06:51:00,
2013-09-21 02:52:00,65.7,58.3,29.94,SW,225,0.0,0.0,77,0.00,,---,0.00,VWS V14.00,2013-09-21 06:52:00,
2013-09-21 02:53:00,65.7,58.3,29.94,SW,225,0.0,1.1,77,0.00,,---,0.00,VWS V14.00,2013-09-21 06:53:00,
2013-09-21 02:54:00,65.8,58.4,29.94,SW,225,0.0,0.0,77,0.00,,---,0.00,VWS V14.00,2013-09-21 06:54:00,
2013-09-21 02:55:00,65.8,58.4,29.94,SW,225,0.0,1.3,77,0.00,,---,0.00,VWS V14.00,2013-09-21 06:55:00,
2013-09-21 02:56:00,65.8,58.1,29.91,SW,225,0.0,0.0,76,0.00,,---,0.00,VWS V14.00,2013-09-21 06:56:00,
2013-09-21 02:57:00,65.8,58.4,29.94,SW,225,0.0,0.0,77,0.00,,---,0.00,VWS V14.00,2013-09-21 06:57:00,
2013-09-21 02:58:00,65.8,58.4,29.94,SW,225,0.0,0.0,77,0.00,,---,0.00,VWS V14.00,2013-09-21 06:58:00,
2013-09-21 02:59:00,65.8,58.4,29.94,SW,225,0.0,0.0,77,0.00,,---,0.00,VWS V14.00,2013-09-21 06:59:00,
2013-09-21 03:00:00,65.8,58.4,29.94,SW,225,0.0,0.0,77,0.00,,---,0.00,VWS V14.00,2013-09-21 07:00:00,
2013-09-21 03:01:00,65.8,58.1,29.91,SW,225,0.0,0.0,76,0.00,,---,0.00,VWS V14.00,2013-09-21 07:01:00,
2013-09-21 03:02:00,65.8,58.4,29.91,SW,225,0.0,0.0,77,0.00,,---,0.00,VWS V14.00,2013-09-21 07:02:00,
2013-09-21 03:03:00,65.8,58.4,29.91,SW,225,0.0,0.0,77,0.00,,---,0.00,VWS V14.00,2013-09-21 07:03:00,
2013-09-21 03:04:00,65.8,58.1,29.91,SW,225,0.0,0.0,76,0.00,,---,0.00,VWS V14.00,2013-09-21 07:04:00,
2013-09-21 03:05:00,65.8,58.1,29.91,SW,225,0.0,0.0,76,0.00,,---,0.00,VWS V14.00,2013-09-21 07:05:00,
2013-09-21 03:06:00,65.8,58.1,29.91,SW,225,0.0,0.0,76,0.00,,---,0.00,VWS V14.00,2013-09-21 07:06:00,
2013-09-21 03:07:00,65.8,58.1,29.91,SW,225,0.0,1.1,76,0.00,,---,0.00,VWS V14.00,2013-09-21 07:07:00,
2013-09-21 03:08:00,65.8,58.1,29.91,SW,225,0.0,0.0,76,0.00,,---,0.00,VWS V14.00,2013-09-21 07:08:00,
2013-09-21 03:09:00,65.8,58.1,29.91,SW,225,0.0,0.0,76,0.00,,---,0.00,VWS V14.00,2013-09-21 07:09:00,
2013-09-21 03:10:00,65.8,58.1,29.91,SW,225,1.1,1.3,76,0.00,,---,0.00,VWS V14.00,2013-09-21 07:10:00,
2013-09-21 03:11:00,65.8,58.1,29.91,SW,225,0.0,0.0,76,0.00,,---,0.00,VWS V14.00,2013-09-21 07:11:00,
2013-09-21 03:12:00,65.8,58.1,29.91,SW,225,0.0,0.0,76,0.00,,---,0.00,VWS V14.00,2013-09-21 07:12:00,
2013-09-21 03:13:00,65.8,58.1,29.91,SW,225,0.0,0.0,76,0.00,,---,0.00,VWS V14.00,2013-09-21 07:13:00,
2013-09-21 03:14:00,65.8,58.1,29.91,SW,225,0.0,0.0,76,0.00,,---,0.00,VWS V14.00,2013-09-21 07:14:00,
2013-09-21 03:15:00,65.8,58.1,29.91,SW,225,0.0,0.0,76,0.00,,---,0.00,VWS V14.00,2013-09-21 07:15:00,
2013-09-21 03:16:00,65.8,58.1,29.91,SW,225,0.0,0.0,76,0.00,,---,0.00,VWS V14.00,2013-09-21 07:16:00,
2013-09-21 03:17:00,65.8,57.7,29.91,SW,225,0.0,0.0,75,0.00,,---,0.00,VWS V14.00,2013-09-21 07:17:00,
2013-09-21 03:18:00,65.8,58.1,29.91,SW,225,0.0,0.0,76,0.00,,---,0.00,VWS V14.00,2013-09-21 07:18:00,
2013-09-21 03:19:00,65.8,58.1,29.91,SW,225,0.0,1.1,76,0.00,,---,0.00,VWS V14.00,2013-09-21 07:19:00,
2013-09-21 03:20:00,65.8,58.1,29.91,SW,225,0.0,0.0,76,0.00,,---,0.00,VWS V14.00,2013-09-21 07:20:00,
2013-09-21 03:21:00,65.8,58.1,29.91,SW,225,0.0,0.0,76,0.00,,---,0.00,VWS V14.00,2013-09-21 07:21:00,
2013-09-21 03:22:00,65.8,57.7,29.91,SW,225,0.0,0.0,75,0.00,,---,0.00,VWS V14.00,2013-09-21 07:22:00,
2013-09-21 03:23:00,65.8,58.1,29.91,SW,225,0.0,0.0,76,0.00,,---,0.00,VWS V14.00,2013-09-21 07:23:00,
2013-09-21 03:24:00,65.8,58.1,29.91,SW,225,0.0,0.0,76,0.00,,---,0.00,VWS V14.00,2013-09-21 07:24:00,
2013-09-21 03:25:00,65.8,58.1,29.91,SW,225,1.1,1.6,76,0.00,,---,0.00,VWS V14.00,2013-09-21 07:25:00,
2013-09-21 03:26:00,65.8,58.1,29.91,SW,225,0.0,1.1,76,0.00,,---,0.00,VWS V14.00,2013-09-21 07:26:00,
2013-09-21 03:27:00,65.7,57.5,29.91,SW,225,0.0,0.0,75,0.00,,---,0.00,VWS V14.00,2013-09-21 07:27:00,
2013-09-21 03:28:00,65.8,58.1,29.91,SW,225,0.0,0.0,76,0.00,,---,0.00,VWS V14.00,2013-09-21 07:28:00,
2013-09-21 03:29:00,65.8,58.1,29.91,SW,225,0.0,0.0,76,0.00,,---,0.00,VWS V14.00,2013-09-21 07:29:00,
2013-09-21 03:30:00,65.8,58.1,29.91,SW,225,0.0,0.0,76,0.00,,---,0.00,VWS V14.00,2013-09-21 07:30:00,
2013-09-21 03:31:00,65.8,58.1,29.91,SW,225,0.0,0.0,76,0.00,,---,0.00,VWS V14.00,2013-09-21 07:31:00,
2013-09-21 03:32:00,65.7,57.5,29.91,SW,225,0.0,0.0,75,0.00,,---,0.00,VWS V14.00,2013-09-21 07:32:00,
2013-09-21 03:33:00,65.8,58.1,29.91,SW,225,0.0,1.3,76,0.00,,---,0.00,VWS V14.00,2013-09-21 07:33:00,
2013-09-21 03:34:00,65.8,58.1,29.91,SW,225,0.0,0.0,76,0.00,,---,0.00,VWS V14.00,2013-09-21 07:34:00,
2013-09-21 03:35:00,65.8,58.1,29.91,SW,225,0.0,0.0,76,0.00,,---,0.00,VWS V14.00,2013-09-21 07:35:00,
2013-09-21 03:36:00,65.8,58.1,29.91,SW,225,0.0,0.0,76,0.00,,---,0.00,VWS V14.00,2013-09-21 07:36:00,
2013-09-21 03:37:00,65.5,57.4,29.91,SW,225,0.0,0.0,75,0.00,,---,0.00,VWS V14.00,2013-09-21 07:37:00,
2013-09-21 03:38:00,65.8,57.7,29.91,SW,225,0.0,0.0,75,0.00,,---,0.00,VWS V14.00,2013-09-21 07:38:00,
2013-09-21 03:39:00,65.8,57.7,29.91,SW,225,0.0,0.0,75,0.00,,---,0.00,VWS V14.00,2013-09-21 07:39:00,
2013-09-21 03:40:00,65.8,57.7,29.91,SW,225,0.0,0.0,75,0.00,,---,0.00,VWS V14.00,2013-09-21 07:40:00,
2013-09-21 03:41:00,65.8,57.7,29.91,SW,225,0.0,1.1,75,0.00,,---,0.00,VWS V14.00,2013-09-21 07:41:00,
2013-09-21 03:42:00,65.3,57.2,29.88,SW,225,0.0,0.0,75,0.00,,---,0.00,VWS V14.00,2013-09-21 07:42:00,
2013-09-21 03:43:00,65.8,57.7,29.91,SW,225,0.0,0.0,75,0.00,,---,0.00,VWS V14.00,2013-09-21 07:43:00,
2013-09-21 03:45:00,65.8,57.7,29.91,SW,225,0.0,0.0,75,0.00,,---,0.00,VWS V14.00,2013-09-21 07:45:00,
2013-09-21 03:46:00,65.8,57.7,29.91,SW,225,0.0,0.0,75,0.00,,---,0.00,VWS V14.00,2013-09-21 07:46:00,
2013-09-21 03:47:00,65.3,57.2,29.88,SW,225,0.0,0.0,75,0.00,,---,0.00,VWS V14.00,2013-09-21 07:47:00,
2013-09-21 03:48:00,65.7,57.5,29.91,SW,225,0.0,0.0,75,0.00,,---,0.00,VWS V14.00,2013-09-21 07:48:00,
2013-09-21 03:49:00,65.7,57.5,29.91,SW,225,0.0,0.0,75,0.00,,---,0.00,VWS V14.00,2013-09-21 07:49:00,
2013-09-21 03:50:00,65.7,57.5,29.91,SW,225,0.0,0.0,75,0.00,,---,0.00,VWS V14.00,2013-09-21 07:50:00,
2013-09-21 03:51:00,65.7,57.5,29.91,SW,225,0.0,0.0,75,0.00,,---,0.00,VWS V14.00,2013-09-21 07:51:00,
2013-09-21 03:52:00,65.1,57.4,29.88,SW,225,0.0,0.0,76,0.00,,---,0.00,VWS V14.00,2013-09-21 07:52:00,
2013-09-21 03:53:00,65.7,57.5,29.91,SW,225,0.0,0.0,75,0.00,,---,0.00,VWS V14.00,2013-09-21 07:53:00,
2013-09-21 03:54:00,65.7,57.5,29.91,SW,225,0.0,0.0,75,0.00,,---,0.00,VWS V14.00,2013-09-21 07:54:00,
2013-09-21 03:55:00,65.7,57.5,29.91,SW,225,0.0,0.0,75,0.00,,---,0.00,VWS V14.00,2013-09-21 07:55:00,
2013-09-21 03:56:00,65.7,57.5,29.91,SW,225,0.0,0.0,75,0.00,,---,0.00,VWS V14.00,2013-09-21 07:56:00,
2013-09-21 03:57:00,65.1,57.4,29.88,SW,225,0.0,0.0,76,0.00,,---,0.00,VWS V14.00,2013-09-21 07:57:00,
2013-09-21 03:58:00,65.5,57.4,29.91,SW,225,0.0,0.0,75,0.00,,---,0.00,VWS V14.00,2013-09-21 07:58:00,
2013-09-21 03:59:00,65.5,57.4,29.91,SW,225,0.0,0.0,75,0.00,,---,0.00,VWS V14.00,2013-09-21 07:59:00,
2013-09-21 04:00:00,65.5,57.4,29.91,SW,225,0.0,0.0,75,0.00,,---,0.00,VWS V14.00,2013-09-21 08:00:00,
2013-09-21 04:01:00,65.5,57.4,29.91,SW,225,0.0,0.0,75,0.00,,---,0.00,VWS V14.00,2013-09-21 08:01:00,
2013-09-21 04:02:00,64.9,57.2,29.88,SW,225,0.0,0.0,76,0.00,,---,0.00,VWS V14.00,2013-09-21 08:02:00,
2013-09-21 04:03:00,65.3,57.2,29.88,SW,225,0.0,0.0,75,0.00,,---,0.00,VWS V14.00,2013-09-21 08:03:00,
2013-09-21 04:04:00,65.3,57.2,29.88,SW,225,0.0,0.0,75,0.00,,---,0.00,VWS V14.00,2013-09-21 08:04:00,
2013-09-21 04:05:00,65.3,57.2,29.88,SW,225,0.0,0.0,75,0.00,,---,0.00,VWS V14.00,2013-09-21 08:05:00,
2013-09-21 04:06:00,65.3,57.2,29.88,SW,225,0.0,0.0,75,0.00,,---,0.00,VWS V14.00,2013-09-21 08:06:00,
2013-09-21 04:07:00,64.9,57.2,29.88,SW,225,0.0,0.0,76,0.00,,---,0.00,VWS V14.00,2013-09-21 08:07:00,
2013-09-21 04:08:00,65.3,57.2,29.88,SW,225,0.0,0.0,75,0.00,,---,0.00,VWS V14.00,2013-09-21 08:08:00,
2013-09-21 04:09:00,65.3,57.2,29.88,SW,225,0.0,0.0,75,0.00,,---,0.00,VWS V14.00,2013-09-21 08:09:00,
2013-09-21 04:10:00,65.1,57.0,29.88,SW,225,0.0,0.0,75,0.00,,---,0.00,VWS V14.00,2013-09-21 08:10:00,
2013-09-21 04:11:00,65.1,57.0,29.88,SW,225,0.0,0.0,75,0.00,,---,0.00,VWS V14.00,2013-09-21 08:11:00,
2013-09-21 04:12:00,64.8,57.0,29.88,SW,225,0.0,0.0,76,0.00,,---,0.00,VWS V14.00,2013-09-21 08:12:00,
2013-09-21 04:13:00,65.1,57.4,29.88,SW,225,0.0,0.0,76,0.00,,---,0.00,VWS V14.00,2013-09-21 08:13:00,
2013-09-21 04:14:00,65.1,57.4,29.88,SW,225,0.0,0.0,76,0.00,,---,0.00,VWS V14.00,2013-09-21 08:14:00,
2013-09-21 04:15:00,65.1,57.4,29.88,SW,225,0.0,0.0,76,0.00,,---,0.00,VWS V14.00,2013-09-21 08:15:00,
2013-09-21 04:16:00,65.1,57.4,29.88,SW,225,0.0,0.0,76,0.00,,---,0.00,VWS V14.00,2013-09-21 08:16:00,
2013-09-21 04:17:00,64.8,57.0,29.88,SW,225,0.0,0.0,76,0.00,,---,0.00,VWS V14.00,2013-09-21 08:17:00,
2013-09-21 04:18:00,65.1,57.4,29.88,SW,225,0.0,0.0,76,0.00,,---,0.00,VWS V14.00,2013-09-21 08:18:00,
2013-09-21 04:19:00,65.1,57.4,29.88,SW,225,0.0,0.0,76,0.00,,---,0.00,VWS V14.00,2013-09-21 08:19:00,
2013-09-21 04:20:00,64.9,57.2,29.88,SW,225,0.0,0.0,76,0.00,,---,0.00,VWS V14.00,2013-09-21 08:20:00,
2013-09-21 04:21:00,64.9,57.2,29.88,SW,225,0.0,0.0,76,0.00,,---,0.00,VWS V14.00,2013-09-21 08:21:00,
2013-09-21 04:22:00,64.6,56.8,29.88,SW,225,0.0,0.0,76,0.00,,---,0.00,VWS V14.00,2013-09-21 08:22:00,
2013-09-21 04:23:00,64.9,57.2,29.88,SW,225,0.0,0.0,76,0.00,,---,0.00,VWS V14.00,2013-09-21 08:23:00,
2013-09-21 04:24:00,64.9,57.2,29.88,SW,225,0.0,0.0,76,0.00,,---,0.00,VWS V14.00,2013-09-21 08:24:00,
2013-09-21 04:25:00,64.9,57.2,29.88,SW,225,0.0,0.0,76,0.00,,---,0.00,VWS V14.00,2013-09-21 08:25:00,
2013-09-21 04:26:00,64.9,57.2,29.88,SW,225,0.0,0.0,76,0.00,,---,0.00,VWS V14.00,2013-09-21 08:26:00,
2013-09-21 04:27:00,64.4,56.7,29.88,SW,225,0.0,0.0,76,0.00,,---,0.00,VWS V14.00,2013-09-21 08:27:00,
2013-09-21 04:28:00,64.9,57.2,29.88,SW,225,0.0,0.0,76,0.00,,---,0.00,VWS V14.00,2013-09-21 08:28:00,
2013-09-21 04:29:00,64.9,57.2,29.88,SW,225,0.0,0.0,76,0.00,,---,0.00,VWS V14.00,2013-09-21 08:29:00,
2013-09-21 04:30:00,64.8,57.0,29.88,SW,225,0.0,0.0,76,0.00,,---,0.00,VWS V14.00,2013-09-21 08:30:00,
2013-09-21 04:31:00,64.8,57.0,29.88,SW,225,0.0,0.0,76,0.00,,---,0.00,VWS V14.00,2013-09-21 08:31:00,
2013-09-21 04:32:00,64.4,56.7,29.88,SW,225,0.0,0.0,76,0.00,,---,0.00,VWS V14.00,2013-09-21 08:32:00,
2013-09-21 04:33:00,64.8,57.0,29.88,SW,225,0.0,0.0,76,0.00,,---,0.00,VWS V14.00,2013-09-21 08:33:00,
2013-09-21 04:34:00,64.8,57.0,29.88,SW,225,0.0,0.0,76,0.00,,---,0.00,VWS V14.00,2013-09-21 08:34:00,
2013-09-21 04:35:00,64.8,57.0,29.88,SW,225,0.0,0.0,76,0.00,,---,0.00,VWS V14.00,2013-09-21 08:35:00,
2013-09-21 04:36:00,64.8,57.0,29.88,SW,225,0.0,0.0,76,0.00,,---,0.00,VWS V14.00,2013-09-21 08:36:00,
2013-09-21 04:37:00,64.2,56.9,29.88,SW,225,0.0,0.0,77,0.00,,---,0.00,VWS V14.00,2013-09-21 08:37:00,
2013-09-21 04:38:00,64.8,57.0,29.88,SW,225,0.0,0.0,76,0.00,,---,0.00,VWS V14.00,2013-09-21 08:38:00,
2013-09-21 04:39:00,64.8,57.0,29.88,SW,225,0.0,0.0,76,0.00,,---,0.00,VWS V14.00,2013-09-21 08:39:00,
2013-09-21 04:40:00,64.8,57.0,29.88,SW,225,0.0,0.0,76,0.00,,---,0.00,VWS V14.00,2013-09-21 08:40:00,
2013-09-21 04:41:00,64.8,57.0,29.88,SW,225,0.0,0.0,76,0.00,,---,0.00,VWS V14.00,2013-09-21 08:41:00,
2013-09-21 04:42:00,64.2,56.9,29.88,SW,225,0.0,0.0,77,0.00,,---,0.00,VWS V14.00,2013-09-21 08:42:00,
2013-09-21 04:43:00,64.6,56.8,29.88,SW,225,0.0,0.0,76,0.00,,---,0.00,VWS V14.00,2013-09-21 08:43:00,
2013-09-21 04:44:00,64.6,56.8,29.88,SW,225,0.0,0.0,76,0.00,,---,0.00,VWS V14.00,2013-09-21 08:44:00,
2013-09-21 04:45:00,64.6,56.8,29.88,SW,225,0.0,0.0,76,0.00,,---,0.00,VWS V14.00,2013-09-21 08:45:00,
2013-09-21 04:46:00,64.6,56.8,29.88,SW,225,0.0,0.0,76,0.00,,---,0.00,VWS V14.00,2013-09-21 08:46:00,
2013-09-21 04:47:00,64.2,57.2,29.88,SW,225,0.0,0.0,78,0.00,,---,0.00,VWS V14.00,2013-09-21 08:47:00,
2013-09-21 04:48:00,64.4,56.7,29.88,SW,225,0.0,0.0,76,0.00,,---,0.00,VWS V14.00,2013-09-21 08:48:00,
2013-09-21 04:49:00,64.4,56.7,29.88,SW,225,0.0,0.0,76,0.00,,---,0.00,VWS V14.00,2013-09-21 08:49:00,
2013-09-21 04:50:00,64.4,56.7,29.88,SW,225,0.0,0.0,76,0.00,,---,0.00,VWS V14.00,2013-09-21 08:50:00,
2013-09-21 04:51:00,64.4,56.7,29.88,SW,225,0.0,0.0,76,0.00,,---,0.00,VWS V14.00,2013-09-21 08:51:00,
2013-09-21 04:52:00,64.2,57.2,29.88,SW,225,0.0,0.0,78,0.00,,---,0.00,VWS V14.00,2013-09-21 08:52:00,
2013-09-21 04:53:00,64.4,56.7,29.88,SW,225,0.0,0.0,76,0.00,,---,0.00,VWS V14.00,2013-09-21 08:53:00,
2013-09-21 04:54:00,64.4,56.7,29.88,SW,225,0.0,0.0,76,0.00,,---,0.00,VWS V14.00,2013-09-21 08:54:00,
2013-09-21 04:55:00,64.4,56.7,29.88,SW,225,0.0,0.0,76,0.00,,---,0.00,VWS V14.00,2013-09-21 08:55:00,
2013-09-21 04:56:00,64.2,56.9,29.88,SW,225,0.0,0.0,77,0.00,,---,0.00,VWS V14.00,2013-09-21 08:56:00,
2013-09-21 04:57:00,64.2,57.2,29.88,SW,225,0.0,0.0,78,0.00,,---,0.00,VWS V14.00,2013-09-21 08:57:00,
2013-09-21 04:58:00,64.2,56.9,29.88,SW,225,0.0,0.0,77,0.00,,---,0.00,VWS V14.00,2013-09-21 08:58:00,
2013-09-21 04:59:00,64.2,56.9,29.88,SW,225,0.0,0.0,77,0.00,,---,0.00,VWS V14.00,2013-09-21 08:59:00,
2013-09-21 05:00:00,64.2,56.9,29.88,SW,225,0.0,0.0,77,0.00,,---,0.00,VWS V14.00,2013-09-21 09:00:00,
2013-09-21 05:01:00,64.2,56.9,29.88,SW,225,0.0,0.0,77,0.00,,---,0.00,VWS V14.00,2013-09-21 09:01:00,
2013-09-21 05:02:00,64.4,57.4,29.88,SW,225,0.0,0.0,78,0.00,,---,0.00,VWS V14.00,2013-09-21 09:02:00,
2013-09-21 05:03:00,64.2,56.9,29.88,SW,225,0.0,0.0,77,0.00,,---,0.00,VWS V14.00,2013-09-21 09:03:00,
2013-09-21 05:04:00,64.2,56.9,29.88,SW,225,0.0,0.0,77,0.00,,---,0.00,VWS V14.00,2013-09-21 09:04:00,
2013-09-21 05:05:00,64.2,56.9,29.88,SW,225,0.0,0.0,77,0.00,,---,0.00,VWS V14.00,2013-09-21 09:05:00,
2013-09-21 05:06:00,64.2,56.9,29.88,SW,225,0.0,0.0,77,0.00,,---,0.00,VWS V14.00,2013-09-21 09:06:00,
2013-09-21 05:07:00,64.4,57.4,29.88,SW,225,0.0,0.0,78,0.00,,---,0.00,VWS V14.00,2013-09-21 09:07:00,
2013-09-21 05:08:00,64.2,57.2,29.88,SW,225,0.0,0.0,78,0.00,,---,0.00,VWS V14.00,2013-09-21 09:08:00,
2013-09-21 05:09:00,64.2,57.2,29.88,SW,225,0.0,0.0,78,0.00,,---,0.00,VWS V14.00,2013-09-21 09:09:00,
2013-09-21 05:10:00,64.2,57.2,29.88,SW,225,0.0,0.0,78,0.00,,---,0.00,VWS V14.00,2013-09-21 09:10:00,
2013-09-21 05:11:00,64.2,57.2,29.88,SW,225,0.0,0.0,78,0.00,,---,0.00,VWS V14.00,2013-09-21 09:11:00,
2013-09-21 05:12:00,64.2,57.2,29.88,SW,225,0.0,0.0,78,0.00,,---,0.00,VWS V14.00,2013-09-21 09:12:00,
2013-09-21 05:13:00,64.4,57.4,29.88,SW,225,0.0,0.0,78,0.00,,---,0.00,VWS V14.00,2013-09-21 09:13:00,
2013-09-21 05:14:00,64.2,57.2,29.88,SW,225,0.0,0.0,78,0.00,,---,0.00,VWS V14.00,2013-09-21 09:14:00,
2013-09-21 05:15:00,64.2,57.2,29.88,SW,225,0.0,0.0,78,0.00,,---,0.00,VWS V14.00,2013-09-21 09:15:00,
2013-09-21 05:16:00,64.2,57.2,29.88,SW,225,0.0,0.0,78,0.00,,---,0.00,VWS V14.00,2013-09-21 09:16:00,
2013-09-21 05:17:00,64.2,57.2,29.88,SW,225,0.0,0.0,78,0.00,,---,0.00,VWS V14.00,2013-09-21 09:17:00,
2013-09-21 05:18:00,64.2,57.2,29.88,SW,225,0.0,0.0,78,0.00,,---,0.00,VWS V14.00,2013-09-21 09:18:00,
2013-09-21 05:19:00,64.2,57.2,29.88,SW,225,0.0,0.0,78,0.00,,---,0.00,VWS V14.00,2013-09-21 09:19:00,
2013-09-21 05:20:00,64.2,57.2,29.88,SW,225,0.0,0.0,78,0.00,,---,0.00,VWS V14.00,2013-09-21 09:20:00,
2013-09-21 05:21:00,64.2,57.2,29.88,SW,225,0.0,0.0,78,0.00,,---,0.00,VWS V14.00,2013-09-21 09:21:00,
2013-09-21 05:22:00,64.2,57.2,29.88,SW,225,0.0,0.0,78,0.00,,---,0.00,VWS V14.00,2013-09-21 09:22:00,
2013-09-21 05:23:00,64.2,57.2,29.88,SW,225,0.0,0.0,78,0.00,,---,0.00,VWS V14.00,2013-09-21 09:23:00,
2013-09-21 05:24:00,64.4,57.4,29.88,SW,225,0.0,0.0,78,0.00,,---,0.00,VWS V14.00,2013-09-21 09:24:00,
2013-09-21 05:25:00,64.4,57.4,29.88,SW,225,0.0,0.0,78,0.00,,---,0.00,VWS V14.00,2013-09-21 09:25:00,
2013-09-21 05:26:00,64.4,57.4,29.88,SW,225,0.0,0.0,78,0.00,,---,0.00,VWS V14.00,2013-09-21 09:26:00,
2013-09-21 05:27:00,64.4,57.4,29.88,SW,225,0.0,0.0,78,0.00,,---,0.00,VWS V14.00,2013-09-21 09:27:00,
2013-09-21 05:28:00,64.2,57.2,29.88,SW,225,0.0,0.0,78,0.00,,---,0.00,VWS V14.00,2013-09-21 09:28:00,
2013-09-21 05:29:00,64.4,57.4,29.88,SW,225,0.0,0.0,78,0.00,,---,0.00,VWS V14.00,2013-09-21 09:29:00,
2013-09-21 05:30:00,64.4,57.4,29.88,SW,225,0.0,0.0,78,0.00,,---,0.00,VWS V14.00,2013-09-21 09:30:00,
2013-09-21 05:31:00,64.4,57.4,29.88,SW,225,0.0,0.0,78,0.00,,---,0.00,VWS V14.00,2013-09-21 09:31:00,
2013-09-21 05:32:00,64.4,57.4,29.88,SW,225,0.0,0.0,78,0.00,,---,0.00,VWS V14.00,2013-09-21 09:32:00,
2013-09-21 05:33:00,64.2,57.2,29.88,SW,225,0.0,0.0,78,0.00,,---,0.00,VWS V14.00,2013-09-21 09:33:00,
2013-09-21 05:34:00,64.4,57.4,29.88,SW,225,0.0,0.0,78,0.00,,---,0.00,VWS V14.00,2013-09-21 09:34:00,
2013-09-21 05:35:00,64.4,57.4,29.88,SW,225,0.0,0.0,78,0.00,,---,0.00,VWS V14.00,2013-09-21 09:35:00,
2013-09-21 05:36:00,64.4,57.4,29.88,SW,225,0.0,0.0,78,0.00,,---,0.00,VWS V14.00,2013-09-21 09:36:00,
2013-09-21 05:37:00,64.4,57.0,29.88,SW,225,0.0,0.0,77,0.00,,---,0.00,VWS V14.00,2013-09-21 09:37:00,
2013-09-21 05:38:00,64.2,57.2,29.88,SW,225,0.0,0.0,78,0.00,,---,0.00,VWS V14.00,2013-09-21 09:38:00,
2013-09-21 05:39:00,64.2,57.2,29.88,SW,225,0.0,0.0,78,0.00,,---,0.00,VWS V14.00,2013-09-21 09:39:00,
2013-09-21 05:40:00,64.2,57.2,29.88,SW,225,0.0,0.0,78,0.00,,---,0.00,VWS V14.00,2013-09-21 09:40:00,
2013-09-21 05:41:00,64.2,57.2,29.88,SW,225,0.0,0.0,78,0.00,,---,0.00,VWS V14.00,2013-09-21 09:41:00,
2013-09-21 05:42:00,64.2,57.2,29.88,SW,225,0.0,0.0,78,0.00,,---,0.00,VWS V14.00,2013-09-21 09:42:00,
2013-09-21 05:43:00,64.2,57.2,29.88,SW,225,0.0,0.0,78,0.00,,---,0.00,VWS V14.00,2013-09-21 09:43:00,
2013-09-21 05:44:00,64.2,57.2,29.88,SW,225,0.0,0.0,78,0.00,,---,0.00,VWS V14.00,2013-09-21 09:44:00,
2013-09-21 05:45:00,64.2,57.2,29.88,SW,225,0.0,0.0,78,0.00,,---,0.00,VWS V14.00,2013-09-21 09:45:00,
2013-09-21 05:46:00,64.2,57.2,29.88,SW,225,0.0,0.0,78,0.00,,---,0.00,VWS V14.00,2013-09-21 09:46:00,
2013-09-21 05:47:00,64.2,57.2,29.88,SW,225,0.0,0.0,78,0.00,,---,0.00,VWS V14.00,2013-09-21 09:47:00,
2013-09-21 05:48:00,64.2,57.6,29.88,SW,225,0.0,0.0,79,0.00,,---,0.00,VWS V14.00,2013-09-21 09:48:00,
2013-09-21 05:49:00,64.2,57.2,29.88,SW,225,0.0,0.0,78,0.00,,---,0.00,VWS V14.00,2013-09-21 09:49:00,
2013-09-21 05:50:00,64.2,57.2,29.88,SW,225,0.0,0.0,78,0.00,,---,0.00,VWS V14.00,2013-09-21 09:50:00,
2013-09-21 05:51:00,64.2,57.2,29.88,SW,225,0.0,0.0,78,0.00,,---,0.00,VWS V14.00,2013-09-21 09:51:00,
2013-09-21 05:52:00,64.2,57.2,29.88,SW,225,0.0,0.0,78,0.00,,---,0.00,VWS V14.00,2013-09-21 09:52:00,
2013-09-21 05:53:00,64.2,57.6,29.88,SW,225,0.0,0.0,79,0.00,,---,0.00,VWS V14.00,2013-09-21 09:53:00,
2013-09-21 05:54:00,64.2,57.2,29.88,SW,225,0.0,0.0,78,0.00,,---,0.00,VWS V14.00,2013-09-21 09:54:00,
2013-09-21 05:55:00,64.2,57.2,29.88,SW,225,0.0,0.0,78,0.00,,---,0.00,VWS V14.00,2013-09-21 09:55:00,
2013-09-21 05:56:00,64.2,57.2,29.88,SW,225,0.0,0.0,78,0.00,,---,0.00,VWS V14.00,2013-09-21 09:56:00,
2013-09-21 05:57:00,64.2,57.2,29.88,SW,225,0.0,0.0,78,0.00,,---,0.00,VWS V14.00,2013-09-21 09:57:00,
2013-09-21 05:58:00,64.2,57.6,29.88,SW,225,0.0,0.0,79,0.00,,---,0.00,VWS V14.00,2013-09-21 09:58:00,
2013-09-21 05:59:00,64.2,57.2,29.88,SW,225,0.0,0.0,78,0.00,,---,0.00,VWS V14.00,2013-09-21 09:59:00,
2013-09-21 06:00:00,64.2,57.2,29.88,SW,225,0.0,0.0,78,0.00,,---,0.00,VWS V14.00,2013-09-21 10:00:00,
2013-09-21 06:01:00,64.2,57.2,29.88,SW,225,0.0,0.0,78,0.00,,---,0.00,VWS V14.00,2013-09-21 10:01:00,
2013-09-21 06:02:00,64.2,57.2,29.88,SW,225,0.0,0.0,78,0.00,,---,0.00,VWS V14.00,2013-09-21 10:02:00,
2013-09-21 06:03:00,64.2,57.2,29.88,SW,225,0.0,0.0,78,0.00,,---,0.00,VWS V14.00,2013-09-21 10:03:00,
2013-09-21 06:04:00,64.2,57.2,29.88,SW,225,0.0,0.0,78,0.00,,---,0.00,VWS V14.00,2013-09-21 10:04:00,
2013-09-21 06:05:00,64.2,57.2,29.88,SW,225,0.0,0.0,78,0.00,,---,0.00,VWS V14.00,2013-09-21 10:05:00,
2013-09-21 06:06:00,64.2,57.2,29.88,SW,225,0.0,0.0,78,0.00,,---,0.00,VWS V14.00,2013-09-21 10:06:00,
2013-09-21 06:07:00,64.2,57.6,29.88,SW,225,0.0,0.0,79,0.00,,---,0.00,VWS V14.00,2013-09-21 10:07:00,
2013-09-21 06:08:00,64.0,57.0,29.88,SW,225,0.0,0.0,78,0.00,,---,0.00,VWS V14.00,2013-09-21 10:08:00,
2013-09-21 06:09:00,64.2,57.6,29.88,SW,225,0.0,0.0,79,0.00,,---,0.00,VWS V14.00,2013-09-21 10:09:00,
2013-09-21 06:10:00,64.2,57.6,29.88,SW,225,0.0,0.0,79,0.00,,---,0.00,VWS V14.00,2013-09-21 10:10:00,
2013-09-21 06:11:00,64.2,57.6,29.88,SW,225,0.0,0.0,79,0.00,,---,0.00,VWS V14.00,2013-09-21 10:11:00,
2013-09-21 06:12:00,64.2,57.6,29.88,SW,225,0.0,0.0,79,0.00,,---,0.00,VWS V14.00,2013-09-21 10:12:00,
2013-09-21 06:13:00,64.0,57.0,29.88,SW,225,0.0,0.0,78,0.00,,---,0.00,VWS V14.00,2013-09-21 10:13:00,
2013-09-21 06:14:00,64.2,57.6,29.88,SW,225,0.0,0.0,79,0.00,,---,0.00,VWS V14.00,2013-09-21 10:14:00,
2013-09-21 06:15:00,64.2,57.6,29.88,SW,225,0.0,0.0,79,0.00,,---,0.00,VWS V14.00,2013-09-21 10:15:00,
2013-09-21 06:16:00,64.2,57.6,29.88,SW,225,0.0,0.0,79,0.00,,---,0.00,VWS V14.00,2013-09-21 10:16:00,
2013-09-21 06:17:00,64.2,57.6,29.88,SW,225,0.0,0.0,79,0.00,,---,0.00,VWS V14.00,2013-09-21 10:17:00,
2013-09-21 06:18:00,64.0,57.0,29.88,SW,225,0.0,0.0,78,0.00,,---,0.00,VWS V14.00,2013-09-21 10:18:00,
2013-09-21 06:19:00,64.2,57.6,29.88,SW,225,0.0,0.0,79,0.00,,---,0.00,VWS V14.00,2013-09-21 10:19:00,
2013-09-21 06:20:00,64.2,57.6,29.88,SW,225,0.0,0.0,79,0.00,,---,0.00,VWS V14.00,2013-09-21 10:20:00,
2013-09-21 06:21:00,64.2,57.2,29.88,SW,225,0.0,0.0,78,0.00,,---,0.00,VWS V14.00,2013-09-21 10:21:00,
2013-09-21 06:22:00,64.2,57.2,29.88,SW,225,0.0,0.0,78,0.00,,---,0.00,VWS V14.00,2013-09-21 10:22:00,
2013-09-21 06:23:00,64.0,57.4,29.88,SW,225,0.0,0.0,79,0.00,,---,0.00,VWS V14.00,2013-09-21 10:23:00,
2013-09-21 06:25:00,64.2,57.2,29.88,SW,225,0.0,0.0,78,0.00,,---,0.00,VWS V14.00,2013-09-21 10:25:00,
2013-09-21 06:26:00,64.2,57.2,29.88,SW,225,0.0,0.0,78,0.00,,---,0.00,VWS V14.00,2013-09-21 10:26:00,
2013-09-21 06:27:00,64.2,57.2,29.88,SW,225,0.0,0.0,78,0.00,,---,0.00,VWS V14.00,2013-09-21 10:27:00,
2013-09-21 06:28:00,64.0,57.4,29.88,SW,225,0.0,0.0,79,0.00,,---,0.00,VWS V14.00,2013-09-21 10:28:00,
2013-09-21 06:29:00,64.0,57.0,29.88,SW,225,0.0,0.0,78,0.00,,---,0.00,VWS V14.00,2013-09-21 10:29:00,
2013-09-21 06:30:00,64.0,57.0,29.88,SW,225,0.0,0.0,78,0.00,,---,0.00,VWS V14.00,2013-09-21 10:30:00,
2013-09-21 06:31:00,64.0,57.0,29.88,SW,225,0.0,0.0,78,0.00,,---,0.00,VWS V14.00,2013-09-21 10:31:00,
2013-09-21 06:32:00,64.0,57.0,29.88,SW,225,0.0,0.0,78,0.00,,---,0.00,VWS V14.00,2013-09-21 10:32:00,
2013-09-21 06:33:00,64.0,57.4,29.88,SW,225,0.0,0.0,79,0.00,,---,0.00,VWS V14.00,2013-09-21 10:33:00,
2013-09-21 06:34:00,64.0,57.0,29.88,SW,225,0.0,0.0,78,0.00,,---,0.00,VWS V14.00,2013-09-21 10:34:00,
2013-09-21 06:35:00,64.0,57.0,29.88,SW,225,0.0,0.0,78,0.00,,---,0.00,VWS V14.00,2013-09-21 10:35:00,
2013-09-21 06:36:00,64.0,57.0,29.88,SW,225,0.0,0.0,78,0.00,,---,0.00,VWS V14.00,2013-09-21 10:36:00,
2013-09-21 06:37:00,64.0,57.0,29.88,SW,225,0.0,0.0,78,0.00,,---,0.00,VWS V14.00,2013-09-21 10:37:00,
2013-09-21 06:38:00,64.0,57.0,29.88,SW,225,0.0,0.0,78,0.00,,---,0.00,VWS V14.00,2013-09-21 10:38:00,
2013-09-21 06:39:00,64.0,57.4,29.88,SW,225,0.0,0.0,79,0.00,,---,0.00,VWS V14.00,2013-09-21 10:39:00,
2013-09-21 06:40:00,64.0,57.0,29.88,SW,225,0.0,0.0,78,0.00,,---,0.00,VWS V14.00,2013-09-21 10:40:00,
2013-09-21 06:41:00,64.0,57.0,29.88,SW,225,0.0,0.0,78,0.00,,---,0.00,VWS V14.00,2013-09-21 10:41:00,
2013-09-21 06:42:00,64.0,57.0,29.88,SW,225,0.0,0.0,78,0.00,,---,0.00,VWS V14.00,2013-09-21 10:42:00,
2013-09-21 06:43:00,64.0,57.4,29.88,SW,225,0.0,0.0,79,0.00,,---,0.00,VWS V14.00,2013-09-21 10:43:00,
2013-09-21 06:44:00,64.0,57.4,29.85,SW,225,0.0,0.0,79,0.00,,---,0.00,VWS V14.00,2013-09-21 10:44:00,
2013-09-21 06:45:00,64.0,57.4,29.88,SW,225,0.0,0.0,79,0.00,,---,0.00,VWS V14.00,2013-09-21 10:45:00,
2013-09-21 06:46:00,64.0,57.4,29.88,SW,225,0.0,0.0,79,0.00,,---,0.00,VWS V14.00,2013-09-21 10:46:00,
2013-09-21 06:47:00,64.0,57.4,29.88,SW,225,0.0,0.0,79,0.00,,---,0.00,VWS V14.00,2013-09-21 10:47:00,
2013-09-21 06:48:00,64.0,57.4,29.88,SW,225,0.0,0.0,79,0.00,,---,0.00,VWS V14.00,2013-09-21 10:48:00,
2013-09-21 06:49:00,64.0,57.4,29.85,SW,225,0.0,0.0,79,0.00,,---,0.00,VWS V14.00,2013-09-21 10:49:00,
2013-09-21 06:50:00,64.0,57.4,29.88,SW,225,0.0,0.0,79,0.00,,---,0.00,VWS V14.00,2013-09-21 10:50:00,
2013-09-21 06:51:00,64.0,57.4,29.88,SW,225,0.0,0.0,79,0.00,,---,0.00,VWS V14.00,2013-09-21 10:51:00,
2013-09-21 06:52:00,64.0,57.4,29.88,SW,225,0.0,0.0,79,0.00,,---,0.00,VWS V14.00,2013-09-21 10:52:00,
2013-09-21 06:53:00,64.0,57.4,29.88,SW,225,0.0,0.0,79,0.00,,---,0.00,VWS V14.00,2013-09-21 10:53:00,
2013-09-21 06:54:00,64.0,57.4,29.85,SW,225,0.0,0.0,79,0.00,,---,0.00,VWS V14.00,2013-09-21 10:54:00,
2013-09-21 06:55:00,64.0,57.4,29.88,SW,225,0.0,0.0,79,0.00,,---,0.00,VWS V14.00,2013-09-21 10:55:00,
2013-09-21 06:56:00,64.0,57.4,29.88,SW,225,0.0,0.0,79,0.00,,---,0.00,VWS V14.00,2013-09-21 10:56:00,
2013-09-21 06:57:00,64.0,57.4,29.88,SW,225,0.0,0.0,79,0.00,,---,0.00,VWS V14.00,2013-09-21 10:57:00,
2013-09-21 06:58:00,64.0,57.4,29.88,SW,225,0.0,0.0,79,0.00,,---,0.00,VWS V14.00,2013-09-21 10:58:00,
2013-09-21 06:59:00,64.0,57.4,29.85,SW,225,0.0,0.0,79,0.00,,---,0.00,VWS V14.00,2013-09-21 10:59:00,
2013-09-21 07:00:00,64.0,57.4,29.88,SW,225,0.0,0.0,79,0.00,,---,0.00,VWS V14.00,2013-09-21 11:00:00,
2013-09-21 07:01:00,64.0,57.4,29.88,SW,225,0.0,0.0,79,0.00,,---,0.00,VWS V14.00,2013-09-21 11:01:00,
2013-09-21 07:02:00,64.0,57.4,29.85,SW,225,0.0,0.0,79,0.00,,---,0.00,VWS V14.00,2013-09-21 11:02:00,
2013-09-21 07:03:00,64.0,57.4,29.85,SW,225,0.0,0.0,79,0.00,,---,0.00,VWS V14.00,2013-09-21 11:03:00,
2013-09-21 07:04:00,64.0,57.4,29.85,SW,225,0.0,0.0,79,0.00,,---,0.00,VWS V14.00,2013-09-21 11:04:00,
2013-09-21 07:05:00,64.0,57.4,29.85,SW,225,0.0,0.0,79,0.00,,---,0.00,VWS V14.00,2013-09-21 11:05:00,
2013-09-21 07:06:00,64.0,57.4,29.85,SW,225,0.0,0.0,79,0.00,,---,0.00,VWS V14.00,2013-09-21 11:06:00,
2013-09-21 07:07:00,64.0,57.4,29.85,SW,225,0.0,0.0,79,0.00,,---,0.00,VWS V14.00,2013-09-21 11:07:00,
2013-09-21 07:08:00,64.0,57.4,29.85,SW,225,0.0,0.0,79,0.00,,---,0.00,VWS V14.00,2013-09-21 11:08:00,
2013-09-21 07:09:00,64.0,57.4,29.85,SW,225,2.0,2.0,79,0.00,,---,0.00,VWS V14.00,2013-09-21 11:09:00,
2013-09-21 07:10:00,64.0,57.4,29.85,SW,225,0.0,0.0,79,0.00,,---,0.00,VWS V14.00,2013-09-21 11:10:00,
2013-09-21 07:11:00,64.0,57.4,29.85,SW,225,0.0,0.0,79,0.00,,---,0.00,VWS V14.00,2013-09-21 11:11:00,
2013-09-21 07:12:00,64.0,57.4,29.85,SW,225,0.0,0.0,79,0.00,,---,0.00,VWS V14.00,2013-09-21 11:12:00,
2013-09-21 07:13:00,64.0,57.4,29.85,SW,225,0.0,0.0,79,0.00,,---,0.00,VWS V14.00,2013-09-21 11:13:00,
2013-09-21 07:14:00,64.0,57.4,29.85,SW,225,0.0,0.0,79,0.00,,---,0.00,VWS V14.00,2013-09-21 11:14:00,
2013-09-21 07:15:00,64.0,57.4,29.85,SW,225,0.0,0.0,79,0.00,,---,0.00,VWS V14.00,2013-09-21 11:15:00,
2013-09-21 07:16:00,64.0,57.4,29.85,SW,225,0.0,0.0,79,0.00,,---,0.00,VWS V14.00,2013-09-21 11:16:00,
2013-09-21 07:17:00,64.0,57.4,29.85,SW,225,0.0,0.0,79,0.00,,---,0.00,VWS V14.00,2013-09-21 11:17:00,
2013-09-21 07:18:00,64.0,57.4,29.85,SW,225,0.0,0.0,79,0.00,,---,0.00,VWS V14.00,2013-09-21 11:18:00,
2013-09-21 07:19:00,64.0,57.4,29.85,SW,225,1.1,1.1,79,0.00,,---,0.00,VWS V14.00,2013-09-21 11:19:00,
2013-09-21 07:20:00,64.0,57.4,29.85,SW,225,0.0,0.0,79,0.00,,---,0.00,VWS V14.00,2013-09-21 11:20:00,
2013-09-21 07:21:00,64.0,57.4,29.85,SW,225,0.0,0.0,79,0.00,,---,0.00,VWS V14.00,2013-09-21 11:21:00,
2013-09-21 07:22:00,64.0,57.4,29.85,SW,225,0.0,0.0,79,0.00,,---,0.00,VWS V14.00,2013-09-21 11:22:00,
2013-09-21 07:23:00,64.0,57.4,29.85,SW,225,0.0,0.0,79,0.00,,---,0.00,VWS V14.00,2013-09-21 11:23:00,
2013-09-21 07:24:00,64.0,57.4,29.85,SW,225,0.0,0.0,79,0.00,,---,0.00,VWS V14.00,2013-09-21 11:24:00,
2013-09-21 07:25:00,64.0,57.4,29.85,SW,225,0.0,0.0,79,0.00,,---,0.00,VWS V14.00,2013-09-21 11:25:00,
2013-09-21 07:26:00,64.0,57.4,29.85,SW,225,0.0,0.0,79,0.00,,---,0.00,VWS V14.00,2013-09-21 11:26:00,
2013-09-21 07:27:00,64.0,57.4,29.85,SW,225,0.0,0.0,79,0.00,,---,0.00,VWS V14.00,2013-09-21 11:27:00,
2013-09-21 07:28:00,64.0,57.4,29.85,SW,225,0.0,0.0,79,0.00,,---,0.00,VWS V14.00,2013-09-21 11:28:00,
2013-09-21 07:29:00,64.0,57.8,29.85,SW,225,0.0,0.0,80,0.00,,---,0.00,VWS V14.00,2013-09-21 11:29:00,
2013-09-21 07:30:00,64.0,57.4,29.85,SW,225,0.0,0.0,79,0.00,,---,0.00,VWS V14.00,2013-09-21 11:30:00,
2013-09-21 07:31:00,64.0,57.4,29.85,SW,225,1.6,2.0,79,0.00,,---,0.00,VWS V14.00,2013-09-21 11:31:00,
2013-09-21 07:32:00,64.0,57.4,29.85,SW,225,0.0,1.6,79,0.00,,---,0.00,VWS V14.00,2013-09-21 11:32:00,
2013-09-21 07:33:00,64.0,57.4,29.85,SW,225,0.0,0.0,79,0.00,,---,0.00,VWS V14.00,2013-09-21 11:33:00,
2013-09-21 07:34:00,64.0,57.8,29.85,SW,225,0.0,0.0,80,0.00,,---,0.00,VWS V14.00,2013-09-21 11:34:00,
2013-09-21 07:35:00,64.0,57.4,29.85,SW,225,0.0,0.0,79,0.00,,---,0.00,VWS V14.00,2013-09-21 11:35:00,
2013-09-21 07:36:00,64.0,57.4,29.85,SW,225,0.0,0.0,79,0.00,,---,0.00,VWS V14.00,2013-09-21 11:36:00,
2013-09-21 07:37:00,64.0,57.4,29.85,SW,225,0.0,0.0,79,0.00,,---,0.00,VWS V14.00,2013-09-21 11:37:00,
2013-09-21 07:38:00,64.0,57.4,29.85,SW,225,0.0,0.0,79,0.00,,---,0.00,VWS V14.00,2013-09-21 11:38:00,
2013-09-21 07:39:00,64.0,57.8,29.85,SW,225,0.0,0.0,80,0.00,,---,0.00,VWS V14.00,2013-09-21 11:39:00,
2013-09-21 07:40:00,64.0,57.4,29.85,SW,225,0.0,0.0,79,0.00,,---,0.00,VWS V14.00,2013-09-21 11:40:00,
2013-09-21 07:41:00,64.0,57.4,29.85,SW,225,1.3,1.3,79,0.00,,---,0.00,VWS V14.00,2013-09-21 11:41:00,
2013-09-21 07:42:00,64.0,57.4,29.85,SW,225,0.0,1.3,79,0.00,,---,0.00,VWS V14.00,2013-09-21 11:42:00,
2013-09-21 07:43:00,64.0,57.4,29.85,SW,225,0.0,0.0,79,0.00,,---,0.00,VWS V14.00,2013-09-21 11:43:00,
2013-09-21 07:44:00,64.0,57.8,29.85,SW,225,0.0,0.0,80,0.00,,---,0.00,VWS V14.00,2013-09-21 11:44:00,
2013-09-21 07:45:00,64.0,57.4,29.85,SW,225,0.0,0.0,79,0.00,,---,0.00,VWS V14.00,2013-09-21 11:45:00,
2013-09-21 07:46:00,64.0,57.4,29.85,SW,225,0.0,0.0,79,0.00,,---,0.00,VWS V14.00,2013-09-21 11:46:00,
2013-09-21 07:47:00,64.0,57.8,29.85,SW,225,0.0,0.0,80,0.00,,---,0.00,VWS V14.00,2013-09-21 11:47:00,
2013-09-21 07:48:00,64.0,57.8,29.85,SW,225,0.0,0.0,80,0.00,,---,0.00,VWS V14.00,2013-09-21 11:48:00,
2013-09-21 07:49:00,64.2,57.9,29.85,SW,225,0.0,0.0,80,0.00,,---,0.00,VWS V14.00,2013-09-21 11:49:00,
2013-09-21 07:50:00,64.0,57.8,29.85,SW,225,0.0,0.0,80,0.00,,---,0.00,VWS V14.00,2013-09-21 11:50:00,
2013-09-21 07:51:00,64.0,57.8,29.85,SW,225,0.0,0.0,80,0.00,,---,0.00,VWS V14.00,2013-09-21 11:51:00,
2013-09-21 07:52:00,64.0,57.8,29.85,SW,225,0.0,0.0,80,0.00,,---,0.00,VWS V14.00,2013-09-21 11:52:00,
2013-09-21 07:53:00,64.0,57.8,29.85,SW,225,0.0,0.0,80,0.00,,---,0.00,VWS V14.00,2013-09-21 11:53:00,
2013-09-21 07:54:00,64.2,57.9,29.85,SW,225,0.0,0.0,80,0.00,,---,0.00,VWS V14.00,2013-09-21 11:54:00,
2013-09-21 07:55:00,64.0,57.8,29.85,SW,225,0.0,0.0,80,0.00,,---,0.00,VWS V14.00,2013-09-21 11:55:00,
2013-09-21 07:56:00,64.0,57.8,29.85,SW,225,0.0,0.0,80,0.00,,---,0.00,VWS V14.00,2013-09-21 11:56:00,
2013-09-21 07:57:00,64.0,57.8,29.85,SW,225,0.0,0.0,80,0.00,,---,0.00,VWS V14.00,2013-09-21 11:57:00,
2013-09-21 07:58:00,64.0,57.8,29.85,SW,225,0.0,0.0,80,0.00,,---,0.00,VWS V14.00,2013-09-21 11:58:00,
2013-09-21 07:59:00,64.2,57.9,29.85,SW,225,0.0,0.0,80,0.00,,---,0.00,VWS V14.00,2013-09-21 11:59:00,
2013-09-21 08:00:00,64.0,57.8,29.85,SW,225,0.0,0.0,80,0.00,,---,0.00,VWS V14.00,2013-09-21 12:00:00,
2013-09-21 08:01:00,64.0,57.8,29.85,SW,225,0.0,0.0,80,0.00,,---,0.00,VWS V14.00,2013-09-21 12:01:00,
2013-09-21 08:02:00,64.0,57.8,29.85,SW,225,0.0,0.0,80,0.00,,---,0.00,VWS V14.00,2013-09-21 12:02:00,
2013-09-21 08:03:00,64.0,57.8,29.85,SW,225,0.0,0.0,80,0.00,,---,0.00,VWS V14.00,2013-09-21 12:03:00,
2013-09-21 08:04:00,64.2,57.9,29.85,SW,225,0.0,0.0,80,0.00,,---,0.00,VWS V14.00,2013-09-21 12:04:00,
2013-09-21 08:05:00,64.0,57.8,29.85,SW,225,0.0,0.0,80,0.00,,---,0.00,VWS V14.00,2013-09-21 12:05:00,
2013-09-21 08:06:00,64.0,57.8,29.85,SW,225,0.0,0.0,80,0.00,,---,0.00,VWS V14.00,2013-09-21 12:06:00,
2013-09-21 08:07:00,64.0,57.8,29.85,SW,225,0.0,0.0,80,0.00,,---,0.00,VWS V14.00,2013-09-21 12:07:00,
2013-09-21 08:08:00,64.0,57.8,29.85,SW,225,0.0,0.0,80,0.00,,---,0.00,VWS V14.00,2013-09-21 12:08:00,
2013-09-21 08:09:00,64.4,58.1,29.85,SW,225,0.0,0.0,80,0.00,,---,0.00,VWS V14.00,2013-09-21 12:09:00,
2013-09-21 08:10:00,64.2,57.9,29.85,SW,225,0.0,0.0,80,0.00,,---,0.00,VWS V14.00,2013-09-21 12:10:00,
2013-09-21 08:11:00,64.2,57.9,29.85,SW,225,0.0,0.0,80,0.00,,---,0.00,VWS V14.00,2013-09-21 12:11:00,
2013-09-21 08:12:00,64.2,57.9,29.85,SW,225,0.0,0.0,80,0.00,,---,0.00,VWS V14.00,2013-09-21 12:12:00,
2013-09-21 08:13:00,64.2,57.9,29.85,SW,225,0.0,0.0,80,0.00,,---,0.00,VWS V14.00,2013-09-21 12:13:00,
2013-09-21 08:14:00,64.4,58.1,29.82,SW,225,0.0,0.0,80,0.00,,---,0.00,VWS V14.00,2013-09-21 12:14:00,
2013-09-21 08:15:00,64.2,57.9,29.85,SW,225,0.0,0.0,80,0.00,,---,0.00,VWS V14.00,2013-09-21 12:15:00,
2013-09-21 08:16:00,64.2,57.9,29.85,SW,225,0.0,0.0,80,0.00,,---,0.00,VWS V14.00,2013-09-21 12:16:00,
2013-09-21 08:17:00,64.2,57.9,29.85,SW,225,0.0,0.0,80,0.00,,---,0.00,VWS V14.00,2013-09-21 12:17:00,
2013-09-21 08:18:00,64.2,57.9,29.85,SW,225,0.0,0.0,80,0.00,,---,0.00,VWS V14.00,2013-09-21 12:18:00,
2013-09-21 08:19:00,64.4,58.1,29.82,SW,225,0.9,1.1,80,0.00,,---,0.00,VWS V14.00,2013-09-21 12:19:00,
2013-09-21 08:20:00,64.2,57.9,29.85,SW,225,0.0,0.0,80,0.00,,---,0.00,VWS V14.00,2013-09-21 12:20:00,
2013-09-21 08:21:00,64.2,57.9,29.85,SW,225,0.0,0.0,80,0.00,,---,0.00,VWS V14.00,2013-09-21 12:21:00,
2013-09-21 08:22:00,64.2,57.9,29.85,SW,225,0.0,0.0,80,0.00,,---,0.00,VWS V14.00,2013-09-21 12:22:00,
2013-09-21 08:23:00,64.2,57.9,29.85,SW,225,0.0,0.0,80,0.00,,---,0.00,VWS V14.00,2013-09-21 12:23:00,
2013-09-21 08:24:00,64.6,58.3,29.82,SW,225,0.0,0.0,80,0.00,,---,0.00,VWS V14.00,2013-09-21 12:24:00,
2013-09-21 08:25:00,64.2,57.9,29.85,SW,225,0.0,0.0,80,0.00,,---,0.00,VWS V14.00,2013-09-21 12:25:00,
2013-09-21 08:26:00,64.2,57.9,29.85,SW,225,0.0,0.0,80,0.00,,---,0.00,VWS V14.00,2013-09-21 12:26:00,
2013-09-21 08:27:00,64.2,57.9,29.85,SW,225,0.0,0.0,80,0.00,,---,0.00,VWS V14.00,2013-09-21 12:27:00,
2013-09-21 08:28:00,64.2,57.9,29.85,SW,225,0.0,0.0,80,0.00,,---,0.00,VWS V14.00,2013-09-21 12:28:00,
2013-09-21 08:29:00,64.6,58.3,29.82,SW,225,0.0,0.0,80,0.00,,---,0.00,VWS V14.00,2013-09-21 12:29:00,
2013-09-21 08:30:00,64.2,57.9,29.85,SW,225,0.0,0.0,80,0.00,,---,0.00,VWS V14.00,2013-09-21 12:30:00,
2013-09-21 08:31:00,64.4,58.1,29.85,SW,225,0.0,0.0,80,0.00,,---,0.00,VWS V14.00,2013-09-21 12:31:00,
2013-09-21 08:32:00,64.2,57.9,29.82,SW,225,0.0,0.0,80,0.00,,---,0.00,VWS V14.00,2013-09-21 12:32:00,
2013-09-21 08:33:00,64.4,58.1,29.82,SW,225,0.0,0.0,80,0.00,,---,0.00,VWS V14.00,2013-09-21 12:33:00,
2013-09-21 08:34:00,64.6,58.3,29.82,SW,225,0.0,0.0,80,0.00,,---,0.00,VWS V14.00,2013-09-21 12:34:00,
2013-09-21 08:35:00,64.4,58.1,29.82,SW,225,0.0,0.0,80,0.00,,---,0.00,VWS V14.00,2013-09-21 12:35:00,
2013-09-21 08:36:00,64.4,58.1,29.82,SW,225,0.0,0.0,80,0.00,,---,0.00,VWS V14.00,2013-09-21 12:36:00,
2013-09-21 08:37:00,64.4,58.1,29.82,WSW,248,1.1,1.1,80,0.00,,---,0.00,VWS V14.00,2013-09-21 12:37:00,
2013-09-21 08:38:00,64.4,58.1,29.82,WSW,248,1.3,2.2,80,0.00,,---,0.00,VWS V14.00,2013-09-21 12:38:00,
2013-09-21 08:39:00,64.8,58.5,29.82,SW,225,0.0,0.0,80,0.00,,---,0.00,VWS V14.00,2013-09-21 12:39:00,
2013-09-21 08:40:00,64.4,58.1,29.82,WSW,248,0.0,0.0,80,0.00,,---,0.00,VWS V14.00,2013-09-21 12:40:00,
2013-09-21 08:41:00,64.4,58.1,29.82,SW,225,0.9,1.1,80,0.00,,---,0.00,VWS V14.00,2013-09-21 12:41:00,
2013-09-21 08:42:00,64.4,58.1,29.82,SW,225,0.0,0.9,80,0.00,,---,0.00,VWS V14.00,2013-09-21 12:42:00,
2013-09-21 08:43:00,64.4,58.1,29.82,SW,225,0.0,0.0,80,0.00,,---,0.00,VWS V14.00,2013-09-21 12:43:00,
2013-09-21 08:44:00,64.8,58.5,29.82,SW,225,0.0,0.0,80,0.00,,---,0.00,VWS V14.00,2013-09-21 12:44:00,
2013-09-21 08:45:00,64.4,58.1,29.82,SW,225,0.0,0.0,80,0.00,,---,0.00,VWS V14.00,2013-09-21 12:45:00,
2013-09-21 08:46:00,64.6,58.3,29.82,SW,225,0.0,0.0,80,0.00,,---,0.00,VWS V14.00,2013-09-21 12:46:00,
2013-09-21 08:47:00,64.6,58.3,29.82,SW,225,0.0,0.0,80,0.00,,---,0.00,VWS V14.00,2013-09-21 12:47:00,
2013-09-21 08:48:00,64.6,58.3,29.82,SW,225,0.0,0.0,80,0.00,,---,0.00,VWS V14.00,2013-09-21 12:48:00,
2013-09-21 08:49:00,64.6,58.3,29.82,SW,225,0.0,0.0,80,0.00,,---,0.00,VWS V14.00,2013-09-21 12:49:00,
2013-09-21 08:50:00,64.8,58.5,29.82,SW,225,0.0,0.0,80,0.00,,---,0.00,VWS V14.00,2013-09-21 12:50:00,
2013-09-21 08:51:00,64.6,58.3,29.82,SW,225,0.0,0.0,80,0.00,,---,0.00,VWS V14.00,2013-09-21 12:51:00,
2013-09-21 08:52:00,64.6,58.3,29.82,SW,225,0.0,0.0,80,0.00,,---,0.00,VWS V14.00,2013-09-21 12:52:00,
2013-09-21 08:53:00,64.6,58.3,29.82,SW,225,0.0,0.0,80,0.00,,---,0.00,VWS V14.00,2013-09-21 12:53:00,
2013-09-21 08:54:00,64.6,58.3,29.82,SW,225,0.0,0.0,80,0.00,,---,0.00,VWS V14.00,2013-09-21 12:54:00,
2013-09-21 08:55:00,64.9,58.6,29.82,SW,225,0.0,0.0,80,0.00,,---,0.00,VWS V14.00,2013-09-21 12:55:00,
2013-09-21 08:56:00,64.6,58.3,29.82,SW,225,0.0,0.0,80,0.00,,---,0.00,VWS V14.00,2013-09-21 12:56:00,
2013-09-21 08:57:00,64.6,58.3,29.82,SW,225,0.0,0.0,80,0.00,,---,0.00,VWS V14.00,2013-09-21 12:57:00,
2013-09-21 08:58:00,64.6,58.3,29.82,SW,225,0.0,0.0,80,0.00,,---,0.00,VWS V14.00,2013-09-21 12:58:00,
2013-09-21 08:59:00,64.6,58.3,29.82,SW,225,0.0,0.0,80,0.00,,---,0.00,VWS V14.00,2013-09-21 12:59:00,
2013-09-21 09:00:00,65.1,58.8,29.82,SW,225,0.0,0.0,80,0.00,,---,0.00,VWS V14.00,2013-09-21 13:00:00,
2013-09-21 09:01:00,64.8,58.5,29.82,SW,225,0.0,0.0,80,0.00,,---,0.00,VWS V14.00,2013-09-21 13:01:00,
2013-09-21 09:02:00,64.8,58.5,29.82,SW,225,0.0,0.0,80,0.00,,---,0.00,VWS V14.00,2013-09-21 13:02:00,
2013-09-21 09:03:00,64.8,58.5,29.82,SW,225,0.0,0.0,80,0.00,,---,0.00,VWS V14.00,2013-09-21 13:03:00,
2013-09-21 09:04:00,64.8,58.5,29.82,SW,225,0.0,0.0,80,0.00,,---,0.00,VWS V14.00,2013-09-21 13:04:00,
2013-09-21 09:05:00,65.1,58.8,29.82,SW,225,0.0,0.0,80,0.00,,---,0.00,VWS V14.00,2013-09-21 13:05:00,
2013-09-21 09:06:00,64.8,58.5,29.82,SW,225,0.0,0.0,80,0.00,,---,0.00,VWS V14.00,2013-09-21 13:06:00,
2013-09-21 09:07:00,64.8,58.5,29.82,SW,225,0.0,0.0,80,0.00,,---,0.00,VWS V14.00,2013-09-21 13:07:00,
2013-09-21 09:08:00,64.8,58.5,29.82,SW,225,0.0,0.0,80,0.00,,---,0.00,VWS V14.00,2013-09-21 13:08:00,
2013-09-21 09:09:00,64.8,58.5,29.82,SW,225,0.0,0.0,80,0.00,,---,0.00,VWS V14.00,2013-09-21 13:09:00,
2013-09-21 09:10:00,65.1,58.8,29.82,SW,225,0.0,0.0,80,0.00,,---,0.00,VWS V14.00,2013-09-21 13:10:00,
2013-09-21 09:11:00,64.8,58.5,29.82,SW,225,0.0,0.0,80,0.00,,---,0.00,VWS V14.00,2013-09-21 13:11:00,
2013-09-21 09:12:00,64.8,58.5,29.82,SW,225,0.0,0.0,80,0.00,,---,0.00,VWS V14.00,2013-09-21 13:12:00,
2013-09-21 09:14:00,64.9,58.6,29.82,SW,225,0.0,0.0,80,0.00,,---,0.00,VWS V14.00,2013-09-21 13:14:00,
2013-09-21 09:15:00,65.3,59.0,29.82,SW,225,0.0,0.0,80,0.00,,---,0.00,VWS V14.00,2013-09-21 13:15:00,
2013-09-21 09:16:00,64.9,58.6,29.82,SW,225,0.0,0.0,80,0.00,,---,0.00,VWS V14.00,2013-09-21 13:16:00,
2013-09-21 09:17:00,64.9,58.6,29.82,SW,225,0.0,0.0,80,0.00,,---,0.00,VWS V14.00,2013-09-21 13:17:00,
2013-09-21 09:18:00,64.9,58.6,29.82,SW,225,0.0,0.0,80,0.00,,---,0.00,VWS V14.00,2013-09-21 13:18:00,
2013-09-21 09:19:00,64.9,58.6,29.82,SW,225,0.0,0.0,80,0.00,,---,0.00,VWS V14.00,2013-09-21 13:19:00,
2013-09-21 09:20:00,65.3,58.6,29.82,SW,225,1.1,1.3,79,0.00,,---,0.00,VWS V14.00,2013-09-21 13:20:00,
2013-09-21 09:21:00,65.1,58.8,29.82,SW,225,0.0,0.0,80,0.00,,---,0.00,VWS V14.00,2013-09-21 13:21:00,
2013-09-21 09:22:00,65.1,58.8,29.82,SW,225,0.0,0.0,80,0.00,,---,0.00,VWS V14.00,2013-09-21 13:22:00,
2013-09-21 09:23:00,65.1,58.8,29.82,SW,225,0.0,0.0,80,0.00,,---,0.00,VWS V14.00,2013-09-21 13:23:00,
2013-09-21 09:24:00,65.1,58.8,29.82,SW,225,0.0,0.0,80,0.00,,---,0.00,VWS V14.00,2013-09-21 13:24:00,
2013-09-21 09:25:00,65.5,58.8,29.82,SW,225,0.0,0.0,79,0.00,,---,0.00,VWS V14.00,2013-09-21 13:25:00,
2013-09-21 09:26:00,65.1,58.8,29.82,SW,225,0.0,0.0,80,0.00,,---,0.00,VWS V14.00,2013-09-21 13:26:00,
2013-09-21 09:27:00,65.1,58.8,29.82,SW,225,0.0,0.0,80,0.00,,---,0.00,VWS V14.00,2013-09-21 13:27:00,
2013-09-21 09:28:00,65.1,58.8,29.82,SW,225,0.0,0.0,80,0.00,,---,0.00,VWS V14.00,2013-09-21 13:28:00,
2013-09-21 09:29:00,65.1,58.8,29.82,SW,225,0.0,0.0,80,0.00,,---,0.00,VWS V14.00,2013-09-21 13:29:00,
2013-09-21 09:30:00,65.5,58.8,29.82,SW,225,0.0,0.0,79,0.00,,---,0.00,VWS V14.00,2013-09-21 13:30:00,
2013-09-21 09:31:00,65.1,58.8,29.82,SW,225,0.0,0.0,80,0.00,,---,0.00,VWS V14.00,2013-09-21 13:31:00,
2013-09-21 09:32:00,65.1,58.8,29.82,SW,225,0.0,0.0,80,0.00,,---,0.00,VWS V14.00,2013-09-21 13:32:00,
2013-09-21 09:33:00,65.1,58.8,29.82,SW,225,0.0,0.0,80,0.00,,---,0.00,VWS V14.00,2013-09-21 13:33:00,
2013-09-21 09:34:00,65.3,59.0,29.82,SW,225,0.0,0.0,80,0.00,,---,0.00,VWS V14.00,2013-09-21 13:34:00,
2013-09-21 09:35:00,65.7,59.0,29.82,SW,225,0.0,0.0,79,0.00,,---,0.00,VWS V14.00,2013-09-21 13:35:00,
2013-09-21 09:36:00,65.3,59.0,29.82,SW,225,0.0,0.0,80,0.00,,---,0.00,VWS V14.00,2013-09-21 13:36:00,
2013-09-21 09:37:00,65.3,59.0,29.82,SW,225,0.0,0.0,80,0.00,,---,0.00,VWS V14.00,2013-09-21 13:37:00,
2013-09-21 09:38:00,65.3,59.0,29.82,SW,225,0.0,0.0,80,0.00,,---,0.00,VWS V14.00,2013-09-21 13:38:00,
2013-09-21 09:39:00,65.3,59.0,29.82,SW,225,0.0,0.0,80,0.00,,---,0.00,VWS V14.00,2013-09-21 13:39:00,
2013-09-21 09:40:00,65.7,59.0,29.82,SW,225,0.0,0.0,79,0.00,,---,0.00,VWS V14.00,2013-09-21 13:40:00,
2013-09-21 09:41:00,65.3,58.6,29.82,SW,225,0.0,0.0,79,0.00,,---,0.00,VWS V14.00,2013-09-21 13:41:00,
2013-09-21 09:42:00,65.3,58.6,29.82,SW,225,0.0,1.3,79,0.00,,---,0.00,VWS V14.00,2013-09-21 13:42:00,
2013-09-21 09:43:00,65.3,58.6,29.82,SW,225,0.0,0.0,79,0.00,,---,0.00,VWS V14.00,2013-09-21 13:43:00,
2013-09-21 09:44:00,65.5,58.8,29.82,SW,225,0.0,0.0,79,0.00,,---,0.00,VWS V14.00,2013-09-21 13:44:00,
2013-09-21 09:45:00,65.7,58.6,29.82,SW,225,0.0,0.0,78,0.00,,---,0.00,VWS V14.00,2013-09-21 13:45:00,
2013-09-21 09:46:00,65.5,58.8,29.82,SW,225,0.0,0.9,79,0.00,,---,0.00,VWS V14.00,2013-09-21 13:46:00,
2013-09-21 09:47:00,65.5,58.8,29.82,SW,225,0.0,0.0,79,0.00,,---,0.00,VWS V14.00,2013-09-21 13:47:00,
2013-09-21 09:48:00,65.5,58.8,29.82,SW,225,0.0,0.0,79,0.00,,---,0.00,VWS V14.00,2013-09-21 13:48:00,
2013-09-21 09:49:00,65.5,58.8,29.82,SW,225,0.0,0.0,79,0.00,,---,0.00,VWS V14.00,2013-09-21 13:49:00,
2013-09-21 09:50:00,65.8,58.8,29.82,SSW,202,1.6,2.0,78,0.00,,---,0.00,VWS V14.00,2013-09-21 13:50:00,
2013-09-21 09:51:00,65.5,58.8,29.82,SW,225,0.0,0.0,79,0.00,,---,0.00,VWS V14.00,2013-09-21 13:51:00,
2013-09-21 09:52:00,65.5,58.8,29.82,SW,225,0.0,0.0,79,0.00,,---,0.00,VWS V14.00,2013-09-21 13:52:00,
2013-09-21 09:53:00,65.5,58.8,29.82,SW,225,0.0,0.0,79,0.00,,---,0.00,VWS V14.00,2013-09-21 13:53:00,
2013-09-21 09:54:00,65.5,58.8,29.82,SW,225,1.1,1.1,79,0.00,,---,0.00,VWS V14.00,2013-09-21 13:54:00,
2013-09-21 09:55:00,65.8,58.8,29.82,SSW,202,0.0,0.9,78,0.00,,---,0.00,VWS V14.00,2013-09-21 13:55:00,
2013-09-21 09:56:00,65.5,58.8,29.82,SW,225,0.0,0.0,79,0.00,,---,0.00,VWS V14.00,2013-09-21 13:56:00,
2013-09-21 09:57:00,65.7,59.0,29.82,SW,225,0.0,0.0,79,0.00,,---,0.00,VWS V14.00,2013-09-21 13:57:00,
2013-09-21 09:58:00,65.7,59.0,29.82,SW,225,0.0,0.0,79,0.00,,---,0.00,VWS V14.00,2013-09-21 13:58:00,
2013-09-21 09:59:00,65.7,59.0,29.82,SW,225,1.1,1.1,79,0.00,,---,0.00,VWS V14.00,2013-09-21 13:59:00,
2013-09-21 10:00:00,65.8,58.4,29.82,SSW,202,0.0,0.0,77,0.00,,---,0.00,VWS V14.00,2013-09-21 14:00:00,
2013-09-21 10:01:00,65.7,59.0,29.82,SW,225,0.0,0.0,79,0.00,,---,0.00,VWS V14.00,2013-09-21 14:01:00,
2013-09-21 10:02:00,65.7,59.0,29.82,SW,225,0.0,0.0,79,0.00,,---,0.00,VWS V14.00,2013-09-21 14:02:00,
2013-09-21 10:03:00,65.7,59.0,29.82,SW,225,0.0,0.0,79,0.00,,---,0.00,VWS V14.00,2013-09-21 14:03:00,
2013-09-21 10:04:00,65.7,59.0,29.82,SW,225,0.0,0.0,79,0.00,,---,0.00,VWS V14.00,2013-09-21 14:04:00,
2013-09-21 10:05:00,65.8,58.4,29.82,SSW,202,0.0,0.0,77,0.00,,---,0.00,VWS V14.00,2013-09-21 14:05:00,
2013-09-21 10:06:00,65.7,58.6,29.82,SW,225,0.0,0.0,78,0.00,,---,0.00,VWS V14.00,2013-09-21 14:06:00,
2013-09-21 10:07:00,65.7,58.6,29.82,SW,225,0.0,0.0,78,0.00,,---,0.00,VWS V14.00,2013-09-21 14:07:00,
2013-09-21 10:08:00,65.7,58.6,29.82,SW,225,0.0,0.0,78,0.00,,---,0.00,VWS V14.00,2013-09-21 14:08:00,
2013-09-21 10:09:00,65.8,58.8,29.82,SW,225,0.0,0.0,78,0.00,,---,0.00,VWS V14.00,2013-09-21 14:09:00,
2013-09-21 10:10:00,65.8,58.4,29.82,SSW,202,0.0,0.0,77,0.00,,---,0.00,VWS V14.00,2013-09-21 14:10:00,
2013-09-21 10:11:00,65.8,58.8,29.82,SSW,202,0.0,0.0,78,0.00,,---,0.00,VWS V14.00,2013-09-21 14:11:00,
2013-09-21 10:12:00,65.8,58.8,29.82,SSW,202,1.6,2.0,78,0.00,,---,0.00,VWS V14.00,2013-09-21 14:12:00,
2013-09-21 10:13:00,65.8,58.8,29.82,SSW,202,0.0,1.6,78,0.00,,---,0.00,VWS V14.00,2013-09-21 14:13:00,
2013-09-21 10:14:00,65.8,58.8,29.82,SSW,202,0.0,0.0,78,0.00,,---,0.00,VWS V14.00,2013-09-21 14:14:00,
2013-09-21 10:15:00,66.0,58.6,29.82,SSW,202,0.9,1.6,77,0.00,,---,0.00,VWS V14.00,2013-09-21 14:15:00,
2013-09-21 10:16:00,65.8,58.8,29.82,SSW,202,0.9,2.0,78,0.00,,---,0.00,VWS V14.00,2013-09-21 14:16:00,
2013-09-21 10:17:00,65.8,58.8,29.82,SSW,202,0.0,0.9,78,0.00,,---,0.00,VWS V14.00,2013-09-21 14:17:00,
2013-09-21 10:18:00,65.8,58.4,29.82,SSW,202,0.0,0.0,77,0.00,,---,0.00,VWS V14.00,2013-09-21 14:18:00,
2013-09-21 10:19:00,65.8,58.4,29.82,SSW,202,0.0,0.0,77,0.00,,---,0.00,VWS V14.00,2013-09-21 14:19:00,
2013-09-21 10:20:00,66.0,58.2,29.82,South,180,1.3,2.0,76,0.00,,---,0.00,VWS V14.00,2013-09-21 14:20:00,
2013-09-21 10:21:00,65.8,58.4,29.82,SSW,202,0.0,0.0,77,0.00,,---,0.00,VWS V14.00,2013-09-21 14:21:00,
2013-09-21 10:22:00,65.8,58.4,29.82,SSW,202,0.0,0.0,77,0.00,,---,0.00,VWS V14.00,2013-09-21 14:22:00,
2013-09-21 10:23:00,65.8,58.4,29.82,SSW,202,0.0,0.0,77,0.00,,---,0.00,VWS V14.00,2013-09-21 14:23:00,
2013-09-21 10:24:00,65.8,58.4,29.82,SSW,202,0.9,0.9,77,0.00,,---,0.00,VWS V14.00,2013-09-21 14:24:00,
2013-09-21 10:25:00,66.2,58.0,29.82,SSW,202,0.0,0.0,75,0.00,,---,0.00,VWS V14.00,2013-09-21 14:25:00,
2013-09-21 10:26:00,65.8,58.4,29.82,SSW,202,0.0,0.0,77,0.00,,---,0.00,VWS V14.00,2013-09-21 14:26:00,
2013-09-21 10:27:00,65.8,58.4,29.82,SSW,202,0.0,0.0,77,0.00,,---,0.00,VWS V14.00,2013-09-21 14:27:00,
2013-09-21 10:28:00,65.8,58.4,29.82,SSW,202,0.0,0.0,77,0.00,,---,0.00,VWS V14.00,2013-09-21 14:28:00,
2013-09-21 10:29:00,65.8,58.4,29.82,SSW,202,1.1,1.6,77,0.00,,---,0.00,VWS V14.00,2013-09-21 14:29:00,
2013-09-21 10:30:00,66.4,58.2,29.82,SSW,202,0.0,0.0,75,0.00,,---,0.00,VWS V14.00,2013-09-21 14:30:00,
2013-09-21 10:31:00,65.8,58.4,29.82,SSW,202,0.0,1.1,77,0.00,,---,0.00,VWS V14.00,2013-09-21 14:31:00,
2013-09-21 10:32:00,65.8,58.4,29.82,SSW,202,0.0,0.0,77,0.00,,---,0.00,VWS V14.00,2013-09-21 14:32:00,
2013-09-21 10:33:00,65.8,58.4,29.82,SSW,202,0.0,2.0,77,0.00,,---,0.00,VWS V14.00,2013-09-21 14:33:00,
2013-09-21 10:34:00,66.0,58.6,29.82,SSW,202,2.2,2.2,77,0.00,,---,0.00,VWS V14.00,2013-09-21 14:34:00,
2013-09-21 10:35:00,66.4,58.2,29.82,SSW,202,1.1,2.0,75,0.00,,---,0.00,VWS V14.00,2013-09-21 14:35:00,
2013-09-21 10:36:00,66.0,58.6,29.82,SSW,202,0.0,1.1,77,0.00,,---,0.00,VWS V14.00,2013-09-21 14:36:00,
2013-09-21 10:37:00,66.0,58.6,29.82,SSW,202,0.9,1.6,77,0.00,,---,0.00,VWS V14.00,2013-09-21 14:37:00,
2013-09-21 10:38:00,66.0,58.6,29.82,SSE,158,1.6,2.0,77,0.00,,---,0.00,VWS V14.00,2013-09-21 14:38:00,
2013-09-21 10:39:00,66.0,58.2,29.82,SSE,158,2.0,2.0,76,0.00,,---,0.00,VWS V14.00,2013-09-21 14:39:00,
2013-09-21 10:40:00,66.4,57.8,29.82,SSE,158,1.3,1.3,74,0.00,,---,0.00,VWS V14.00,2013-09-21 14:40:00,
2013-09-21 10:41:00,66.0,58.2,29.82,South,180,2.0,2.0,76,0.00,,---,0.00,VWS V14.00,2013-09-21 14:41:00,
2013-09-21 10:42:00,66.0,58.2,29.82,South,180,1.3,2.0,76,0.00,,---,0.00,VWS V14.00,2013-09-21 14:42:00,
2013-09-21 10:43:00,66.0,58.2,29.82,South,180,0.0,2.0,76,0.00,,---,0.00,VWS V14.00,2013-09-21 14:43:00,
2013-09-21 10:44:00,66.2,58.4,29.82,South,180,0.0,0.0,76,0.00,,---,0.00,VWS V14.00,2013-09-21 14:44:00,
2013-09-21 10:45:00,66.4,57.8,29.82,SSE,158,1.3,1.3,74,0.00,,---,0.00,VWS V14.00,2013-09-21 14:45:00,
2013-09-21 10:46:00,66.2,58.0,29.82,SSW,202,0.0,0.9,75,0.00,,---,0.00,VWS V14.00,2013-09-21 14:46:00,
2013-09-21 10:47:00,66.2,58.0,29.82,SSW,202,0.0,1.3,75,0.00,,---,0.00,VWS V14.00,2013-09-21 14:47:00,
2013-09-21 10:48:00,66.2,58.0,29.82,SSW,202,1.6,1.6,75,0.00,,---,0.00,VWS V14.00,2013-09-21 14:48:00,
2013-09-21 10:49:00,66.2,58.0,29.82,SSW,202,1.1,1.6,75,0.00,,---,0.00,VWS V14.00,2013-09-21 14:49:00,
2013-09-21 10:50:00,66.2,58.0,29.82,SSW,202,0.0,1.1,75,0.00,,---,0.00,VWS V14.00,2013-09-21 14:50:00,
2013-09-21 10:51:00,66.4,57.5,29.82,South,180,2.0,2.7,73,0.00,,---,0.00,VWS V14.00,2013-09-21 14:51:00,
2013-09-21 10:52:00,66.4,58.2,29.82,SSW,202,0.0,2.2,75,0.00,,---,0.00,VWS V14.00,2013-09-21 14:52:00,
2013-09-21 10:53:00,66.4,58.2,29.82,SSW,202,0.0,0.0,75,0.00,,---,0.00,VWS V14.00,2013-09-21 14:53:00,
2013-09-21 10:54:00,66.4,58.2,29.82,SSW,202,0.0,0.0,75,0.00,,---,0.00,VWS V14.00,2013-09-21 14:54:00,
2013-09-21 10:55:00,66.4,58.2,29.82,SSW,202,0.0,0.0,75,0.00,,---,0.00,VWS V14.00,2013-09-21 14:55:00,
2013-09-21 10:56:00,66.4,57.5,29.82,SSE,158,2.5,2.5,73,0.00,,---,0.00,VWS V14.00,2013-09-21 14:56:00,
2013-09-21 10:57:00,66.4,58.2,29.82,SSW,202,2.0,2.5,75,0.00,,---,0.00,VWS V14.00,2013-09-21 14:57:00,
2013-09-21 10:58:00,66.4,58.2,29.82,SSW,202,2.2,2.2,75,0.00,,---,0.00,VWS V14.00,2013-09-21 14:58:00,
2013-09-21 10:59:00,66.4,58.2,29.82,SSE,158,1.6,2.7,75,0.00,,---,0.00,VWS V14.00,2013-09-21 14:59:00,
2013-09-21 11:00:00,66.4,58.2,29.82,SSE,158,1.1,2.0,75,0.00,,---,0.00,VWS V14.00,2013-09-21 15:00:00,
2013-09-21 11:01:00,66.4,57.5,29.82,South,180,1.1,1.1,73,0.00,,---,0.00,VWS V14.00,2013-09-21 15:01:00,
2013-09-21 11:02:00,66.4,57.8,29.82,SSE,158,1.3,2.0,74,0.00,,---,0.00,VWS V14.00,2013-09-21 15:02:00,
2013-09-21 11:03:00,66.4,57.8,29.82,SSE,158,2.7,2.7,74,0.00,,---,0.00,VWS V14.00,2013-09-21 15:03:00,
2013-09-21 11:04:00,66.4,57.8,29.82,SSE,158,2.2,2.7,74,0.00,,---,0.00,VWS V14.00,2013-09-21 15:04:00,
2013-09-21 11:05:00,66.4,57.8,29.82,SSE,158,0.9,2.2,74,0.00,,---,0.00,VWS V14.00,2013-09-21 15:05:00,
2013-09-21 11:06:00,66.4,57.5,29.82,SSE,158,1.6,2.5,73,0.00,,---,0.00,VWS V14.00,2013-09-21 15:06:00,
2013-09-21 11:07:00,66.4,57.8,29.82,SSE,158,0.0,2.5,74,0.00,,---,0.00,VWS V14.00,2013-09-21 15:07:00,
2013-09-21 11:08:00,66.4,57.8,29.82,SSE,158,1.6,2.5,74,0.00,,---,0.00,VWS V14.00,2013-09-21 15:08:00,
2013-09-21 11:09:00,66.4,57.5,29.82,SSE,158,1.3,2.7,73,0.00,,---,0.00,VWS V14.00,2013-09-21 15:09:00,
2013-09-21 11:10:00,66.4,57.5,29.82,SSE,158,2.5,2.9,73,0.00,,---,0.00,VWS V14.00,2013-09-21 15:10:00,
2013-09-21 11:11:00,66.2,56.9,29.82,South,180,1.3,2.5,72,0.00,,---,0.00,VWS V14.00,2013-09-21 15:11:00,
2013-09-21 11:12:00,66.4,57.5,29.82,South,180,2.7,2.7,73,0.00,,---,0.00,VWS V14.00,2013-09-21 15:12:00,
2013-09-21 11:13:00,66.4,57.5,29.82,South,180,2.2,2.7,73,0.00,,---,0.00,VWS V14.00,2013-09-21 15:13:00,
2013-09-21 11:14:00,66.4,57.5,29.82,SSE,158,2.9,2.9,73,0.00,,---,0.00,VWS V14.00,2013-09-21 15:14:00,
2013-09-21 11:15:00,66.4,57.5,29.82,SSE,158,1.6,2.9,73,0.00,,---,0.00,VWS V14.00,2013-09-21 15:15:00,
2013-09-21 11:16:00,66.2,56.9,29.82,South,180,2.0,2.5,72,0.00,,---,0.00,VWS V14.00,2013-09-21 15:16:00,
2013-09-21 11:17:00,66.4,57.5,29.82,SSE,158,2.5,2.5,73,0.00,,---,0.00,VWS V14.00,2013-09-21 15:17:00,
2013-09-21 11:18:00,66.4,57.5,29.82,SSE,158,1.3,2.7,73,0.00,,---,0.00,VWS V14.00,2013-09-21 15:18:00,
2013-09-21 11:19:00,66.4,57.5,29.82,SSE,158,1.1,1.3,73,0.00,,---,0.00,VWS V14.00,2013-09-21 15:19:00,
2013-09-21 11:20:00,66.4,57.5,29.82,SSE,158,2.2,2.2,73,0.00,,---,0.00,VWS V14.00,2013-09-21 15:20:00,
2013-09-21 11:21:00,66.0,56.7,29.82,SSE,158,3.4,3.4,72,0.00,,---,0.00,VWS V14.00,2013-09-21 15:21:00,
2013-09-21 11:22:00,66.4,57.5,29.82,South,180,0.9,2.7,73,0.00,,---,0.00,VWS V14.00,2013-09-21 15:22:00,
2013-09-21 11:23:00,66.4,57.5,29.82,South,180,1.3,2.0,73,0.00,,---,0.00,VWS V14.00,2013-09-21 15:23:00,
2013-09-21 11:24:00,66.4,57.5,29.82,SSW,202,2.0,2.9,73,0.00,,---,0.00,VWS V14.00,2013-09-21 15:24:00,
2013-09-21 11:25:00,66.4,57.5,29.82,SSE,158,2.5,2.5,73,0.00,,---,0.00,VWS V14.00,2013-09-21 15:25:00,
2013-09-21 11:26:00,66.2,56.9,29.82,South,180,2.9,2.9,72,0.00,,---,0.00,VWS V14.00,2013-09-21 15:26:00,
2013-09-21 11:27:00,66.4,57.5,29.82,SSE,158,2.5,2.5,73,0.00,,---,0.00,VWS V14.00,2013-09-21 15:27:00,
2013-09-21 11:28:00,66.4,57.5,29.82,SSE,158,2.2,2.5,73,0.00,,---,0.00,VWS V14.00,2013-09-21 15:28:00,
2013-09-21 11:29:00,66.4,57.5,29.82,South,180,2.5,2.5,73,0.00,,---,0.00,VWS V14.00,2013-09-21 15:29:00,
2013-09-21 11:30:00,66.4,57.5,29.82,South,180,1.6,2.9,73,0.00,,---,0.00,VWS V14.00,2013-09-21 15:30:00,
2013-09-21 11:31:00,66.2,57.3,29.82,SSW,202,1.1,1.1,73,0.00,,---,0.00,VWS V14.00,2013-09-21 15:31:00,
2013-09-21 11:32:00,66.2,56.9,29.82,South,180,2.5,2.9,72,0.00,,---,0.00,VWS V14.00,2013-09-21 15:32:00,
2013-09-21 11:33:00,66.2,56.9,29.82,South,180,0.9,2.5,72,0.00,,---,0.00,VWS V14.00,2013-09-21 15:33:00,
2013-09-21 11:34:00,66.2,56.9,29.82,SSE,158,2.0,2.5,72,0.00,,---,0.00,VWS V14.00,2013-09-21 15:34:00,
2013-09-21 11:35:00,66.2,56.9,29.82,SSW,202,1.3,3.1,72,0.00,,---,0.00,VWS V14.00,2013-09-21 15:35:00,
2013-09-21 11:36:00,66.4,57.5,29.82,SSW,202,0.0,0.0,73,0.00,,---,0.00,VWS V14.00,2013-09-21 15:36:00,
2013-09-21 11:37:00,66.2,56.9,29.82,South,180,2.5,3.6,72,0.00,,---,0.00,VWS V14.00,2013-09-21 15:37:00,
2013-09-21 11:38:00,66.2,56.9,29.82,South,180,2.0,2.9,72,0.00,,---,0.00,VWS V14.00,2013-09-21 15:38:00,
2013-09-21 11:39:00,66.2,56.9,29.82,SSE,158,2.7,2.7,72,0.00,,---,0.00,VWS V14.00,2013-09-21 15:39:00,
2013-09-21 11:40:00,66.2,56.9,29.82,South,180,1.3,3.1,72,0.00,,---,0.00,VWS V14.00,2013-09-21 15:40:00,
2013-09-21 11:41:00,66.4,57.5,29.79,SSW,202,0.0,0.0,73,0.00,,---,0.00,VWS V14.00,2013-09-21 15:41:00,
2013-09-21 11:42:00,66.0,56.7,29.82,SSE,158,2.0,3.4,72,0.00,,---,0.00,VWS V14.00,2013-09-21 15:42:00,
2013-09-21 11:43:00,66.0,56.7,29.82,SSE,158,1.6,3.4,72,0.00,,---,0.00,VWS V14.00,2013-09-21 15:43:00,
2013-09-21 11:44:00,66.0,57.1,29.82,SSE,158,2.0,2.7,73,0.00,,---,0.00,VWS V14.00,2013-09-21 15:44:00,
2013-09-21 11:45:00,66.0,57.1,29.82,SSE,158,2.0,2.7,73,0.00,,---,0.00,VWS V14.00,2013-09-21 15:45:00,
2013-09-21 11:46:00,66.6,57.7,29.79,South,180,0.9,2.5,73,0.00,,---,0.00,VWS V14.00,2013-09-21 15:46:00,
2013-09-21 11:47:00,66.2,56.9,29.82,South,180,2.0,2.7,72,0.00,,---,0.00,VWS V14.00,2013-09-21 15:47:00,
2013-09-21 11:48:00,66.2,57.3,29.82,South,180,2.2,2.9,73,0.00,,---,0.00,VWS V14.00,2013-09-21 15:48:00,
2013-09-21 11:49:00,66.2,57.3,29.82,South,180,1.3,2.5,73,0.00,,---,0.00,VWS V14.00,2013-09-21 15:49:00,
2013-09-21 11:50:00,66.2,57.3,29.82,South,180,0.0,2.0,73,0.00,,---,0.00,VWS V14.00,2013-09-21 15:50:00,
2013-09-21 11:51:00,66.7,57.8,29.79,SSE,158,2.5,2.5,73,0.00,,---,0.00,VWS V14.00,2013-09-21 15:51:00,
2013-09-21 11:52:00,66.2,57.3,29.82,SSW,202,0.9,1.1,73,0.00,,---,0.00,VWS V14.00,2013-09-21 15:52:00,
2013-09-21 11:53:00,66.2,57.3,29.82,SSW,202,0.0,1.1,73,0.00,,---,0.00,VWS V14.00,2013-09-21 15:53:00,
2013-09-21 11:54:00,66.2,57.3,29.82,WSW,248,1.1,1.6,73,0.00,,---,0.00,VWS V14.00,2013-09-21 15:54:00,
2013-09-21 11:55:00,66.2,57.3,29.82,SSW,202,0.9,1.6,73,0.00,,---,0.00,VWS V14.00,2013-09-21 15:55:00,
2013-09-21 11:56:00,66.9,57.6,29.79,South,180,2.0,2.7,72,0.00,,---,0.00,VWS V14.00,2013-09-21 15:56:00,
2013-09-21 11:57:00,66.4,57.5,29.82,SSW,202,0.0,0.0,73,0.00,,---,0.00,VWS V14.00,2013-09-21 15:57:00,
2013-09-21 11:58:00,66.4,57.5,29.82,SSW,202,0.0,0.0,73,0.00,,---,0.00,VWS V14.00,2013-09-21 15:58:00,
2013-09-21 11:59:00,66.4,57.5,29.82,SSW,202,0.0,0.0,73,0.00,,---,0.00,VWS V14.00,2013-09-21 15:59:00,
2013-09-21 12:00:00,66.4,57.5,29.82,SSW,202,0.0,0.0,73,0.00,,---,0.00,VWS V14.00,2013-09-21 16:00:00,
2013-09-21 12:01:00,67.1,57.8,29.79,SSW,202,2.7,2.7,72,0.00,,---,0.00,VWS V14.00,2013-09-21 16:01:00,
2013-09-21 12:02:00,66.4,57.5,29.80,SSW,202,0.0,0.9,73,0.00,,---,0.00,VWS V14.00,2013-09-21 16:02:00,
2013-09-21 12:03:00,66.4,57.5,29.80,SSW,202,0.0,0.0,73,0.00,,---,0.00,VWS V14.00,2013-09-21 16:03:00,
2013-09-21 12:04:00,66.6,57.7,29.80,SSW,202,2.5,2.7,73,0.00,,---,0.00,VWS V14.00,2013-09-21 16:04:00,
2013-09-21 12:05:00,66.6,57.7,29.80,SSW,202,2.2,2.5,73,0.00,,---,0.00,VWS V14.00,2013-09-21 16:05:00,
2013-09-21 12:06:00,66.9,57.2,29.79,SSE,158,2.9,2.9,71,0.00,,---,0.00,VWS V14.00,2013-09-21 16:06:00,
2013-09-21 12:07:00,66.6,57.7,29.80,South,180,2.5,2.7,73,0.00,,---,0.00,VWS V14.00,2013-09-21 16:07:00,
2013-09-21 12:08:00,66.6,57.7,29.80,South,180,0.0,2.5,73,0.00,,---,0.00,VWS V14.00,2013-09-21 16:08:00,
2013-09-21 12:09:00,66.6,57.7,29.80,South,180,2.0,2.2,73,0.00,,---,0.00,VWS V14.00,2013-09-21 16:09:00,
2013-09-21 12:10:00,66.7,58.2,29.80,SW,225,2.5,3.1,74,0.00,,---,0.00,VWS V14.00,2013-09-21 16:10:00,
2013-09-21 12:11:00,66.9,57.2,29.79,SSW,202,2.0,2.5,71,0.00,,---,0.00,VWS V14.00,2013-09-21 16:11:00,
2013-09-21 12:12:00,66.7,57.4,29.80,South,180,2.5,3.1,72,0.00,,---,0.00,VWS V14.00,2013-09-21 16:12:00,
2013-09-21 12:13:00,66.7,57.8,29.80,SSE,158,2.7,2.7,73,0.00,,---,0.00,VWS V14.00,2013-09-21 16:13:00,
2013-09-21 12:14:00,66.9,58.0,29.80,South,180,2.0,2.7,73,0.00,,---,0.00,VWS V14.00,2013-09-21 16:14:00,
2013-09-21 12:15:00,66.9,57.6,29.80,SSE,158,2.5,3.1,72,0.00,,---,0.00,VWS V14.00,2013-09-21 16:15:00,
2013-09-21 12:16:00,66.9,56.8,29.79,SSE,158,2.5,2.9,70,0.00,,---,0.00,VWS V14.00,2013-09-21 16:16:00,
2013-09-21 12:17:00,66.9,57.6,29.80,SSE,158,1.3,2.2,72,0.00,,---,0.00,VWS V14.00,2013-09-21 16:17:00,
2013-09-21 12:18:00,67.1,57.8,29.80,SSE,158,1.1,2.7,72,0.00,,---,0.00,VWS V14.00,2013-09-21 16:18:00,
2013-09-21 12:19:00,67.1,57.8,29.80,SSE,158,2.9,3.6,72,0.00,,---,0.00,VWS V14.00,2013-09-21 16:19:00,
2013-09-21 12:20:00,67.1,57.8,29.80,SSE,158,2.7,2.9,72,0.00,,---,0.00,VWS V14.00,2013-09-21 16:20:00,
2013-09-21 12:21:00,66.9,57.2,29.79,SSW,202,2.7,2.7,71,0.00,,---,0.00,VWS V14.00,2013-09-21 16:21:00,
2013-09-21 12:22:00,67.1,57.8,29.80,ENE,68,2.7,3.4,72,0.00,,---,0.00,VWS V14.00,2013-09-21 16:22:00,
2013-09-21 12:23:00,67.1,57.8,29.80,SSW,202,2.0,2.7,72,0.00,,---,0.00,VWS V14.00,2013-09-21 16:23:00,
2013-09-21 12:24:00,67.1,57.4,29.80,South,180,2.2,3.8,71,0.00,,---,0.00,VWS V14.00,2013-09-21 16:24:00,
2013-09-21 12:25:00,67.1,57.4,29.80,South,180,3.4,3.4,71,0.00,,---,0.00,VWS V14.00,2013-09-21 16:25:00,
2013-09-21 12:26:00,67.1,57.4,29.79,SSW,202,1.1,2.0,71,0.00,,---,0.00,VWS V14.00,2013-09-21 16:26:00,
2013-09-21 12:27:00,67.1,57.4,29.80,South,180,1.6,2.7,71,0.00,,---,0.00,VWS V14.00,2013-09-21 16:27:00,
2013-09-21 12:28:00,66.9,57.2,29.80,SSE,158,2.9,2.9,71,0.00,,---,0.00,VWS V14.00,2013-09-21 16:28:00,
2013-09-21 12:29:00,66.9,57.2,29.80,SSE,158,1.1,2.9,71,0.00,,---,0.00,VWS V14.00,2013-09-21 16:29:00,
2013-09-21 12:30:00,66.9,57.2,29.80,South,180,3.1,3.1,71,0.00,,---,0.00,VWS V14.00,2013-09-21 16:30:00,
2013-09-21 12:31:00,67.3,57.6,29.79,SSW,202,2.5,3.1,71,0.00,,---,0.00,VWS V14.00,2013-09-21 16:31:00,
2013-09-21 12:32:00,66.9,57.2,29.80,SSW,202,1.6,3.1,71,0.00,,---,0.00,VWS V14.00,2013-09-21 16:32:00,
2013-09-21 12:33:00,66.9,57.2,29.80,SSW,202,2.0,2.5,71,0.00,,---,0.00,VWS V14.00,2013-09-21 16:33:00,
2013-09-21 12:34:00,66.9,57.2,29.80,South,180,2.9,2.9,71,0.00,,---,0.00,VWS V14.00,2013-09-21 16:34:00,
2013-09-21 12:35:00,66.9,57.2,29.80,SSE,158,4.0,4.0,71,0.00,,---,0.00,VWS V14.00,2013-09-21 16:35:00,
2013-09-21 12:36:00,67.5,57.7,29.79,South,180,2.5,4.3,71,0.00,,---,0.00,VWS V14.00,2013-09-21 16:36:00,
2013-09-21 12:37:00,66.9,56.8,29.80,South,180,2.0,3.4,70,0.00,,---,0.00,VWS V14.00,2013-09-21 16:37:00,
2013-09-21 12:38:00,66.9,56.8,29.80,SSE,158,2.5,2.9,70,0.00,,---,0.00,VWS V14.00,2013-09-21 16:38:00,
2013-09-21 12:39:00,66.9,56.8,29.80,SSE,158,2.5,3.1,70,0.00,,---,0.00,VWS V14.00,2013-09-21 16:39:00,
2013-09-21 12:40:00,66.9,56.8,29.80,SSE,158,1.6,2.9,70,0.00,,---,0.00,VWS V14.00,2013-09-21 16:40:00,
2013-09-21 12:41:00,67.6,57.9,29.79,South,180,1.6,3.1,71,0.00,,---,0.00,VWS V14.00,2013-09-21 16:41:00,
2013-09-21 12:42:00,66.9,57.2,29.80,SSE,158,1.1,2.5,71,0.00,,---,0.00,VWS V14.00,2013-09-21 16:42:00,
2013-09-21 12:43:00,66.9,57.2,29.80,SSW,202,2.7,2.7,71,0.00,,---,0.00,VWS V14.00,2013-09-21 16:43:00,
2013-09-21 12:44:00,66.9,57.2,29.80,SSE,158,2.0,3.1,71,0.00,,---,0.00,VWS V14.00,2013-09-21 16:44:00,
2013-09-21 12:45:00,66.9,57.2,29.80,South,180,2.7,2.7,71,0.00,,---,0.00,VWS V14.00,2013-09-21 16:45:00,
2013-09-21 12:46:00,67.8,57.7,29.79,SSE,158,1.1,2.2,70,0.00,,---,0.00,VWS V14.00,2013-09-21 16:46:00,
2013-09-21 12:47:00,67.1,57.4,29.80,SSW,202,1.6,1.6,71,0.00,,---,0.00,VWS V14.00,2013-09-21 16:47:00,
2013-09-21 12:48:00,67.1,57.4,29.80,SSW,202,1.1,2.0,71,0.00,,---,0.00,VWS V14.00,2013-09-21 16:48:00,
2013-09-21 12:49:00,67.1,57.4,29.80,SSE,158,1.3,2.9,71,0.00,,---,0.00,VWS V14.00,2013-09-21 16:49:00,
2013-09-21 12:50:00,67.1,57.4,29.80,SSE,158,0.9,2.0,71,0.00,,---,0.00,VWS V14.00,2013-09-21 16:50:00,
2013-09-21 12:51:00,67.8,57.7,29.79,SSE,158,2.5,2.5,70,0.00,,---,0.00,VWS V14.00,2013-09-21 16:51:00,
2013-09-21 12:52:00,67.1,57.4,29.80,South,180,1.3,3.4,71,0.00,,---,0.00,VWS V14.00,2013-09-21 16:52:00,
2013-09-21 12:53:00,67.3,57.6,29.80,SSW,202,2.5,3.1,71,0.00,,---,0.00,VWS V14.00,2013-09-21 16:53:00,
2013-09-21 12:54:00,67.3,57.6,29.80,SSE,158,2.0,3.8,71,0.00,,---,0.00,VWS V14.00,2013-09-21 16:54:00,
2013-09-21 12:55:00,67.3,57.6,29.80,SSE,158,2.5,2.9,71,0.00,,---,0.00,VWS V14.00,2013-09-21 16:55:00,
2013-09-21 12:56:00,67.8,57.3,29.76,South,180,0.0,1.6,69,0.00,,---,0.00,VWS V14.00,2013-09-21 16:56:00,
2013-09-21 12:57:00,67.5,57.7,29.80,South,180,2.7,2.7,71,0.00,,---,0.00,VWS V14.00,2013-09-21 16:57:00,
2013-09-21 12:58:00,67.5,57.7,29.80,South,180,2.5,4.3,71,0.00,,---,0.00,VWS V14.00,2013-09-21 16:58:00,
2013-09-21 12:59:00,67.5,57.7,29.80,South,180,1.1,2.5,71,0.00,,---,0.00,VWS V14.00,2013-09-21 16:59:00,
2013-09-21 13:00:00,67.5,57.7,29.80,SSE,158,3.1,3.1,71,0.00,,---,0.00,VWS V14.00,2013-09-21 17:00:00,
2013-09-21 13:01:00,67.6,57.5,29.76,SSE,158,1.3,1.3,70,0.00,,---,0.00,VWS V14.00,2013-09-21 17:01:00,
2013-09-21 13:02:00,67.6,57.9,29.80,SSE,158,2.7,3.1,71,0.00,,---,0.00,VWS V14.00,2013-09-21 17:02:00,
2013-09-21 13:03:00,67.6,57.9,29.80,South,180,1.6,3.1,71,0.00,,---,0.00,VWS V14.00,2013-09-21 17:03:00,
2013-09-21 13:04:00,67.6,57.5,29.80,South,180,3.6,3.6,70,0.00,,---,0.00,VWS V14.00,2013-09-21 17:04:00,
2013-09-21 13:05:00,67.6,57.1,29.80,SSW,202,2.0,3.6,69,0.00,,---,0.00,VWS V14.00,2013-09-21 17:05:00,
2013-09-21 13:06:00,67.6,57.5,29.76,SSE,158,1.3,1.3,70,0.00,,---,0.00,VWS V14.00,2013-09-21 17:06:00,
2013-09-21 13:07:00,67.8,57.7,29.80,SSW,202,1.1,2.7,70,0.00,,---,0.00,VWS V14.00,2013-09-21 17:07:00,
2013-09-21 13:08:00,67.8,57.7,29.80,SSE,158,1.1,2.2,70,0.00,,---,0.00,VWS V14.00,2013-09-21 17:08:00,
2013-09-21 13:09:00,67.8,57.7,29.80,SSE,158,1.3,2.7,70,0.00,,---,0.00,VWS V14.00,2013-09-21 17:09:00,
2013-09-21 13:10:00,67.8,57.7,29.80,SSW,202,1.3,2.5,70,0.00,,---,0.00,VWS V14.00,2013-09-21 17:10:00,
2013-09-21 13:11:00,67.8,57.7,29.80,SSW,202,1.1,2.5,70,0.00,,---,0.00,VWS V14.00,2013-09-21 17:11:00,
2013-09-21 13:12:00,67.6,57.5,29.76,South,180,2.7,3.1,70,0.00,,---,0.00,VWS V14.00,2013-09-21 17:12:00,
2013-09-21 13:13:00,67.8,57.7,29.80,SSE,158,2.5,2.5,70,0.00,,---,0.00,VWS V14.00,2013-09-21 17:13:00,
2013-09-21 13:14:00,67.8,57.7,29.80,SSE,158,1.3,2.5,70,0.00,,---,0.00,VWS V14.00,2013-09-21 17:14:00,
2013-09-21 13:15:00,67.8,57.7,29.80,SSE,158,2.7,2.7,70,0.00,,---,0.00,VWS V14.00,2013-09-21 17:15:00,
2013-09-21 13:16:00,67.8,57.7,29.80,South,180,1.6,2.7,70,0.00,,---,0.00,VWS V14.00,2013-09-21 17:16:00,
2013-09-21 13:17:00,67.6,57.9,29.76,SSE,158,2.0,2.0,71,0.00,,---,0.00,VWS V14.00,2013-09-21 17:17:00,
2013-09-21 13:18:00,67.8,57.3,29.76,South,180,1.6,2.5,69,0.00,,---,0.00,VWS V14.00,2013-09-21 17:18:00,
2013-09-21 13:19:00,67.8,57.7,29.76,South,180,1.3,2.5,70,0.00,,---,0.00,VWS V14.00,2013-09-21 17:19:00,
2013-09-21 13:20:00,67.8,57.7,29.76,SSE,158,2.0,2.0,70,0.00,,---,0.00,VWS V14.00,2013-09-21 17:20:00,
2013-09-21 13:21:00,67.8,57.7,29.76,SSE,158,1.6,2.9,70,0.00,,---,0.00,VWS V14.00,2013-09-21 17:21:00,
2013-09-21 13:22:00,67.5,57.7,29.76,South,180,2.2,3.1,71,0.00,,---,0.00,VWS V14.00,2013-09-21 17:22:00,
2013-09-21 13:23:00,67.6,57.5,29.76,SSE,158,1.3,1.3,70,0.00,,---,0.00,VWS V14.00,2013-09-21 17:23:00,
2013-09-21 13:24:00,67.6,57.5,29.76,SSE,158,1.6,2.2,70,0.00,,---,0.00,VWS V14.00,2013-09-21 17:24:00,
2013-09-21 13:25:00,67.6,57.5,29.76,SSE,158,2.0,2.0,70,0.00,,---,0.00,VWS V14.00,2013-09-21 17:25:00,
2013-09-21 13:26:00,67.6,57.5,29.76,SSE,158,1.6,2.0,70,0.00,,---,0.00,VWS V14.00,2013-09-21 17:26:00,
2013-09-21 13:27:00,67.3,58.0,29.76,South,180,1.1,2.2,72,0.00,,---,0.00,VWS V14.00,2013-09-21 17:27:00,
2013-09-21 13:28:00,67.6,57.5,29.76,SSE,158,1.3,2.2,70,0.00,,---,0.00,VWS V14.00,2013-09-21 17:28:00,
2013-09-21 13:29:00,67.6,57.5,29.76,SSE,158,2.0,2.0,70,0.00,,---,0.00,VWS V14.00,2013-09-21 17:29:00,
2013-09-21 13:30:00,67.6,57.5,29.76,SSE,158,1.1,2.0,70,0.00,,---,0.00,VWS V14.00,2013-09-21 17:30:00,
2013-09-21 13:31:00,67.6,57.5,29.76,SSE,158,2.5,2.9,70,0.00,,---,0.00,VWS V14.00,2013-09-21 17:31:00,
2013-09-21 13:32:00,66.9,58.4,29.76,South,180,2.5,2.5,74,0.00,,---,0.00,VWS V14.00,2013-09-21 17:32:00,
2013-09-21 13:33:00,67.6,57.5,29.76,South,180,2.5,3.4,70,0.00,,---,0.00,VWS V14.00,2013-09-21 17:33:00,
2013-09-21 13:34:00,67.6,57.5,29.76,South,180,2.5,3.1,70,0.00,,---,0.00,VWS V14.00,2013-09-21 17:34:00,
2013-09-21 13:35:00,67.6,57.5,29.76,South,180,1.6,2.5,70,0.00,,---,0.00,VWS V14.00,2013-09-21 17:35:00,
2013-09-21 13:36:00,67.6,57.5,29.76,South,180,1.1,2.0,70,0.00,,---,0.00,VWS V14.00,2013-09-21 17:36:00,
2013-09-21 13:37:00,66.7,58.2,29.76,SSE,158,2.0,2.9,74,0.00,,---,0.00,VWS V14.00,2013-09-21 17:37:00,
2013-09-21 13:38:00,67.6,57.5,29.76,SSE,158,1.6,2.5,70,0.00,,---,0.00,VWS V14.00,2013-09-21 17:38:00,
2013-09-21 13:39:00,67.6,57.9,29.76,SSE,158,0.9,2.9,71,0.00,,---,0.00,VWS V14.00,2013-09-21 17:39:00,
2013-09-21 13:40:00,67.5,57.7,29.76,SSE,158,2.5,2.5,71,0.00,,---,0.00,VWS V14.00,2013-09-21 17:40:00,
2013-09-21 13:41:00,67.5,57.7,29.76,SSE,158,1.1,2.5,71,0.00,,---,0.00,VWS V14.00,2013-09-21 17:41:00,
2013-09-21 13:42:00,66.7,58.9,29.79,South,180,2.5,2.9,76,0.00,,---,0.00,VWS V14.00,2013-09-21 17:42:00,
2013-09-21 13:43:00,67.5,57.7,29.76,South,180,2.9,2.9,71,0.00,,---,0.00,VWS V14.00,2013-09-21 17:43:00,
2013-09-21 13:44:00,67.5,58.1,29.76,South,180,2.7,3.1,72,0.00,,---,0.00,VWS V14.00,2013-09-21 17:44:00,
2013-09-21 13:45:00,67.5,58.1,29.76,South,180,2.9,2.9,72,0.00,,---,0.00,VWS V14.00,2013-09-21 17:45:00,
2013-09-21 13:46:00,67.3,58.0,29.76,South,180,1.3,2.9,72,0.00,,---,0.00,VWS V14.00,2013-09-21 17:46:00,
2013-09-21 13:47:00,66.7,59.3,29.79,SSW,202,1.6,2.7,77,0.00,,---,0.00,VWS V14.00,2013-09-21 17:47:00,
2013-09-21 13:48:00,67.3,58.0,29.76,South,180,2.2,2.7,72,0.00,,---,0.00,VWS V14.00,2013-09-21 17:48:00,
2013-09-21 13:49:00,67.1,57.8,29.76,South,180,2.5,2.5,72,0.00,,---,0.00,VWS V14.00,2013-09-21 17:49:00,
2013-09-21 13:50:00,67.1,57.8,29.76,South,180,2.7,2.7,72,0.00,,---,0.00,VWS V14.00,2013-09-21 17:50:00,
2013-09-21 13:51:00,67.1,58.2,29.76,SSW,202,1.6,2.7,73,0.00,,---,0.00,VWS V14.00,2013-09-21 17:51:00,
2013-09-21 13:52:00,66.6,59.1,29.79,South,180,2.7,2.7,77,0.00,,---,0.00,VWS V14.00,2013-09-21 17:52:00,
2013-09-21 13:53:00,66.9,58.0,29.76,SSW,202,1.1,2.9,73,0.00,,---,0.00,VWS V14.00,2013-09-21 17:53:00,
2013-09-21 13:54:00,66.9,58.4,29.76,South,180,1.3,2.7,74,0.00,,---,0.00,VWS V14.00,2013-09-21 17:54:00,
2013-09-21 13:55:00,66.9,58.4,29.76,South,180,1.1,2.7,74,0.00,,---,0.00,VWS V14.00,2013-09-21 17:55:00,
2013-09-21 13:56:00,66.7,58.2,29.76,SSE,158,2.5,2.5,74,0.00,,---,0.00,VWS V14.00,2013-09-21 17:56:00,
2013-09-21 13:57:00,66.6,59.5,29.76,South,180,1.3,3.1,78,0.00,,---,0.00,VWS V14.00,2013-09-21 17:57:00,
2013-09-21 13:58:00,66.7,58.2,29.76,SSE,158,2.9,2.9,74,0.00,,---,0.00,VWS V14.00,2013-09-21 17:58:00,
2013-09-21 13:59:00,66.7,58.6,29.76,SSE,158,1.3,2.9,75,0.00,,---,0.00,VWS V14.00,2013-09-21 17:59:00,
2013-09-21 14:00:00,66.7,58.2,29.76,SSE,158,1.6,1.6,74,0.00,,---,0.00,VWS V14.00,2013-09-21 18:00:00,
2013-09-21 14:01:00,66.7,58.6,29.76,SSE,158,1.6,2.5,75,0.00,,---,0.00,VWS V14.00,2013-09-21 18:01:00,
2013-09-21 14:02:00,66.6,59.5,29.76,SSW,202,2.5,2.5,78,0.00,,---,0.00,VWS V14.00,2013-09-21 18:02:00,
2013-09-21 14:03:00,66.7,58.9,29.80,South,180,2.5,2.5,76,0.00,,---,0.00,VWS V14.00,2013-09-21 18:03:00,
2013-09-21 14:04:00,66.7,58.9,29.80,South,180,1.1,2.9,76,0.00,,---,0.00,VWS V14.00,2013-09-21 18:04:00,
2013-09-21 14:05:00,66.7,58.9,29.80,South,180,0.9,2.0,76,0.00,,---,0.00,VWS V14.00,2013-09-21 18:05:00,
2013-09-21 14:06:00,66.7,58.9,29.80,South,180,1.1,2.7,76,0.00,,---,0.00,VWS V14.00,2013-09-21 18:06:00,
2013-09-21 14:07:00,66.4,59.0,29.76,SSW,202,1.1,1.1,77,0.00,,---,0.00,VWS V14.00,2013-09-21 18:07:00,
2013-09-21 14:08:00,66.7,59.3,29.80,SSW,202,2.7,2.7,77,0.00,,---,0.00,VWS V14.00,2013-09-21 18:08:00,
2013-09-21 14:09:00,66.7,59.3,29.80,SSW,202,1.1,2.7,77,0.00,,---,0.00,VWS V14.00,2013-09-21 18:09:00,
2013-09-21 14:10:00,66.6,59.1,29.80,SSW,202,1.3,2.0,77,0.00,,---,0.00,VWS V14.00,2013-09-21 18:10:00,
2013-09-21 14:11:00,66.7,59.3,29.80,SSW,202,2.9,2.9,77,0.00,,---,0.00,VWS V14.00,2013-09-21 18:11:00,
2013-09-21 14:12:00,66.4,59.3,29.74,SSW,202,0.0,2.0,78,0.00,,---,0.00,VWS V14.00,2013-09-21 18:12:00,
2013-09-21 14:13:00,66.6,59.1,29.80,SSW,202,0.0,2.0,77,0.00,,---,0.00,VWS V14.00,2013-09-21 18:13:00,
2013-09-21 14:14:00,66.6,59.1,29.80,South,180,0.9,2.7,77,0.00,,---,0.00,VWS V14.00,2013-09-21 18:14:00,
2013-09-21 14:15:00,66.6,59.1,29.80,South,180,1.6,2.9,77,0.00,,---,0.00,VWS V14.00,2013-09-21 18:15:00,
2013-09-21 14:16:00,66.6,59.1,29.80,South,180,2.7,2.7,77,0.00,,---,0.00,VWS V14.00,2013-09-21 18:16:00,
2013-09-21 14:17:00,66.2,59.5,29.74,SSW,202,0.0,1.3,79,0.00,,---,0.00,VWS V14.00,2013-09-21 18:17:00,
2013-09-21 14:18:00,66.6,59.5,29.76,SSW,202,2.5,2.5,78,0.00,,---,0.00,VWS V14.00,2013-09-21 18:18:00,
2013-09-21 14:19:00,66.6,59.1,29.76,South,180,1.3,3.1,77,0.00,,---,0.00,VWS V14.00,2013-09-21 18:19:00,
2013-09-21 14:20:00,66.6,59.1,29.76,South,180,1.6,2.5,77,0.00,,---,0.00,VWS V14.00,2013-09-21 18:20:00,
2013-09-21 14:21:00,66.6,59.5,29.76,SSW,202,2.0,2.7,78,0.00,,---,0.00,VWS V14.00,2013-09-21 18:21:00,
2013-09-21 14:22:00,66.0,59.7,29.74,South,180,2.7,2.7,80,0.00,,---,0.00,VWS V14.00,2013-09-21 18:22:00,
2013-09-21 14:23:00,66.6,59.5,29.76,SSW,202,1.1,2.9,78,0.00,,---,0.00,VWS V14.00,2013-09-21 18:23:00,
2013-09-21 14:24:00,66.6,59.5,29.76,SSW,202,1.6,2.5,78,0.00,,---,0.00,VWS V14.00,2013-09-21 18:24:00,
2013-09-21 14:26:00,66.4,59.3,29.76,SSW,202,1.6,2.0,78,0.00,,---,0.00,VWS V14.00,2013-09-21 18:26:00,
2013-09-21 14:27:00,66.0,59.7,29.74,South,180,0.9,2.5,80,0.00,,---,0.00,VWS V14.00,2013-09-21 18:27:00,
2013-09-21 14:28:00,66.4,59.3,29.76,SSW,202,0.0,1.6,78,0.00,,---,0.00,VWS V14.00,2013-09-21 18:28:00,
2013-09-21 14:29:00,66.4,59.0,29.76,SSW,202,0.9,1.6,77,0.00,,---,0.00,VWS V14.00,2013-09-21 18:29:00,
2013-09-21 14:30:00,66.4,59.3,29.76,South,180,1.1,1.1,78,0.00,,---,0.00,VWS V14.00,2013-09-21 18:30:00,
2013-09-21 14:31:00,66.4,59.0,29.76,South,180,0.0,2.2,77,0.00,,---,0.00,VWS V14.00,2013-09-21 18:31:00,
2013-09-21 14:32:00,66.0,60.0,29.74,SSW,202,0.0,1.6,81,0.00,,---,0.00,VWS V14.00,2013-09-21 18:32:00,
2013-09-21 14:33:00,66.4,59.3,29.74,SSW,202,2.0,2.0,78,0.00,,---,0.00,VWS V14.00,2013-09-21 18:33:00,
2013-09-21 14:34:00,66.4,59.3,29.74,SSW,202,0.0,2.0,78,0.00,,---,0.00,VWS V14.00,2013-09-21 18:34:00,
2013-09-21 14:35:00,66.2,59.2,29.74,SSW,202,0.0,0.0,78,0.00,,---,0.00,VWS V14.00,2013-09-21 18:35:00,
2013-09-21 14:36:00,66.2,59.5,29.74,SSW,202,1.6,2.0,79,0.00,,---,0.00,VWS V14.00,2013-09-21 18:36:00,
2013-09-21 14:37:00,65.8,59.8,29.74,SSW,202,0.0,1.6,81,0.00,,---,0.00,VWS V14.00,2013-09-21 18:37:00,
2013-09-21 14:38:00,66.2,59.5,29.74,SSW,202,1.3,2.5,79,0.00,,---,0.00,VWS V14.00,2013-09-21 18:38:00,
2013-09-21 14:39:00,66.2,59.5,29.74,SSW,202,1.3,1.3,79,0.00,,---,0.00,VWS V14.00,2013-09-21 18:39:00,
2013-09-21 14:42:00,65.8,60.2,29.74,SW,225,2.0,2.0,82,0.00,,---,0.00,VWS V14.00,2013-09-21 18:42:00,
2013-09-21 14:43:00,66.2,59.5,29.74,South,180,0.0,2.2,79,0.00,,---,0.00,VWS V14.00,2013-09-21 18:43:00,
2013-09-21 14:44:00,66.0,59.7,29.74,South,180,2.7,2.7,80,0.00,,---,0.00,VWS V14.00,2013-09-21 18:44:00,
2013-09-21 14:45:00,66.0,59.7,29.74,South,180,2.2,2.7,80,0.00,,---,0.00,VWS V14.00,2013-09-21 18:45:00,
2013-09-21 14:47:00,65.8,59.8,29.74,SSW,202,0.0,0.0,81,0.00,,---,0.00,VWS V14.00,2013-09-21 18:47:00,
2013-09-21 14:48:00,66.0,59.7,29.74,South,180,2.5,2.5,80,0.00,,---,0.00,VWS V14.00,2013-09-21 18:48:00,
2013-09-21 14:49:00,66.0,59.7,29.74,South,180,0.9,2.5,80,0.00,,---,0.00,VWS V14.00,2013-09-21 18:49:00,
2013-09-21 14:50:00,66.0,59.7,29.74,SSW,202,0.9,2.7,80,0.00,,---,0.00,VWS V14.00,2013-09-21 18:50:00,
2013-09-21 14:51:00,66.0,59.7,29.74,SSW,202,0.9,1.6,80,0.00,,---,0.00,VWS V14.00,2013-09-21 18:51:00,
2013-09-21 14:52:00,65.8,60.2,29.74,SSW,202,1.3,1.3,82,0.00,,---,0.00,VWS V14.00,2013-09-21 18:52:00,
2013-09-21 14:54:00,66.0,60.0,29.74,SSW,202,0.0,1.6,81,0.00,,---,0.00,VWS V14.00,2013-09-21 18:54:00,
2013-09-21 14:55:00,66.0,60.0,29.74,SSW,202,0.9,2.0,81,0.00,,---,0.00,VWS V14.00,2013-09-21 18:55:00,
2013-09-21 14:56:00,66.0,60.0,29.74,SSW,202,2.0,2.0,81,0.00,,---,0.00,VWS V14.00,2013-09-21 18:56:00,
2013-09-21 14:57:00,65.7,60.0,29.74,SSW,202,0.0,0.0,82,0.00,,---,0.00,VWS V14.00,2013-09-21 18:57:00,
2013-09-21 14:59:00,65.8,59.8,29.74,SSW,202,0.0,1.6,81,0.00,,---,0.00,VWS V14.00,2013-09-21 18:59:00,
2013-09-21 15:01:00,65.8,59.8,29.74,SW,225,1.1,2.2,81,0.00,,---,0.00,VWS V14.00,2013-09-21 19:01:00,
2013-09-21 15:02:00,65.7,60.0,29.74,SSW,202,0.9,0.9,82,0.00,,---,0.00,VWS V14.00,2013-09-21 19:02:00,
2013-09-21 15:04:00,65.8,60.2,29.74,SW,225,2.0,2.0,82,0.00,,---,0.00,VWS V14.00,2013-09-21 19:04:00,
2013-09-21 15:05:00,65.8,60.2,29.74,SW,225,1.1,2.0,82,0.00,,---,0.00,VWS V14.00,2013-09-21 19:05:00,
2013-09-21 15:07:00,65.7,60.0,29.74,SSW,202,0.0,0.0,82,0.00,,---,0.00,VWS V14.00,2013-09-21 19:07:00,
2013-09-21 15:08:00,65.8,59.8,29.74,SSW,202,0.0,1.1,81,0.00,,---,0.00,VWS V14.00,2013-09-21 19:08:00,
2013-09-21 15:09:00,65.8,59.8,29.74,SSW,202,0.0,0.0,81,0.00,,---,0.00,VWS V14.00,2013-09-21 19:09:00,
2013-09-21 15:10:00,65.8,59.8,29.74,SSW,202,0.0,2.2,81,0.00,,---,0.00,VWS V14.00,2013-09-21 19:10:00,
2013-09-21 15:12:00,65.5,60.2,29.74,SSW,202,0.0,0.0,83,0.00,,---,0.00,VWS V14.00,2013-09-21 19:12:00,
2013-09-21 15:14:00,65.8,60.2,29.74,SSW,202,0.0,1.3,82,0.00,,---,0.00,VWS V14.00,2013-09-21 19:14:00,
2013-09-21 15:16:00,65.7,60.0,29.74,SSW,202,0.0,1.6,82,0.00,,---,0.00,VWS V14.00,2013-09-21 19:16:00,
2013-09-21 15:17:00,65.5,60.2,29.74,SSW,202,0.0,0.0,83,0.00,,---,0.00,VWS V14.00,2013-09-21 19:17:00,
2013-09-21 15:18:00,65.7,60.0,29.74,SSW,202,0.0,0.9,82,0.00,,---,0.00,VWS V14.00,2013-09-21 19:18:00,
2013-09-21 15:19:00,65.7,60.0,29.74,SSW,202,0.0,0.0,82,0.00,,---,0.00,VWS V14.00,2013-09-21 19:19:00,
2013-09-21 15:20:00,65.7,60.0,29.74,SSW,202,0.0,0.0,82,0.00,,---,0.00,VWS V14.00,2013-09-21 19:20:00,
2013-09-21 15:22:00,65.7,60.0,29.74,SSW,202,0.0,1.6,82,0.00,,---,0.00,VWS V14.00,2013-09-21 19:22:00,
2013-09-21 15:23:00,65.5,60.2,29.74,WSW,248,0.0,0.0,83,0.00,,---,0.00,VWS V14.00,2013-09-21 19:23:00,
2013-09-21 15:24:00,65.7,60.0,29.74,SSW,202,0.9,0.9,82,0.00,,---,0.00,VWS V14.00,2013-09-21 19:24:00,
2013-09-21 15:25:00,65.7,60.0,29.74,SSW,202,0.0,0.9,82,0.00,,---,0.00,VWS V14.00,2013-09-21 19:25:00,
2013-09-21 15:27:00,65.7,60.0,29.74,SSW,202,0.0,0.0,82,0.00,,---,0.00,VWS V14.00,2013-09-21 19:27:00,
2013-09-21 15:28:00,65.7,60.4,29.71,WSW,248,0.0,0.0,83,0.00,,---,0.00,VWS V14.00,2013-09-21 19:28:00,
2013-09-21 15:29:00,65.7,60.0,29.74,SSW,202,0.0,0.0,82,0.00,,---,0.00,VWS V14.00,2013-09-21 19:29:00,
2013-09-21 15:33:00,65.7,60.4,29.71,WSW,248,0.0,0.0,83,0.00,,---,0.00,VWS V14.00,2013-09-21 19:33:00,
2013-09-21 15:34:00,65.5,60.2,29.74,SSW,202,0.0,0.0,83,0.00,,---,0.00,VWS V14.00,2013-09-21 19:34:00,
2013-09-21 15:35:00,65.5,60.2,29.74,SSW,202,0.0,0.0,83,0.00,,---,0.00,VWS V14.00,2013-09-21 19:35:00,
2013-09-21 15:37:00,65.5,60.2,29.74,SSW,202,0.0,0.0,83,0.00,,---,0.00,VWS V14.00,2013-09-21 19:37:00,
2013-09-21 15:38:00,65.7,60.4,29.71,WSW,248,0.0,0.0,83,0.00,,---,0.00,VWS V14.00,2013-09-21 19:38:00,
2013-09-21 15:39:00,65.5,60.2,29.74,SSW,202,0.0,0.0,83,0.00,,---,0.00,VWS V14.00,2013-09-21 19:39:00,
2013-09-21 15:41:00,65.5,60.2,29.74,SSW,202,0.0,0.0,83,0.00,,---,0.00,VWS V14.00,2013-09-21 19:41:00,
2013-09-21 15:42:00,65.5,60.2,29.74,WSW,248,1.1,1.1,83,0.00,,---,0.00,VWS V14.00,2013-09-21 19:42:00,
2013-09-21 15:43:00,65.8,60.9,29.71,West,270,0.0,0.0,84,0.00,,---,0.00,VWS V14.00,2013-09-21 19:43:00,
2013-09-21 15:44:00,65.5,60.2,29.74,WSW,248,0.0,0.0,83,0.00,,---,0.00,VWS V14.00,2013-09-21 19:44:00,
2013-09-21 15:45:00,65.5,60.2,29.74,WSW,248,0.0,0.0,83,0.00,,---,0.00,VWS V14.00,2013-09-21 19:45:00,
2013-09-21 15:48:00,65.8,60.9,29.71,West,270,0.0,0.0,84,0.00,,---,0.00,VWS V14.00,2013-09-21 19:48:00,
2013-09-21 15:49:00,65.7,60.4,29.71,WSW,248,0.0,0.0,83,0.00,,---,0.00,VWS V14.00,2013-09-21 19:49:00,
2013-09-21 15:50:00,65.7,60.4,29.71,WSW,248,0.0,0.0,83,0.00,,---,0.00,VWS V14.00,2013-09-21 19:50:00,
2013-09-21 15:51:00,65.7,60.4,29.71,WSW,248,0.0,0.0,83,0.00,,---,0.00,VWS V14.00,2013-09-21 19:51:00,
2013-09-21 15:53:00,65.8,60.9,29.71,West,270,0.0,0.0,84,0.00,,---,0.00,VWS V14.00,2013-09-21 19:53:00,
2013-09-21 15:56:00,65.7,60.4,29.71,WSW,248,0.0,0.0,83,0.00,,---,0.00,VWS V14.00,2013-09-21 19:56:00,
2013-09-21 15:57:00,65.7,60.4,29.71,WSW,248,0.0,0.0,83,0.00,,---,0.00,VWS V14.00,2013-09-21 19:57:00,
2013-09-21 15:58:00,65.8,61.2,29.68,West,270,0.0,0.0,85,0.00,,---,0.00,VWS V14.00,2013-09-21 19:58:00,
2013-09-21 15:59:00,65.7,60.4,29.71,WSW,248,0.0,1.6,83,0.00,,---,0.00,VWS V14.00,2013-09-21 19:59:00,
2013-09-21 16:02:00,65.7,60.4,29.71,WSW,248,0.0,0.0,83,0.00,,---,0.00,VWS V14.00,2013-09-21 20:02:00,
2013-09-21 16:03:00,66.0,61.4,29.68,West,270,0.0,0.0,85,0.00,,---,0.00,VWS V14.00,2013-09-21 20:03:00,
2013-09-21 16:04:00,65.8,60.9,29.71,West,270,0.0,2.0,84,0.00,,---,0.00,VWS V14.00,2013-09-21 20:04:00,
2013-09-21 16:05:00,65.8,60.9,29.71,West,270,0.0,0.0,84,0.00,,---,0.00,VWS V14.00,2013-09-21 20:05:00,
2013-09-21 16:07:00,65.8,60.9,29.71,West,270,0.0,0.0,84,0.00,,---,0.00,VWS V14.00,2013-09-21 20:07:00,
2013-09-21 16:08:00,66.0,61.4,29.68,West,270,0.0,0.0,85,0.00,,---,0.00,VWS V14.00,2013-09-21 20:08:00,
2013-09-21 16:09:00,65.8,60.9,29.71,West,270,0.0,0.0,84,0.00,,---,0.00,VWS V14.00,2013-09-21 20:09:00,
2013-09-21 16:12:00,65.8,60.9,29.71,West,270,0.0,0.0,84,0.00,,---,0.00,VWS V14.00,2013-09-21 20:12:00,
2013-09-21 16:13:00,66.0,61.4,29.71,West,270,0.0,0.0,85,0.00,,---,0.00,VWS V14.00,2013-09-21 20:13:00,
2013-09-21 16:14:00,65.8,60.9,29.71,West,270,0.0,0.0,84,0.00,,---,0.00,VWS V14.00,2013-09-21 20:14:00,
2013-09-21 16:16:00,65.8,60.9,29.71,West,270,0.0,0.0,84,0.00,,---,0.00,VWS V14.00,2013-09-21 20:16:00,
2013-09-21 16:18:00,66.0,61.7,29.71,SSW,202,0.0,0.0,86,0.00,,---,0.00,VWS V14.00,2013-09-21 20:18:00,
2013-09-21 16:19:00,65.8,60.9,29.68,West,270,0.0,0.0,84,0.00,,---,0.00,VWS V14.00,2013-09-21 20:19:00,
2013-09-21 16:20:00,65.8,61.2,29.68,West,270,0.0,0.0,85,0.00,,---,0.00,VWS V14.00,2013-09-21 20:20:00,
2013-09-21 16:22:00,66.0,61.4,29.68,West,270,0.0,0.0,85,0.00,,---,0.00,VWS V14.00,2013-09-21 20:22:00,
2013-09-21 16:23:00,65.8,61.5,29.71,SSW,202,0.0,0.0,86,0.04,,---,0.04,VWS V14.00,2013-09-21 20:23:00,
2013-09-21 16:25:00,66.0,61.4,29.68,West,270,0.0,0.0,85,0.00,,---,0.00,VWS V14.00,2013-09-21 20:25:00,
2013-09-21 16:26:00,66.0,61.4,29.68,West,270,0.0,0.0,85,0.00,,---,0.00,VWS V14.00,2013-09-21 20:26:00,
2013-09-21 16:28:00,65.8,61.5,29.71,SSW,202,0.0,0.0,86,0.04,,---,0.04,VWS V14.00,2013-09-21 20:28:00,
2013-09-21 16:29:00,66.0,61.4,29.68,West,270,0.0,0.0,85,0.00,,---,0.00,VWS V14.00,2013-09-21 20:29:00,
2013-09-21 16:30:00,66.0,61.4,29.68,West,270,0.0,0.0,85,0.00,,---,0.00,VWS V14.00,2013-09-21 20:30:00,
2013-09-21 16:31:00,66.0,61.4,29.68,West,270,0.0,0.0,85,0.00,,---,0.00,VWS V14.00,2013-09-21 20:31:00,
2013-09-21 16:32:00,66.0,61.4,29.71,West,270,0.0,0.0,85,0.00,,---,0.00,VWS V14.00,2013-09-21 20:32:00,
2013-09-21 16:33:00,65.7,61.4,29.71,SSW,202,0.0,0.0,86,0.04,,---,0.04,VWS V14.00,2013-09-21 20:33:00,
2013-09-21 16:34:00,66.0,61.4,29.71,West,270,0.0,0.0,85,0.00,,---,0.00,VWS V14.00,2013-09-21 20:34:00,
2013-09-21 16:35:00,66.0,61.4,29.71,West,270,0.0,0.0,85,0.00,,---,0.00,VWS V14.00,2013-09-21 20:35:00,
2013-09-21 16:36:00,66.0,61.4,29.71,West,270,0.0,0.0,85,0.00,,---,0.00,VWS V14.00,2013-09-21 20:36:00,
2013-09-21 16:37:00,66.0,61.4,29.71,SSW,202,0.0,0.9,85,0.00,,---,0.00,VWS V14.00,2013-09-21 20:37:00,
2013-09-21 16:38:00,65.7,61.4,29.71,SSW,202,0.0,0.0,86,0.04,,---,0.04,VWS V14.00,2013-09-21 20:38:00,
2013-09-21 16:39:00,66.0,61.7,29.71,SSW,202,0.0,0.0,86,0.00,,---,0.00,VWS V14.00,2013-09-21 20:39:00,
2013-09-21 16:40:00,66.0,61.7,29.71,SSW,202,0.0,0.0,86,0.00,,---,0.00,VWS V14.00,2013-09-21 20:40:00,
2013-09-21 16:41:00,66.0,61.7,29.71,SSW,202,0.0,0.0,86,0.00,,---,0.00,VWS V14.00,2013-09-21 20:41:00,
2013-09-21 16:42:00,66.0,61.7,29.71,SSW,202,0.0,0.0,86,0.00,,---,0.00,VWS V14.00,2013-09-21 20:42:00,
2013-09-21 16:43:00,65.7,61.4,29.71,SSW,202,0.0,0.0,86,0.04,,---,0.04,VWS V14.00,2013-09-21 20:43:00,
2013-09-21 16:44:00,66.0,61.7,29.71,SSW,202,0.0,0.0,86,0.04,,---,0.04,VWS V14.00,2013-09-21 20:44:00,
2013-09-21 16:45:00,65.8,61.5,29.71,SSW,202,0.0,0.0,86,0.04,,---,0.04,VWS V14.00,2013-09-21 20:45:00,
2013-09-21 16:46:00,65.8,61.5,29.71,SSW,202,0.0,0.0,86,0.04,,---,0.04,VWS V14.00,2013-09-21 20:46:00,
2013-09-21 16:47:00,65.8,61.5,29.71,SSW,202,0.0,0.0,86,0.04,,---,0.04,VWS V14.00,2013-09-21 20:47:00,
2013-09-21 16:48:00,65.7,61.4,29.71,SSW,202,0.0,0.0,86,0.08,,---,0.08,VWS V14.00,2013-09-21 20:48:00,
2013-09-21 16:49:00,65.8,61.5,29.71,SSW,202,0.0,0.0,86,0.04,,---,0.04,VWS V14.00,2013-09-21 20:49:00,
2013-09-21 16:50:00,65.8,61.5,29.71,SSW,202,0.0,0.0,86,0.04,,---,0.04,VWS V14.00,2013-09-21 20:50:00,
2013-09-21 16:51:00,65.8,61.5,29.71,SSW,202,0.0,0.0,86,0.04,,---,0.04,VWS V14.00,2013-09-21 20:51:00,
2013-09-21 16:52:00,65.8,61.5,29.71,SSW,202,0.0,0.0,86,0.04,,---,0.04,VWS V14.00,2013-09-21 20:52:00,
2013-09-21 16:53:00,65.7,61.7,29.71,SSW,202,0.0,0.0,87,0.08,,---,0.08,VWS V14.00,2013-09-21 20:53:00,
2013-09-21 16:54:00,65.7,61.4,29.71,SSW,202,0.0,0.0,86,0.04,,---,0.04,VWS V14.00,2013-09-21 20:54:00,
2013-09-21 16:55:00,65.7,61.4,29.71,SSW,202,0.0,0.0,86,0.04,,---,0.04,VWS V14.00,2013-09-21 20:55:00,
2013-09-21 16:56:00,65.7,61.4,29.71,SSW,202,0.0,0.0,86,0.04,,---,0.04,VWS V14.00,2013-09-21 20:56:00,
2013-09-21 16:57:00,65.7,61.4,29.71,SSW,202,0.0,0.0,86,0.04,,---,0.04,VWS V14.00,2013-09-21 20:57:00,
2013-09-21 16:58:00,65.7,61.7,29.71,SSW,202,0.0,0.0,87,0.08,,---,0.08,VWS V14.00,2013-09-21 20:58:00,
2013-09-21 16:59:00,65.7,61.4,29.71,SSW,202,0.0,0.0,86,0.04,,---,0.04,VWS V14.00,2013-09-21 20:59:00,
2013-09-21 17:00:00,65.7,61.4,29.71,SSW,202,0.0,0.0,86,0.04,,---,0.04,VWS V14.00,2013-09-21 21:00:00,
2013-09-21 17:01:00,65.7,61.4,29.71,SSW,202,0.0,0.0,86,0.04,,---,0.04,VWS V14.00,2013-09-21 21:01:00,
2013-09-21 17:03:00,65.7,61.4,29.71,SSW,202,0.0,0.0,86,0.04,,---,0.04,VWS V14.00,2013-09-21 21:03:00,
2013-09-21 17:04:00,65.7,61.7,29.71,WSW,248,0.0,0.0,87,0.08,,---,0.08,VWS V14.00,2013-09-21 21:04:00,
2013-09-21 17:05:00,65.7,61.4,29.71,SSW,202,0.0,0.0,86,0.04,,---,0.04,VWS V14.00,2013-09-21 21:05:00,
2013-09-21 17:06:00,65.7,61.4,29.71,SSW,202,0.0,0.0,86,0.08,,---,0.08,VWS V14.00,2013-09-21 21:06:00,
2013-09-21 17:07:00,65.7,61.4,29.71,SSW,202,0.0,0.0,86,0.08,,---,0.08,VWS V14.00,2013-09-21 21:07:00,
2013-09-21 17:08:00,65.7,61.4,29.71,SSW,202,0.0,0.0,86,0.08,,---,0.08,VWS V14.00,2013-09-21 21:08:00,
2013-09-21 17:09:00,65.7,61.7,29.71,WSW,248,0.0,0.0,87,0.08,,---,0.08,VWS V14.00,2013-09-21 21:09:00,
2013-09-21 17:10:00,65.7,61.4,29.71,SSW,202,0.0,0.0,86,0.08,,---,0.08,VWS V14.00,2013-09-21 21:10:00,
2013-09-21 17:11:00,65.7,61.4,29.71,SSW,202,0.0,0.0,86,0.08,,---,0.08,VWS V14.00,2013-09-21 21:11:00,
2013-09-21 17:12:00,65.7,61.7,29.71,SSW,202,0.0,0.0,87,0.08,,---,0.08,VWS V14.00,2013-09-21 21:12:00,
2013-09-21 17:13:00,65.7,61.7,29.71,SSW,202,0.0,0.0,87,0.08,,---,0.08,VWS V14.00,2013-09-21 21:13:00,
2013-09-21 17:14:00,65.7,61.7,29.71,WSW,248,0.0,0.0,87,0.13,,---,0.13,VWS V14.00,2013-09-21 21:14:00,
2013-09-21 17:15:00,65.7,61.7,29.71,SSW,202,0.0,0.0,87,0.08,,---,0.08,VWS V14.00,2013-09-21 21:15:00,
2013-09-21 17:16:00,65.7,61.7,29.71,SSW,202,0.0,0.0,87,0.08,,---,0.08,VWS V14.00,2013-09-21 21:16:00,
2013-09-21 17:18:00,65.7,61.7,29.71,SSW,202,0.0,0.0,87,0.08,,---,0.08,VWS V14.00,2013-09-21 21:18:00,
2013-09-21 17:19:00,65.7,62.0,29.71,WSW,248,0.0,0.0,88,0.13,,---,0.13,VWS V14.00,2013-09-21 21:19:00,
2013-09-21 17:20:00,65.7,61.7,29.71,SSW,202,0.0,0.0,87,0.08,,---,0.08,VWS V14.00,2013-09-21 21:20:00,
2013-09-21 17:21:00,65.7,61.7,29.71,SSW,202,0.0,0.0,87,0.08,,---,0.08,VWS V14.00,2013-09-21 21:21:00,
2013-09-21 17:22:00,65.7,61.7,29.71,SSW,202,0.0,0.0,87,0.08,,---,0.08,VWS V14.00,2013-09-21 21:22:00,
2013-09-21 17:23:00,65.7,61.7,29.71,SSW,202,0.0,0.0,87,0.08,,---,0.08,VWS V14.00,2013-09-21 21:23:00,
2013-09-21 17:24:00,65.5,61.8,29.71,WSW,248,0.0,0.0,88,0.13,,---,0.17,VWS V14.00,2013-09-21 21:24:00,
2013-09-21 17:25:00,65.7,61.7,29.71,WSW,248,0.0,0.9,87,0.08,,---,0.08,VWS V14.00,2013-09-21 21:25:00,
2013-09-21 17:26:00,65.7,61.7,29.71,WSW,248,0.0,0.0,87,0.08,,---,0.08,VWS V14.00,2013-09-21 21:26:00,
2013-09-21 17:27:00,65.7,61.7,29.71,WSW,248,0.0,0.0,87,0.08,,---,0.08,VWS V14.00,2013-09-21 21:27:00,
2013-09-21 17:28:00,65.7,61.7,29.71,WSW,248,0.0,0.0,87,0.08,,---,0.08,VWS V14.00,2013-09-21 21:28:00,
2013-09-21 17:29:00,65.5,62.2,29.71,WSW,248,0.0,0.0,89,0.17,,---,0.21,VWS V14.00,2013-09-21 21:29:00,
2013-09-21 17:30:00,65.7,61.7,29.71,WSW,248,0.0,0.0,87,0.08,,---,0.08,VWS V14.00,2013-09-21 21:30:00,
2013-09-21 17:31:00,65.7,61.7,29.71,WSW,248,0.0,0.0,87,0.08,,---,0.08,VWS V14.00,2013-09-21 21:31:00,
2013-09-21 17:32:00,65.7,61.7,29.71,WSW,248,0.0,0.0,87,0.08,,---,0.08,VWS V14.00,2013-09-21 21:32:00,
2013-09-21 17:33:00,65.7,61.7,29.71,WSW,248,0.0,0.0,87,0.08,,---,0.08,VWS V14.00,2013-09-21 21:33:00,
2013-09-21 17:34:00,65.5,62.2,29.71,WSW,248,0.0,0.0,89,0.17,,---,0.21,VWS V14.00,2013-09-21 21:34:00,
2013-09-21 17:35:00,65.7,61.7,29.71,WSW,248,0.0,0.0,87,0.13,,---,0.13,VWS V14.00,2013-09-21 21:35:00,
2013-09-21 17:36:00,65.7,62.0,29.71,WSW,248,0.0,0.0,88,0.13,,---,0.13,VWS V14.00,2013-09-21 21:36:00,
2013-09-21 17:37:00,65.7,62.0,29.71,WSW,248,0.0,0.0,88,0.13,,---,0.13,VWS V14.00,2013-09-21 21:37:00,
2013-09-21 17:38:00,65.7,62.0,29.71,WSW,248,0.0,0.0,88,0.13,,---,0.13,VWS V14.00,2013-09-21 21:38:00,
2013-09-21 17:39:00,65.5,62.2,29.71,West,270,2.0,2.5,89,0.21,,---,0.25,VWS V14.00,2013-09-21 21:39:00,
2013-09-21 17:40:00,65.7,62.0,29.71,WSW,248,0.0,0.0,88,0.13,,---,0.13,VWS V14.00,2013-09-21 21:40:00,
2013-09-21 17:41:00,65.7,62.0,29.71,WSW,248,0.0,0.0,88,0.13,,---,0.13,VWS V14.00,2013-09-21 21:41:00,
2013-09-21 17:42:00,65.7,62.0,29.71,WSW,248,0.0,0.0,88,0.13,,---,0.13,VWS V14.00,2013-09-21 21:42:00,
2013-09-21 17:43:00,65.7,62.0,29.71,WSW,248,0.0,0.0,88,0.13,,---,0.13,VWS V14.00,2013-09-21 21:43:00,
2013-09-21 17:44:00,65.1,61.8,29.71,South,180,2.0,4.3,89,0.29,,---,0.33,VWS V14.00,2013-09-21 21:44:00,
2013-09-21 17:45:00,65.7,62.0,29.71,WSW,248,0.0,0.0,88,0.13,,---,0.17,VWS V14.00,2013-09-21 21:45:00,
2013-09-21 17:46:00,65.5,61.8,29.71,WSW,248,0.0,0.0,88,0.13,,---,0.17,VWS V14.00,2013-09-21 21:46:00,
2013-09-21 17:47:00,65.7,62.0,29.71,WSW,248,0.0,0.0,88,0.13,,---,0.17,VWS V14.00,2013-09-21 21:47:00,
2013-09-21 17:48:00,65.7,62.0,29.71,WSW,248,0.0,0.0,88,0.13,,---,0.17,VWS V14.00,2013-09-21 21:48:00,
2013-09-21 17:49:00,64.6,60.6,29.71,WNW,292,2.0,3.8,87,0.25,,---,0.33,VWS V14.00,2013-09-21 21:49:00,
2013-09-21 17:50:00,65.5,62.2,29.71,WSW,248,0.0,0.0,89,0.13,,---,0.17,VWS V14.00,2013-09-21 21:50:00,
2013-09-21 17:51:00,65.5,62.2,29.71,WSW,248,0.0,0.0,89,0.17,,---,0.21,VWS V14.00,2013-09-21 21:51:00,
2013-09-21 17:52:00,65.5,62.2,29.71,WSW,248,0.0,0.0,89,0.17,,---,0.21,VWS V14.00,2013-09-21 21:52:00,
2013-09-21 17:53:00,65.5,62.2,29.71,WSW,248,0.0,0.0,89,0.17,,---,0.21,VWS V14.00,2013-09-21 21:53:00,
2013-09-21 17:54:00,63.9,59.6,29.71,ENE,68,2.5,2.5,86,0.30,,---,0.38,VWS V14.00,2013-09-21 21:54:00,
2013-09-21 17:55:00,65.5,62.2,29.71,WSW,248,0.0,0.0,89,0.17,,---,0.21,VWS V14.00,2013-09-21 21:55:00,
2013-09-21 17:56:00,65.5,62.2,29.71,WSW,248,0.0,0.0,89,0.17,,---,0.21,VWS V14.00,2013-09-21 21:56:00,
2013-09-21 17:57:00,65.5,62.2,29.71,WSW,248,1.3,1.3,89,0.17,,---,0.21,VWS V14.00,2013-09-21 21:57:00,
2013-09-21 17:58:00,65.5,62.2,29.71,WSW,248,0.0,1.3,89,0.17,,---,0.21,VWS V14.00,2013-09-21 21:58:00,
2013-09-21 17:59:00,63.3,58.7,29.71,West,270,2.7,2.7,85,0.30,,---,0.38,VWS V14.00,2013-09-21 21:59:00,
2013-09-21 18:00:00,65.5,62.2,29.71,SSW,202,0.0,0.0,89,0.21,,---,0.25,VWS V14.00,2013-09-21 22:00:00,
2013-09-21 18:01:00,65.5,62.2,29.71,West,270,2.2,2.5,89,0.21,,---,0.25,VWS V14.00,2013-09-21 22:01:00,
2013-09-21 18:02:00,65.5,62.2,29.71,NNW,338,1.3,2.9,89,0.21,,---,0.25,VWS V14.00,2013-09-21 22:02:00,
2013-09-21 18:03:00,65.5,62.2,29.71,ENE,68,1.1,4.0,89,0.25,,---,0.29,VWS V14.00,2013-09-21 22:03:00,
2013-09-21 18:04:00,63.0,58.4,29.71,SSE,158,1.1,3.8,85,0.30,,---,0.38,VWS V14.00,2013-09-21 22:04:00,
2013-09-21 18:05:00,65.5,62.2,29.71,WSW,248,2.7,3.1,89,0.29,,---,0.33,VWS V14.00,2013-09-21 22:05:00,
2013-09-21 18:06:00,65.1,61.8,29.71,South,180,2.0,4.3,89,0.29,,---,0.33,VWS V14.00,2013-09-21 22:06:00,
2013-09-21 18:07:00,65.1,61.8,29.71,West,270,3.1,3.1,89,0.25,,---,0.33,VWS V14.00,2013-09-21 22:07:00,
2013-09-21 18:08:00,64.9,61.6,29.71,WSW,248,2.0,3.1,89,0.25,,---,0.33,VWS V14.00,2013-09-21 22:08:00,
2013-09-21 18:09:00,62.4,57.9,29.71,ENE,68,2.5,4.3,85,0.33,,---,0.41,VWS V14.00,2013-09-21 22:09:00,
2013-09-21 18:10:00,64.8,61.1,29.71,NW,315,3.1,3.6,88,0.25,,---,0.33,VWS V14.00,2013-09-21 22:10:00,
2013-09-21 18:11:00,64.6,60.6,29.71,WNW,292,2.0,3.8,87,0.25,,---,0.33,VWS V14.00,2013-09-21 22:11:00,
2013-09-21 18:12:00,64.6,60.6,29.71,West,270,1.3,3.1,87,0.25,,---,0.33,VWS V14.00,2013-09-21 22:12:00,
2013-09-21 18:13:00,64.2,60.3,29.71,WSW,248,2.7,3.1,87,0.30,,---,0.38,VWS V14.00,2013-09-21 22:13:00,
2013-09-21 18:14:00,61.9,57.3,29.71,SE,135,3.1,3.1,85,0.28,,---,0.41,VWS V14.00,2013-09-21 22:14:00,
2013-09-21 18:15:00,63.9,59.6,29.71,WSW,248,1.6,2.9,86,0.30,,---,0.38,VWS V14.00,2013-09-21 22:15:00,
2013-09-21 18:16:00,63.9,59.6,29.71,ENE,68,2.5,2.5,86,0.30,,---,0.38,VWS V14.00,2013-09-21 22:16:00,
2013-09-21 18:17:00,63.7,59.4,29.71,West,270,2.5,2.7,86,0.30,,---,0.38,VWS V14.00,2013-09-21 22:17:00,
2013-09-21 18:18:00,63.7,59.4,29.71,WNW,292,2.7,2.7,86,0.30,,---,0.38,VWS V14.00,2013-09-21 22:18:00,
2013-09-21 18:19:00,61.7,57.5,29.71,SSE,158,0.0,0.0,86,0.28,,---,0.41,VWS V14.00,2013-09-21 22:19:00,
2013-09-21 18:20:00,63.5,58.9,29.71,SSW,202,0.0,2.0,85,0.30,,---,0.38,VWS V14.00,2013-09-21 22:20:00,
2013-09-21 18:21:00,63.3,58.7,29.71,West,270,2.7,2.7,85,0.30,,---,0.38,VWS V14.00,2013-09-21 22:21:00,
2013-09-21 18:22:00,63.1,58.6,29.71,ENE,68,1.1,4.9,85,0.30,,---,0.38,VWS V14.00,2013-09-21 22:22:00,
2013-09-21 18:23:00,63.1,58.6,29.71,WSW,248,3.4,3.4,85,0.30,,---,0.38,VWS V14.00,2013-09-21 22:23:00,
2013-09-21 18:24:00,61.5,57.3,29.71,SSE,158,0.0,0.0,86,0.29,,---,0.46,VWS V14.00,2013-09-21 22:24:00,
2013-09-21 18:25:00,63.0,58.4,29.71,SSW,202,0.9,2.9,85,0.30,,---,0.38,VWS V14.00,2013-09-21 22:25:00,
2013-09-21 18:26:00,63.0,58.4,29.71,SSE,158,1.1,3.8,85,0.30,,---,0.38,VWS V14.00,2013-09-21 22:26:00,
2013-09-21 18:27:00,62.8,58.2,29.71,SSW,202,2.7,2.7,85,0.30,,---,0.38,VWS V14.00,2013-09-21 22:27:00,
2013-09-21 18:28:00,62.8,58.2,29.71,South,180,2.9,3.4,85,0.30,,---,0.38,VWS V14.00,2013-09-21 22:28:00,
2013-09-21 18:29:00,61.5,57.9,29.71,South,180,0.0,2.2,88,0.29,,---,0.46,VWS V14.00,2013-09-21 22:29:00,
2013-09-21 18:30:00,62.6,58.0,29.71,SSW,202,4.3,4.7,85,0.30,,---,0.38,VWS V14.00,2013-09-21 22:30:00,
2013-09-21 18:31:00,62.4,57.9,29.71,ENE,68,2.5,4.3,85,0.33,,---,0.41,VWS V14.00,2013-09-21 22:31:00,
2013-09-21 18:32:00,62.2,57.7,29.71,SE,135,1.6,3.6,85,0.33,,---,0.41,VWS V14.00,2013-09-21 22:32:00,
2013-09-21 18:33:00,62.2,57.7,29.71,SSW,202,2.2,2.2,85,0.33,,---,0.41,VWS V14.00,2013-09-21 22:33:00,
2013-09-21 18:34:00,61.3,58.1,29.71,South,180,0.0,0.0,89,0.29,,---,0.50,VWS V14.00,2013-09-21 22:34:00,
2013-09-21 18:35:00,62.1,57.5,29.71,SSE,158,2.2,3.4,85,0.33,,---,0.41,VWS V14.00,2013-09-21 22:35:00,
2013-09-21 18:36:00,61.9,57.3,29.71,SE,135,3.1,3.1,85,0.28,,---,0.41,VWS V14.00,2013-09-21 22:36:00,
2013-09-21 18:37:00,61.9,57.3,29.71,SSW,202,2.0,3.1,85,0.28,,---,0.41,VWS V14.00,2013-09-21 22:37:00,
2013-09-21 18:38:00,61.9,57.7,29.71,SSW,202,0.0,2.2,86,0.28,,---,0.41,VWS V14.00,2013-09-21 22:38:00,
2013-09-21 18:39:00,61.3,58.1,29.71,SSW,202,0.0,0.0,89,0.25,,---,0.50,VWS V14.00,2013-09-21 22:39:00,
2013-09-21 18:40:00,61.7,57.5,29.71,SSE,158,0.0,2.7,86,0.28,,---,0.41,VWS V14.00,2013-09-21 22:40:00,
2013-09-21 18:41:00,61.7,57.5,29.71,SSE,158,0.0,0.0,86,0.28,,---,0.41,VWS V14.00,2013-09-21 22:41:00,
2013-09-21 18:42:00,61.7,57.5,29.71,SSE,158,0.0,0.0,86,0.28,,---,0.41,VWS V14.00,2013-09-21 22:42:00,
2013-09-21 18:43:00,61.5,57.3,29.71,SSE,158,0.0,0.0,86,0.28,,---,0.41,VWS V14.00,2013-09-21 22:43:00,
2013-09-21 18:44:00,61.3,58.1,29.71,SSW,202,0.0,0.0,89,0.17,,---,0.50,VWS V14.00,2013-09-21 22:44:00,
2013-09-21 18:45:00,61.5,57.3,29.71,SSE,158,0.0,0.0,86,0.24,,---,0.41,VWS V14.00,2013-09-21 22:45:00,
2013-09-21 18:46:00,61.5,57.3,29.71,SSE,158,0.0,0.0,86,0.29,,---,0.46,VWS V14.00,2013-09-21 22:46:00,
2013-09-21 18:47:00,61.5,57.3,29.71,SSE,158,0.0,0.0,86,0.29,,---,0.46,VWS V14.00,2013-09-21 22:47:00,
2013-09-21 18:48:00,61.5,57.6,29.71,SSE,158,0.0,0.0,87,0.29,,---,0.46,VWS V14.00,2013-09-21 22:48:00,
2013-09-21 18:49:00,61.3,58.1,29.71,SSW,202,0.0,0.0,89,0.17,,---,0.50,VWS V14.00,2013-09-21 22:49:00,
2013-09-21 18:50:00,61.5,57.6,29.71,South,180,2.2,2.2,87,0.29,,---,0.46,VWS V14.00,2013-09-21 22:50:00,
2013-09-21 18:51:00,61.5,57.9,29.71,South,180,0.0,2.2,88,0.29,,---,0.46,VWS V14.00,2013-09-21 22:51:00,
2013-09-21 18:52:00,61.5,57.9,29.71,South,180,0.0,1.1,88,0.25,,---,0.46,VWS V14.00,2013-09-21 22:52:00,
2013-09-21 18:53:00,61.3,58.1,29.71,South,180,0.0,0.0,89,0.29,,---,0.50,VWS V14.00,2013-09-21 22:53:00,
2013-09-21 18:54:00,61.3,58.1,29.71,SSW,202,0.0,0.0,89,0.12,,---,0.50,VWS V14.00,2013-09-21 22:54:00,
2013-09-21 18:55:00,61.3,58.1,29.71,South,180,0.0,0.0,89,0.29,,---,0.50,VWS V14.00,2013-09-21 22:55:00,
2013-09-21 18:56:00,61.3,58.1,29.71,South,180,0.0,0.0,89,0.29,,---,0.50,VWS V14.00,2013-09-21 22:56:00,
2013-09-21 18:57:00,61.3,58.1,29.71,South,180,0.0,0.0,89,0.29,,---,0.50,VWS V14.00,2013-09-21 22:57:00,
2013-09-21 18:58:00,61.3,58.1,29.71,SSW,202,0.0,0.0,89,0.29,,---,0.50,VWS V14.00,2013-09-21 22:58:00,
2013-09-21 18:59:00,61.3,58.1,29.71,SSW,202,0.0,0.0,89,0.16,,---,0.54,VWS V14.00,2013-09-21 22:59:00,
2013-09-21 19:00:00,61.3,58.1,29.71,SSW,202,0.0,0.0,89,0.29,,---,0.50,VWS V14.00,2013-09-21 23:00:00,
2013-09-21 19:01:00,61.3,58.1,29.71,SSW,202,0.0,0.0,89,0.25,,---,0.50,VWS V14.00,2013-09-21 23:01:00,
2013-09-21 19:02:00,61.3,58.1,29.71,SSW,202,0.0,0.0,89,0.25,,---,0.50,VWS V14.00,2013-09-21 23:02:00,
2013-09-21 19:03:00,61.3,58.1,29.71,SSW,202,0.0,0.0,89,0.25,,---,0.50,VWS V14.00,2013-09-21 23:03:00,
2013-09-21 19:04:00,61.3,58.4,29.71,SSW,202,0.0,0.0,90,0.16,,---,0.54,VWS V14.00,2013-09-21 23:04:00,
2013-09-21 19:05:00,61.3,58.1,29.71,SSW,202,0.0,0.0,89,0.21,,---,0.50,VWS V14.00,2013-09-21 23:05:00,
2013-09-21 19:06:00,61.3,58.1,29.71,SSW,202,0.0,0.0,89,0.17,,---,0.50,VWS V14.00,2013-09-21 23:06:00,
2013-09-21 19:07:00,61.3,58.1,29.71,SSW,202,0.0,0.0,89,0.17,,---,0.50,VWS V14.00,2013-09-21 23:07:00,
2013-09-21 19:08:00,61.3,58.1,29.71,SSW,202,0.0,0.0,89,0.17,,---,0.50,VWS V14.00,2013-09-21 23:08:00,
2013-09-21 19:09:00,61.2,58.2,29.71,SSW,202,0.0,0.0,90,0.16,,---,0.54,VWS V14.00,2013-09-21 23:09:00,
2013-09-21 19:10:00,61.3,58.1,29.71,SSW,202,0.0,0.0,89,0.17,,---,0.50,VWS V14.00,2013-09-21 23:10:00,
2013-09-21 19:11:00,61.3,58.1,29.71,SSW,202,0.0,0.0,89,0.17,,---,0.50,VWS V14.00,2013-09-21 23:11:00,
2013-09-21 19:12:00,61.3,58.1,29.71,SSW,202,0.0,0.0,89,0.17,,---,0.50,VWS V14.00,2013-09-21 23:12:00,
2013-09-21 19:13:00,61.3,58.1,29.71,SSW,202,0.0,0.0,89,0.17,,---,0.50,VWS V14.00,2013-09-21 23:13:00,
2013-09-21 19:14:00,61.2,58.2,29.71,SSW,202,0.0,0.0,90,0.13,,---,0.54,VWS V14.00,2013-09-21 23:14:00,
2013-09-21 19:15:00,61.3,58.1,29.71,SSW,202,0.0,0.0,89,0.12,,---,0.50,VWS V14.00,2013-09-21 23:15:00,
2013-09-21 19:16:00,61.3,58.1,29.71,SSW,202,0.0,0.0,89,0.12,,---,0.50,VWS V14.00,2013-09-21 23:16:00,
2013-09-21 19:17:00,61.3,58.1,29.71,SSW,202,0.0,0.0,89,0.16,,---,0.54,VWS V14.00,2013-09-21 23:17:00,
2013-09-21 19:18:00,61.3,58.1,29.71,SSW,202,0.0,0.0,89,0.16,,---,0.54,VWS V14.00,2013-09-21 23:18:00,
2013-09-21 19:19:00,61.2,58.2,29.71,SSW,202,0.0,0.0,90,0.13,,---,0.54,VWS V14.00,2013-09-21 23:19:00,
2013-09-21 19:20:00,61.3,58.1,29.71,SSW,202,0.0,0.0,89,0.16,,---,0.54,VWS V14.00,2013-09-21 23:20:00,
2013-09-21 19:21:00,61.3,58.1,29.71,SSW,202,0.0,0.0,89,0.16,,---,0.54,VWS V14.00,2013-09-21 23:21:00,
2013-09-21 19:22:00,61.3,58.1,29.71,SSW,202,0.0,0.0,89,0.16,,---,0.54,VWS V14.00,2013-09-21 23:22:00,
2013-09-21 19:23:00,61.3,58.1,29.71,SSW,202,0.0,0.0,89,0.16,,---,0.54,VWS V14.00,2013-09-21 23:23:00,
2013-09-21 19:24:00,61.2,58.2,29.71,SSW,202,0.0,0.0,90,0.13,,---,0.54,VWS V14.00,2013-09-21 23:24:00,
2013-09-21 19:25:00,61.3,58.4,29.71,SSW,202,0.0,0.0,90,0.16,,---,0.54,VWS V14.00,2013-09-21 23:25:00,
2013-09-21 19:26:00,61.3,58.4,29.71,SSW,202,0.0,0.0,90,0.16,,---,0.54,VWS V14.00,2013-09-21 23:26:00,
2013-09-21 19:27:00,61.3,58.4,29.71,SSW,202,0.0,0.0,90,0.16,,---,0.54,VWS V14.00,2013-09-21 23:27:00,
2013-09-21 19:28:00,61.3,58.4,29.71,SSW,202,0.0,0.0,90,0.16,,---,0.54,VWS V14.00,2013-09-21 23:28:00,
2013-09-21 19:29:00,61.2,58.2,29.71,SSW,202,0.0,0.0,90,0.08,,---,0.54,VWS V14.00,2013-09-21 23:29:00,
2013-09-21 19:30:00,61.3,58.4,29.71,SSW,202,0.0,0.0,90,0.16,,---,0.54,VWS V14.00,2013-09-21 23:30:00,
2013-09-21 19:31:00,61.2,58.2,29.71,SSW,202,0.0,0.0,90,0.16,,---,0.54,VWS V14.00,2013-09-21 23:31:00,
2013-09-21 19:32:00,61.2,58.2,29.71,SSW,202,0.0,0.0,90,0.13,,---,0.54,VWS V14.00,2013-09-21 23:32:00,
2013-09-21 19:33:00,61.2,58.2,29.71,SSW,202,0.0,0.0,90,0.13,,---,0.54,VWS V14.00,2013-09-21 23:33:00,
2013-09-21 19:34:00,61.2,58.2,29.71,SSW,202,0.0,0.0,90,0.08,,---,0.58,VWS V14.00,2013-09-21 23:34:00,
2013-09-21 19:35:00,61.2,57.9,29.71,SSW,202,0.0,0.0,89,0.13,,---,0.54,VWS V14.00,2013-09-21 23:35:00,
2013-09-21 19:36:00,61.2,58.2,29.71,SSW,202,0.0,0.0,90,0.13,,---,0.54,VWS V14.00,2013-09-21 23:36:00,
2013-09-21 19:38:00,61.2,58.2,29.71,SSW,202,0.0,0.0,90,0.13,,---,0.54,VWS V14.00,2013-09-21 23:38:00,
2013-09-21 19:39:00,61.2,58.2,29.71,SSW,202,0.0,0.0,90,0.08,,---,0.58,VWS V14.00,2013-09-21 23:39:00,
2013-09-21 19:40:00,61.2,58.2,29.71,SSW,202,0.0,0.0,90,0.13,,---,0.54,VWS V14.00,2013-09-21 23:40:00,
2013-09-21 19:41:00,61.2,58.2,29.71,SSW,202,0.0,0.0,90,0.13,,---,0.54,VWS V14.00,2013-09-21 23:41:00,
2013-09-21 19:42:00,61.2,58.2,29.71,SSW,202,0.0,0.0,90,0.13,,---,0.54,VWS V14.00,2013-09-21 23:42:00,
2013-09-21 19:43:00,61.2,58.2,29.71,SSW,202,0.0,0.0,90,0.13,,---,0.54,VWS V14.00,2013-09-21 23:43:00,
2013-09-21 19:44:00,61.2,58.2,29.71,SSW,202,0.0,0.0,90,0.08,,---,0.58,VWS V14.00,2013-09-21 23:44:00,
2013-09-21 19:45:00,61.2,58.2,29.71,SSW,202,0.0,0.0,90,0.13,,---,0.54,VWS V14.00,2013-09-21 23:45:00,
2013-09-21 19:46:00,61.2,58.2,29.71,SSW,202,0.0,0.0,90,0.13,,---,0.54,VWS V14.00,2013-09-21 23:46:00,
2013-09-21 19:47:00,61.2,58.2,29.71,SSW,202,0.0,0.0,90,0.08,,---,0.54,VWS V14.00,2013-09-21 23:47:00,
2013-09-21 19:48:00,61.2,58.2,29.71,SSW,202,0.0,0.0,90,0.08,,---,0.54,VWS V14.00,2013-09-21 23:48:00,
2013-09-21 19:49:00,61.0,58.0,29.71,SSW,202,0.0,0.0,90,0.08,,---,0.58,VWS V14.00,2013-09-21 23:49:00,
2013-09-21 19:50:00,61.2,58.2,29.71,SSW,202,0.0,0.0,90,0.08,,---,0.54,VWS V14.00,2013-09-21 23:50:00,
2013-09-21 19:51:00,61.2,58.2,29.71,SSW,202,0.0,0.0,90,0.08,,---,0.54,VWS V14.00,2013-09-21 23:51:00,
2013-09-21 19:52:00,61.2,58.2,29.71,SSW,202,0.0,0.0,90,0.08,,---,0.54,VWS V14.00,2013-09-21 23:52:00,
2013-09-21 19:53:00,61.2,58.2,29.71,SSW,202,0.0,0.0,90,0.12,,---,0.58,VWS V14.00,2013-09-21 23:53:00,
2013-09-21 19:54:00,61.2,58.5,29.71,SSW,202,0.0,0.0,91,0.08,,---,0.58,VWS V14.00,2013-09-21 23:54:00,
2013-09-21 19:55:00,61.2,58.2,29.71,SSW,202,0.0,0.0,90,0.08,,---,0.58,VWS V14.00,2013-09-21 23:55:00,
2013-09-21 19:56:00,61.2,58.2,29.71,SSW,202,0.0,0.0,90,0.08,,---,0.58,VWS V14.00,2013-09-21 23:56:00,
2013-09-21 19:57:00,61.2,58.2,29.71,SSW,202,0.0,0.0,90,0.08,,---,0.58,VWS V14.00,2013-09-21 23:57:00,
2013-09-21 19:58:00,61.2,58.2,29.71,SSW,202,0.0,0.0,90,0.08,,---,0.58,VWS V14.00,2013-09-21 23:58:00,
2013-09-21 19:59:00,61.2,58.5,29.74,SSW,202,0.0,0.0,91,0.04,,---,0.58,VWS V14.00,2013-09-21 23:59:00,
2013-09-21 20:00:00,61.2,58.2,29.71,SSW,202,0.0,0.0,90,0.08,,---,0.58,VWS V14.00,2013-09-22 00:00:00,
2013-09-21 20:01:00,61.2,58.2,29.71,SSW,202,0.0,0.0,90,0.08,,---,0.58,VWS V14.00,2013-09-22 00:01:00,
2013-09-21 20:02:00,61.2,58.2,29.71,SSW,202,0.0,0.0,90,0.08,,---,0.58,VWS V14.00,2013-09-22 00:02:00,
2013-09-21 20:03:00,61.2,58.2,29.71,SSW,202,0.0,0.0,90,0.08,,---,0.58,VWS V14.00,2013-09-22 00:03:00,
2013-09-21 20:04:00,61.2,58.5,29.74,SSW,202,0.0,0.0,91,0.04,,---,0.58,VWS V14.00,2013-09-22 00:04:00,
2013-09-21 20:05:00,61.2,58.2,29.71,SSW,202,0.0,0.0,90,0.08,,---,0.58,VWS V14.00,2013-09-22 00:05:00,
2013-09-21 20:06:00,61.2,58.2,29.71,SSW,202,0.0,0.0,90,0.08,,---,0.58,VWS V14.00,2013-09-22 00:06:00,
2013-09-21 20:07:00,61.2,58.2,29.71,SSW,202,0.0,0.0,90,0.08,,---,0.58,VWS V14.00,2013-09-22 00:07:00,
2013-09-21 20:08:00,61.2,58.2,29.71,SSW,202,0.0,0.0,90,0.08,,---,0.58,VWS V14.00,2013-09-22 00:08:00,
2013-09-21 20:09:00,61.2,58.5,29.74,SSW,202,0.0,0.0,91,0.04,,---,0.58,VWS V14.00,2013-09-22 00:09:00,
2013-09-21 20:10:00,61.0,58.0,29.71,SSW,202,0.0,0.0,90,0.08,,---,0.58,VWS V14.00,2013-09-22 00:10:00,
2013-09-21 20:11:00,61.0,58.0,29.71,SSW,202,0.0,0.0,90,0.08,,---,0.58,VWS V14.00,2013-09-22 00:11:00,
2013-09-21 20:12:00,61.0,58.0,29.71,SSW,202,0.0,0.0,90,0.08,,---,0.58,VWS V14.00,2013-09-22 00:12:00,
2013-09-21 20:13:00,61.0,58.0,29.71,SSW,202,0.0,0.0,90,0.08,,---,0.58,VWS V14.00,2013-09-22 00:13:00,
2013-09-21 20:14:00,61.2,58.5,29.74,SSW,202,0.0,0.0,91,0.04,,---,0.58,VWS V14.00,2013-09-22 00:14:00,
2013-09-21 20:15:00,61.2,58.5,29.71,SSW,202,0.0,0.0,91,0.08,,---,0.58,VWS V14.00,2013-09-22 00:15:00,
2013-09-21 20:16:00,61.2,58.5,29.71,SSW,202,0.0,0.0,91,0.08,,---,0.58,VWS V14.00,2013-09-22 00:16:00,
2013-09-21 20:17:00,61.2,58.5,29.74,SSW,202,0.0,0.0,91,0.08,,---,0.58,VWS V14.00,2013-09-22 00:17:00,
2013-09-21 20:18:00,61.2,58.5,29.74,SSW,202,0.0,0.0,91,0.04,,---,0.58,VWS V14.00,2013-09-22 00:18:00,
2013-09-21 20:19:00,61.2,58.5,29.74,SSW,202,0.0,0.0,91,0.04,,---,0.58,VWS V14.00,2013-09-22 00:19:00,
2013-09-21 20:20:00,61.2,58.5,29.74,SSW,202,0.0,0.0,91,0.04,,---,0.58,VWS V14.00,2013-09-22 00:20:00,
2013-09-21 20:21:00,61.2,58.5,29.74,SSW,202,0.0,0.0,91,0.04,,---,0.58,VWS V14.00,2013-09-22 00:21:00,
2013-09-21 20:22:00,61.2,58.5,29.74,SSW,202,0.0,0.0,91,0.04,,---,0.58,VWS V14.00,2013-09-22 00:22:00,
2013-09-21 20:23:00,61.2,58.5,29.74,SSW,202,0.0,0.0,91,0.04,,---,0.58,VWS V14.00,2013-09-22 00:23:00,
2013-09-21 20:24:00,61.0,58.6,29.74,SSW,202,0.0,0.0,92,0.04,,---,0.58,VWS V14.00,2013-09-22 00:24:00,
2013-09-21 20:25:00,61.2,58.5,29.74,SSW,202,0.0,0.0,91,0.04,,---,0.58,VWS V14.00,2013-09-22 00:25:00,
2013-09-21 20:26:00,61.2,58.5,29.74,SSW,202,0.0,0.0,91,0.04,,---,0.58,VWS V14.00,2013-09-22 00:26:00,
2013-09-21 20:27:00,61.2,58.5,29.74,SSW,202,0.0,0.0,91,0.04,,---,0.58,VWS V14.00,2013-09-22 00:27:00,
2013-09-21 20:28:00,61.2,58.5,29.74,SSW,202,0.0,0.0,91,0.04,,---,0.58,VWS V14.00,2013-09-22 00:28:00,
2013-09-21 20:29:00,61.0,58.6,29.74,SSW,202,0.0,0.0,92,0.04,,---,0.58,VWS V14.00,2013-09-22 00:29:00,
2013-09-21 20:30:00,61.2,58.5,29.74,SSW,202,0.0,0.0,91,0.04,,---,0.58,VWS V14.00,2013-09-22 00:30:00,
2013-09-21 20:31:00,61.2,58.5,29.74,SSW,202,0.0,0.0,91,0.04,,---,0.58,VWS V14.00,2013-09-22 00:31:00,
2013-09-21 20:32:00,61.2,58.5,29.74,SSW,202,0.0,0.0,91,0.04,,---,0.58,VWS V14.00,2013-09-22 00:32:00,
2013-09-21 20:33:00,61.2,58.5,29.74,SSW,202,0.0,0.0,91,0.04,,---,0.58,VWS V14.00,2013-09-22 00:33:00,
2013-09-21 20:34:00,61.0,58.6,29.74,SSW,202,0.0,0.0,92,0.00,,---,0.58,VWS V14.00,2013-09-22 00:34:00,
2013-09-21 20:35:00,61.2,58.5,29.74,SSW,202,0.0,0.0,91,0.04,,---,0.58,VWS V14.00,2013-09-22 00:35:00,
2013-09-21 20:36:00,61.2,58.5,29.74,SSW,202,0.0,0.0,91,0.04,,---,0.58,VWS V14.00,2013-09-22 00:36:00,
2013-09-21 20:37:00,61.2,58.5,29.74,SSW,202,0.0,0.0,91,0.04,,---,0.58,VWS V14.00,2013-09-22 00:37:00,
2013-09-21 20:38:00,61.2,58.5,29.74,SSW,202,0.0,0.0,91,0.04,,---,0.58,VWS V14.00,2013-09-22 00:38:00,
2013-09-21 20:39:00,61.0,58.6,29.74,SSW,202,0.0,0.0,92,0.00,,---,0.58,VWS V14.00,2013-09-22 00:39:00,
2013-09-21 20:40:00,61.2,58.5,29.74,SSW,202,0.0,0.0,91,0.04,,---,0.58,VWS V14.00,2013-09-22 00:40:00,
2013-09-21 20:41:00,61.2,58.5,29.74,SSW,202,0.0,0.0,91,0.04,,---,0.58,VWS V14.00,2013-09-22 00:41:00,
2013-09-21 20:42:00,61.2,58.5,29.74,SSW,202,0.0,0.0,91,0.04,,---,0.58,VWS V14.00,2013-09-22 00:42:00,
2013-09-21 20:43:00,61.0,58.3,29.74,SSW,202,0.0,0.0,91,0.04,,---,0.58,VWS V14.00,2013-09-22 00:43:00,
2013-09-21 20:44:00,61.0,58.6,29.76,SSW,202,0.0,0.0,92,0.00,,---,0.58,VWS V14.00,2013-09-22 00:44:00,
2013-09-21 20:45:00,61.0,58.3,29.74,SSW,202,0.0,0.0,91,0.04,,---,0.58,VWS V14.00,2013-09-22 00:45:00,
2013-09-21 20:46:00,61.0,58.6,29.74,SSW,202,0.0,0.0,92,0.04,,---,0.58,VWS V14.00,2013-09-22 00:46:00,
2013-09-21 20:47:00,61.0,58.6,29.74,SSW,202,0.0,0.0,92,0.04,,---,0.58,VWS V14.00,2013-09-22 00:47:00,
2013-09-21 20:48:00,61.0,58.6,29.74,SSW,202,0.0,0.0,92,0.04,,---,0.58,VWS V14.00,2013-09-22 00:48:00,
2013-09-21 20:49:00,60.8,58.5,29.76,SSW,202,0.0,0.0,92,0.00,,---,0.58,VWS V14.00,2013-09-22 00:49:00,
2013-09-21 20:50:00,61.0,58.6,29.74,SSW,202,0.0,0.0,92,0.04,,---,0.58,VWS V14.00,2013-09-22 00:50:00,
2013-09-21 20:51:00,61.0,58.6,29.74,SSW,202,0.0,0.0,92,0.04,,---,0.58,VWS V14.00,2013-09-22 00:51:00,
2013-09-21 20:52:00,61.0,58.6,29.74,SSW,202,0.0,0.0,92,0.04,,---,0.58,VWS V14.00,2013-09-22 00:52:00,
2013-09-21 20:53:00,61.0,58.6,29.74,SSW,202,0.0,0.0,92,0.04,,---,0.58,VWS V14.00,2013-09-22 00:53:00,
2013-09-21 20:54:00,61.0,58.6,29.76,SSW,202,0.0,0.0,92,0.00,,---,0.58,VWS V14.00,2013-09-22 00:54:00,
2013-09-21 20:55:00,61.0,58.6,29.74,SSW,202,0.0,0.0,92,0.00,,---,0.58,VWS V14.00,2013-09-22 00:55:00,
2013-09-21 20:56:00,61.0,58.6,29.74,SSW,202,0.0,0.0,92,0.00,,---,0.58,VWS V14.00,2013-09-22 00:56:00,
2013-09-21 20:57:00,61.0,58.6,29.74,SSW,202,0.0,0.0,92,0.00,,---,0.58,VWS V14.00,2013-09-22 00:57:00,
2013-09-21 20:58:00,61.0,58.6,29.74,SSW,202,0.0,0.0,92,0.00,,---,0.58,VWS V14.00,2013-09-22 00:58:00,
2013-09-21 20:59:00,61.0,58.6,29.76,SSW,202,0.0,0.0,92,0.00,,---,0.58,VWS V14.00,2013-09-22 00:59:00,
2013-09-21 21:00:00,61.0,58.6,29.74,SSW,202,0.0,0.0,92,0.00,,---,0.58,VWS V14.00,2013-09-22 01:00:00,
2013-09-21 21:01:00,61.0,58.6,29.74,SSW,202,0.0,0.0,92,0.00,,---,0.58,VWS V14.00,2013-09-22 01:01:00,
2013-09-21 21:02:00,61.0,58.6,29.76,SSW,202,0.0,0.0,92,0.00,,---,0.58,VWS V14.00,2013-09-22 01:02:00,
2013-09-21 21:03:00,61.0,58.6,29.76,SSW,202,0.0,0.0,92,0.00,,---,0.58,VWS V14.00,2013-09-22 01:03:00,
2013-09-21 21:04:00,60.8,58.5,29.76,SSW,202,0.0,0.0,92,0.00,,---,0.58,VWS V14.00,2013-09-22 01:04:00,
2013-09-21 21:05:00,61.0,58.6,29.76,SSW,202,0.0,0.0,92,0.00,,---,0.58,VWS V14.00,2013-09-22 01:05:00,
2013-09-21 21:06:00,61.0,58.6,29.76,SSW,202,0.0,0.0,92,0.00,,---,0.58,VWS V14.00,2013-09-22 01:06:00,
2013-09-21 21:07:00,61.0,58.6,29.76,SSW,202,0.0,0.0,92,0.00,,---,0.58,VWS V14.00,2013-09-22 01:07:00,
2013-09-21 21:08:00,61.0,58.6,29.76,SSW,202,0.0,0.0,92,0.00,,---,0.58,VWS V14.00,2013-09-22 01:08:00,
2013-09-21 21:09:00,61.0,58.6,29.76,SSW,202,0.0,0.0,92,0.00,,---,0.58,VWS V14.00,2013-09-22 01:09:00,
2013-09-21 21:10:00,60.8,58.5,29.76,SSW,202,0.0,0.0,92,0.00,,---,0.58,VWS V14.00,2013-09-22 01:10:00,
2013-09-21 21:11:00,60.8,58.5,29.76,SSW,202,0.0,0.0,92,0.00,,---,0.58,VWS V14.00,2013-09-22 01:11:00,
2013-09-21 21:12:00,60.8,58.5,29.76,SSW,202,0.0,0.0,92,0.00,,---,0.58,VWS V14.00,2013-09-22 01:12:00,
2013-09-21 21:13:00,60.8,58.5,29.76,SSW,202,0.0,0.0,92,0.00,,---,0.58,VWS V14.00,2013-09-22 01:13:00,
2013-09-21 21:14:00,60.8,58.5,29.76,SSW,202,0.0,0.0,92,0.00,,---,0.58,VWS V14.00,2013-09-22 01:14:00,
2013-09-21 21:15:00,61.0,58.6,29.76,SSW,202,0.0,0.0,92,0.00,,---,0.58,VWS V14.00,2013-09-22 01:15:00,
2013-09-21 21:16:00,61.0,58.6,29.76,SSW,202,0.0,0.0,92,0.00,,---,0.58,VWS V14.00,2013-09-22 01:16:00,
2013-09-21 21:17:00,61.0,58.6,29.76,SSW,202,0.0,0.0,92,0.00,,---,0.58,VWS V14.00,2013-09-22 01:17:00,
2013-09-21 21:18:00,61.0,58.6,29.76,SSW,202,0.0,0.0,92,0.00,,---,0.58,VWS V14.00,2013-09-22 01:18:00,
2013-09-21 21:19:00,60.8,58.5,29.76,SSW,202,0.0,0.0,92,0.00,,---,0.58,VWS V14.00,2013-09-22 01:19:00,
2013-09-21 21:20:00,61.0,58.6,29.76,SSW,202,0.0,0.0,92,0.00,,---,0.58,VWS V14.00,2013-09-22 01:20:00,
2013-09-21 21:21:00,61.0,58.6,29.76,SSW,202,0.0,0.0,92,0.00,,---,0.58,VWS V14.00,2013-09-22 01:21:00,
2013-09-21 21:22:00,61.0,58.6,29.76,SSW,202,0.0,0.0,92,0.00,,---,0.58,VWS V14.00,2013-09-22 01:22:00,
2013-09-21 21:23:00,60.8,58.5,29.76,SSW,202,0.0,0.0,92,0.00,,---,0.58,VWS V14.00,2013-09-22 01:23:00,
2013-09-21 21:24:00,60.8,58.8,29.76,SSW,202,0.0,0.0,93,0.00,,---,0.58,VWS V14.00,2013-09-22 01:24:00,
2013-09-21 21:25:00,60.8,58.5,29.76,SSW,202,0.0,0.0,92,0.00,,---,0.58,VWS V14.00,2013-09-22 01:25:00,
2013-09-21 21:26:00,60.8,58.5,29.76,SSW,202,0.0,0.0,92,0.00,,---,0.58,VWS V14.00,2013-09-22 01:26:00,
2013-09-21 21:27:00,60.8,58.5,29.76,SSW,202,0.0,0.0,92,0.00,,---,0.58,VWS V14.00,2013-09-22 01:27:00,
2013-09-21 21:28:00,60.8,58.5,29.76,SSW,202,0.0,0.0,92,0.00,,---,0.58,VWS V14.00,2013-09-22 01:28:00,
2013-09-21 21:29:00,60.8,58.8,29.76,SSW,202,0.0,0.0,93,0.00,,---,0.58,VWS V14.00,2013-09-22 01:29:00,
2013-09-21 21:30:00,60.8,58.5,29.76,SSW,202,0.0,0.0,92,0.00,,---,0.58,VWS V14.00,2013-09-22 01:30:00,
2013-09-21 21:31:00,61.0,58.6,29.76,SSW,202,0.0,0.0,92,0.00,,---,0.58,VWS V14.00,2013-09-22 01:31:00,
2013-09-21 21:32:00,60.8,58.5,29.76,SSW,202,0.0,0.0,92,0.00,,---,0.58,VWS V14.00,2013-09-22 01:32:00,
2013-09-21 21:33:00,60.8,58.5,29.76,SSW,202,0.0,0.0,92,0.00,,---,0.58,VWS V14.00,2013-09-22 01:33:00,
2013-09-21 21:34:00,60.8,58.8,29.76,SSW,202,0.0,0.0,93,0.00,,---,0.58,VWS V14.00,2013-09-22 01:34:00,
2013-09-21 21:35:00,60.8,58.5,29.76,SSW,202,0.0,0.0,92,0.00,,---,0.58,VWS V14.00,2013-09-22 01:35:00,
2013-09-21 21:36:00,60.8,58.5,29.76,SSW,202,0.0,0.0,92,0.00,,---,0.58,VWS V14.00,2013-09-22 01:36:00,
2013-09-21 21:37:00,60.8,58.5,29.76,SSW,202,0.0,0.0,92,0.00,,---,0.58,VWS V14.00,2013-09-22 01:37:00,
2013-09-21 21:38:00,60.8,58.5,29.76,SSW,202,0.0,0.0,92,0.00,,---,0.58,VWS V14.00,2013-09-22 01:38:00,
2013-09-21 21:39:00,60.8,58.8,29.76,SSW,202,0.0,0.0,93,0.00,,---,0.58,VWS V14.00,2013-09-22 01:39:00,
2013-09-21 21:40:00,60.8,58.5,29.76,SSW,202,0.0,0.0,92,0.00,,---,0.58,VWS V14.00,2013-09-22 01:40:00,
2013-09-21 21:41:00,60.8,58.5,29.76,SSW,202,0.0,0.0,92,0.00,,---,0.58,VWS V14.00,2013-09-22 01:41:00,
2013-09-21 21:42:00,60.8,58.5,29.76,SSW,202,0.0,0.0,92,0.00,,---,0.58,VWS V14.00,2013-09-22 01:42:00,
2013-09-21 21:43:00,61.0,59.0,29.76,SSW,202,0.0,0.0,93,0.00,,---,0.58,VWS V14.00,2013-09-22 01:43:00,
2013-09-21 21:44:00,60.8,58.8,29.76,SSW,202,0.0,0.0,93,0.00,,---,0.58,VWS V14.00,2013-09-22 01:44:00,
2013-09-21 21:45:00,61.0,59.0,29.76,SSW,202,0.0,0.0,93,0.00,,---,0.58,VWS V14.00,2013-09-22 01:45:00,
2013-09-21 21:46:00,60.8,58.8,29.76,SSW,202,0.0,0.0,93,0.00,,---,0.58,VWS V14.00,2013-09-22 01:46:00,
2013-09-21 21:47:00,60.8,58.8,29.76,SSW,202,0.0,0.0,93,0.00,,---,0.58,VWS V14.00,2013-09-22 01:47:00,
2013-09-21 21:48:00,60.8,58.8,29.76,SSW,202,0.0,0.0,93,0.00,,---,0.58,VWS V14.00,2013-09-22 01:48:00,
2013-09-21 21:49:00,60.8,58.8,29.76,SSW,202,0.0,0.0,93,0.00,,---,0.58,VWS V14.00,2013-09-22 01:49:00,
2013-09-21 21:50:00,60.8,58.8,29.76,SSW,202,0.0,0.0,93,0.00,,---,0.58,VWS V14.00,2013-09-22 01:50:00,
2013-09-21 21:51:00,60.8,58.8,29.76,SSW,202,0.0,0.0,93,0.00,,---,0.58,VWS V14.00,2013-09-22 01:51:00,
2013-09-21 21:52:00,60.8,58.8,29.76,SSW,202,0.0,0.0,93,0.00,,---,0.58,VWS V14.00,2013-09-22 01:52:00,
2013-09-21 21:53:00,60.8,58.8,29.76,SSW,202,0.0,0.0,93,0.00,,---,0.58,VWS V14.00,2013-09-22 01:53:00,
2013-09-21 21:54:00,60.6,58.6,29.76,SSW,202,0.0,0.0,93,0.00,,---,0.58,VWS V14.00,2013-09-22 01:54:00,
2013-09-21 21:55:00,60.8,58.8,29.76,SSW,202,0.0,0.0,93,0.00,,---,0.58,VWS V14.00,2013-09-22 01:55:00,
2013-09-21 21:56:00,60.8,58.8,29.76,SSW,202,0.0,0.0,93,0.00,,---,0.58,VWS V14.00,2013-09-22 01:56:00,
2013-09-21 21:57:00,60.8,58.8,29.76,SSW,202,0.0,0.0,93,0.00,,---,0.58,VWS V14.00,2013-09-22 01:57:00,
2013-09-21 21:58:00,60.8,58.8,29.76,SSW,202,0.0,0.0,93,0.00,,---,0.58,VWS V14.00,2013-09-22 01:58:00,
2013-09-21 21:59:00,60.6,58.6,29.76,SSW,202,0.0,0.0,93,0.00,,---,0.58,VWS V14.00,2013-09-22 01:59:00,
2013-09-21 22:00:00,60.8,58.8,29.76,SSW,202,0.0,0.0,93,0.00,,---,0.58,VWS V14.00,2013-09-22 02:00:00,
2013-09-21 22:01:00,60.8,58.8,29.76,SSW,202,0.0,0.0,93,0.00,,---,0.58,VWS V14.00,2013-09-22 02:01:00,
2013-09-21 22:02:00,60.8,58.8,29.76,SSW,202,0.0,0.0,93,0.00,,---,0.58,VWS V14.00,2013-09-22 02:02:00,
2013-09-21 22:03:00,60.8,58.8,29.76,SSW,202,0.0,0.0,93,0.00,,---,0.58,VWS V14.00,2013-09-22 02:03:00,
2013-09-21 22:04:00,60.8,58.8,29.76,SSW,202,0.0,0.0,93,0.00,,---,0.58,VWS V14.00,2013-09-22 02:04:00,
2013-09-21 22:05:00,60.8,58.8,29.76,SSW,202,0.0,0.0,93,0.00,,---,0.58,VWS V14.00,2013-09-22 02:05:00,
2013-09-21 22:06:00,60.8,58.8,29.76,SSW,202,0.0,0.0,93,0.00,,---,0.58,VWS V14.00,2013-09-22 02:06:00,
2013-09-21 22:07:00,60.8,58.8,29.76,SSW,202,0.0,0.0,93,0.00,,---,0.58,VWS V14.00,2013-09-22 02:07:00,
2013-09-21 22:08:00,60.8,58.8,29.76,SSW,202,0.0,0.0,93,0.00,,---,0.58,VWS V14.00,2013-09-22 02:08:00,
2013-09-21 22:09:00,60.8,58.8,29.76,SSW,202,0.0,0.0,93,0.00,,---,0.58,VWS V14.00,2013-09-22 02:09:00,
2013-09-21 22:10:00,60.8,58.8,29.76,SSW,202,0.0,0.0,93,0.00,,---,0.58,VWS V14.00,2013-09-22 02:10:00,
2013-09-21 22:11:00,60.8,58.8,29.76,SSW,202,0.0,0.0,93,0.00,,---,0.58,VWS V14.00,2013-09-22 02:11:00,
2013-09-21 22:12:00,60.8,58.8,29.76,SSW,202,0.0,0.0,93,0.00,,---,0.58,VWS V14.00,2013-09-22 02:12:00,
2013-09-21 22:13:00,60.8,58.8,29.76,SSW,202,0.0,0.0,93,0.00,,---,0.58,VWS V14.00,2013-09-22 02:13:00,
2013-09-21 22:14:00,60.6,58.6,29.76,SSW,202,0.0,0.0,93,0.00,,---,0.58,VWS V14.00,2013-09-22 02:14:00,
2013-09-21 22:15:00,60.8,58.8,29.76,SSW,202,0.0,0.0,93,0.00,,---,0.58,VWS V14.00,2013-09-22 02:15:00,
2013-09-21 22:16:00,60.6,58.6,29.76,SSW,202,0.0,0.0,93,0.00,,---,0.58,VWS V14.00,2013-09-22 02:16:00,
2013-09-21 22:17:00,60.6,58.6,29.76,SSW,202,0.0,0.0,93,0.00,,---,0.58,VWS V14.00,2013-09-22 02:17:00,
2013-09-21 22:18:00,60.6,58.6,29.76,SSW,202,0.0,0.0,93,0.00,,---,0.58,VWS V14.00,2013-09-22 02:18:00,
2013-09-21 22:19:00,60.6,58.6,29.76,SSW,202,0.0,0.0,93,0.00,,---,0.58,VWS V14.00,2013-09-22 02:19:00,
2013-09-21 22:20:00,60.6,58.6,29.76,SSW,202,0.0,0.0,93,0.00,,---,0.58,VWS V14.00,2013-09-22 02:20:00,
2013-09-21 22:21:00,60.6,58.6,29.76,SSW,202,0.0,0.0,93,0.00,,---,0.58,VWS V14.00,2013-09-22 02:21:00,
2013-09-21 22:22:00,60.6,58.6,29.76,SSW,202,0.0,0.0,93,0.00,,---,0.58,VWS V14.00,2013-09-22 02:22:00,
2013-09-21 22:23:00,60.6,58.6,29.76,SSW,202,0.0,0.0,93,0.00,,---,0.58,VWS V14.00,2013-09-22 02:23:00,
2013-09-21 22:24:00,60.6,58.6,29.76,SSW,202,0.0,0.0,93,0.00,,---,0.58,VWS V14.00,2013-09-22 02:24:00,
2013-09-21 22:25:00,60.8,58.8,29.76,SSW,202,0.0,0.0,93,0.00,,---,0.58,VWS V14.00,2013-09-22 02:25:00,
2013-09-21 22:26:00,60.8,58.8,29.76,SSW,202,0.0,0.0,93,0.00,,---,0.58,VWS V14.00,2013-09-22 02:26:00,
2013-09-21 22:27:00,60.8,58.8,29.76,SSW,202,0.0,0.0,93,0.00,,---,0.58,VWS V14.00,2013-09-22 02:27:00,
2013-09-21 22:28:00,60.8,58.8,29.76,SSW,202,0.0,0.0,93,0.00,,---,0.58,VWS V14.00,2013-09-22 02:28:00,
2013-09-21 22:29:00,60.4,58.4,29.76,SSW,202,0.0,0.0,93,0.00,,---,0.58,VWS V14.00,2013-09-22 02:29:00,
2013-09-21 22:30:00,60.8,58.8,29.76,SSW,202,0.0,0.0,93,0.00,,---,0.58,VWS V14.00,2013-09-22 02:30:00,
2013-09-21 22:31:00,60.8,58.8,29.76,SSW,202,0.0,0.0,93,0.00,,---,0.58,VWS V14.00,2013-09-22 02:31:00,
2013-09-21 22:32:00,60.8,58.8,29.76,SSW,202,0.0,0.0,93,0.00,,---,0.58,VWS V14.00,2013-09-22 02:32:00,
2013-09-21 22:33:00,60.8,58.8,29.76,SSW,202,0.0,0.0,93,0.00,,---,0.58,VWS V14.00,2013-09-22 02:33:00,
2013-09-21 22:34:00,60.4,58.4,29.76,SSW,202,0.0,0.0,93,0.00,,---,0.58,VWS V14.00,2013-09-22 02:34:00,
2013-09-21 22:35:00,60.6,58.6,29.76,SSW,202,0.0,0.0,93,0.00,,---,0.58,VWS V14.00,2013-09-22 02:35:00,
2013-09-21 22:36:00,60.6,58.6,29.76,SSW,202,0.0,0.0,93,0.00,,---,0.58,VWS V14.00,2013-09-22 02:36:00,
2013-09-21 22:37:00,60.6,58.6,29.76,SSW,202,0.0,0.0,93,0.00,,---,0.58,VWS V14.00,2013-09-22 02:37:00,
2013-09-21 22:38:00,60.6,58.6,29.76,SSW,202,0.0,0.0,93,0.00,,---,0.58,VWS V14.00,2013-09-22 02:38:00,
2013-09-21 22:39:00,60.3,58.2,29.76,SSW,202,0.0,0.0,93,0.00,,---,0.58,VWS V14.00,2013-09-22 02:39:00,
2013-09-21 22:40:00,60.6,58.6,29.76,SSW,202,0.0,0.0,93,0.00,,---,0.58,VWS V14.00,2013-09-22 02:40:00,
2013-09-21 22:41:00,60.6,58.6,29.76,SSW,202,0.0,0.0,93,0.00,,---,0.58,VWS V14.00,2013-09-22 02:41:00,
2013-09-21 22:42:00,60.6,58.6,29.76,SSW,202,0.0,0.0,93,0.00,,---,0.58,VWS V14.00,2013-09-22 02:42:00,
2013-09-21 22:43:00,60.6,58.6,29.76,SSW,202,0.0,0.0,93,0.00,,---,0.58,VWS V14.00,2013-09-22 02:43:00,
2013-09-21 22:44:00,60.6,58.6,29.76,SSW,202,0.0,0.0,93,0.00,,---,0.58,VWS V14.00,2013-09-22 02:44:00,
2013-09-21 22:45:00,60.1,58.0,29.79,SSW,202,0.0,0.0,93,0.00,,---,0.58,VWS V14.00,2013-09-22 02:45:00,
2013-09-21 22:46:00,60.6,58.6,29.76,SSW,202,0.0,0.0,93,0.00,,---,0.58,VWS V14.00,2013-09-22 02:46:00,
2013-09-21 22:47:00,60.6,58.6,29.76,SSW,202,0.0,0.0,93,0.00,,---,0.58,VWS V14.00,2013-09-22 02:47:00,
2013-09-21 22:48:00,60.6,58.6,29.76,SSW,202,0.0,0.0,93,0.00,,---,0.58,VWS V14.00,2013-09-22 02:48:00,
2013-09-21 22:49:00,60.6,58.6,29.76,SSW,202,0.0,0.0,93,0.00,,---,0.58,VWS V14.00,2013-09-22 02:49:00,
2013-09-21 22:50:00,60.1,58.0,29.79,SSW,202,0.0,0.0,93,0.00,,---,0.58,VWS V14.00,2013-09-22 02:50:00,
2013-09-21 22:51:00,60.4,58.4,29.76,SSW,202,0.0,0.0,93,0.00,,---,0.58,VWS V14.00,2013-09-22 02:51:00,
2013-09-21 22:52:00,60.4,58.4,29.76,SSW,202,0.0,0.0,93,0.00,,---,0.58,VWS V14.00,2013-09-22 02:52:00,
2013-09-21 22:53:00,60.4,58.4,29.76,SSW,202,0.0,0.0,93,0.00,,---,0.58,VWS V14.00,2013-09-22 02:53:00,
2013-09-21 22:54:00,60.4,58.4,29.76,SSW,202,0.0,0.0,93,0.00,,---,0.58,VWS V14.00,2013-09-22 02:54:00,
2013-09-21 22:55:00,59.9,57.9,29.74,SSW,202,0.0,0.0,93,0.00,,---,0.58,VWS V14.00,2013-09-22 02:55:00,
2013-09-21 22:56:00,60.4,58.4,29.76,SSW,202,0.0,0.0,93,0.00,,---,0.58,VWS V14.00,2013-09-22 02:56:00,
2013-09-21 22:57:00,60.3,58.2,29.76,SSW,202,0.0,0.0,93,0.00,,---,0.58,VWS V14.00,2013-09-22 02:57:00,
2013-09-21 22:58:00,60.3,58.2,29.76,SSW,202,0.0,0.0,93,0.00,,---,0.58,VWS V14.00,2013-09-22 02:58:00,
2013-09-21 22:59:00,60.3,58.2,29.76,SSW,202,0.0,0.0,93,0.00,,---,0.58,VWS V14.00,2013-09-22 02:59:00,
2013-09-21 23:00:00,59.7,57.4,29.74,SSW,202,0.0,0.0,92,0.00,,---,0.58,VWS V14.00,2013-09-22 03:00:00,
2013-09-21 23:01:00,60.3,58.2,29.76,SSW,202,0.0,0.0,93,0.00,,---,0.58,VWS V14.00,2013-09-22 03:01:00,
2013-09-21 23:02:00,60.3,58.2,29.80,SSW,202,0.0,0.0,93,0.00,,---,0.58,VWS V14.00,2013-09-22 03:02:00,
2013-09-21 23:03:00,60.1,58.0,29.80,SSW,202,0.0,0.0,93,0.00,,---,0.58,VWS V14.00,2013-09-22 03:03:00,
2013-09-21 23:04:00,60.1,58.0,29.80,SSW,202,0.0,0.0,93,0.00,,---,0.58,VWS V14.00,2013-09-22 03:04:00,
2013-09-21 23:05:00,59.5,57.2,29.74,SSW,202,0.0,0.0,92,0.00,,---,0.58,VWS V14.00,2013-09-22 03:05:00,
2013-09-21 23:06:00,60.1,58.0,29.80,SSW,202,0.0,0.0,93,0.00,,---,0.58,VWS V14.00,2013-09-22 03:06:00,
2013-09-21 23:07:00,60.1,58.0,29.80,SSW,202,0.0,0.0,93,0.00,,---,0.58,VWS V14.00,2013-09-22 03:07:00,
2013-09-21 23:08:00,60.1,58.0,29.80,SSW,202,0.0,0.0,93,0.00,,---,0.58,VWS V14.00,2013-09-22 03:08:00,
2013-09-21 23:09:00,60.1,58.0,29.80,SSW,202,0.0,0.0,93,0.00,,---,0.58,VWS V14.00,2013-09-22 03:09:00,
2013-09-21 23:10:00,59.4,57.0,29.76,SSW,202,0.0,0.0,92,0.00,,---,0.58,VWS V14.00,2013-09-22 03:10:00,
2013-09-21 23:11:00,60.1,58.0,29.80,SSW,202,0.0,0.0,93,0.00,,---,0.58,VWS V14.00,2013-09-22 03:11:00,
2013-09-21 23:12:00,60.1,58.0,29.80,SSW,202,0.0,0.0,93,0.00,,---,0.58,VWS V14.00,2013-09-22 03:12:00,
2013-09-21 23:13:00,59.9,57.9,29.80,SSW,202,0.0,0.0,93,0.00,,---,0.58,VWS V14.00,2013-09-22 03:13:00,
2013-09-21 23:14:00,59.9,57.9,29.80,SSW,202,0.0,0.0,93,0.00,,---,0.58,VWS V14.00,2013-09-22 03:14:00,
2013-09-21 23:15:00,59.2,56.9,29.76,SSW,202,0.0,0.0,92,0.00,,---,0.58,VWS V14.00,2013-09-22 03:15:00,
2013-09-21 23:16:00,59.9,57.9,29.80,SSW,202,0.0,0.0,93,0.00,,---,0.58,VWS V14.00,2013-09-22 03:16:00,
2013-09-21 23:17:00,59.9,57.9,29.74,SSW,202,0.0,0.0,93,0.00,,---,0.58,VWS V14.00,2013-09-22 03:17:00,
2013-09-21 23:18:00,59.7,57.7,29.74,SSW,202,0.0,0.0,93,0.00,,---,0.58,VWS V14.00,2013-09-22 03:18:00,
2013-09-21 23:19:00,59.7,57.7,29.74,SSW,202,0.0,0.0,93,0.00,,---,0.58,VWS V14.00,2013-09-22 03:19:00,
2013-09-21 23:20:00,59.2,56.9,29.76,SSW,202,0.0,0.0,92,0.00,,---,0.58,VWS V14.00,2013-09-22 03:20:00,
2013-09-21 23:21:00,59.7,57.4,29.74,SSW,202,0.0,0.0,92,0.00,,---,0.58,VWS V14.00,2013-09-22 03:21:00,
2013-09-21 23:22:00,59.7,57.4,29.74,SSW,202,0.0,0.0,92,0.00,,---,0.58,VWS V14.00,2013-09-22 03:22:00,
2013-09-21 23:23:00,59.7,57.4,29.74,SSW,202,0.0,0.0,92,0.00,,---,0.58,VWS V14.00,2013-09-22 03:23:00,
2013-09-21 23:24:00,59.5,57.2,29.74,SSW,202,0.0,0.0,92,0.00,,---,0.58,VWS V14.00,2013-09-22 03:24:00,
2013-09-21 23:25:00,59.0,56.7,29.76,SSW,202,0.0,0.0,92,0.00,,---,0.58,VWS V14.00,2013-09-22 03:25:00,
2013-09-21 23:26:00,59.5,57.2,29.74,SSW,202,0.0,0.0,92,0.00,,---,0.58,VWS V14.00,2013-09-22 03:26:00,
2013-09-21 23:27:00,59.5,57.2,29.74,SSW,202,0.0,0.0,92,0.00,,---,0.58,VWS V14.00,2013-09-22 03:27:00,
2013-09-21 23:28:00,59.5,57.2,29.74,SSW,202,0.0,0.0,92,0.00,,---,0.58,VWS V14.00,2013-09-22 03:28:00,
2013-09-21 23:29:00,59.4,57.0,29.74,SSW,202,0.0,0.0,92,0.00,,---,0.58,VWS V14.00,2013-09-22 03:29:00,
2013-09-21 23:30:00,59.0,57.0,29.76,SSW,202,0.0,0.0,93,0.00,,---,0.58,VWS V14.00,2013-09-22 03:30:00,
2013-09-21 23:31:00,59.4,57.0,29.74,SSW,202,0.0,0.0,92,0.00,,---,0.58,VWS V14.00,2013-09-22 03:31:00,
2013-09-21 23:32:00,59.4,57.0,29.76,SSW,202,0.0,0.0,92,0.00,,---,0.58,VWS V14.00,2013-09-22 03:32:00,
2013-09-21 23:33:00,59.4,57.0,29.76,SSW,202,0.0,0.0,92,0.00,,---,0.58,VWS V14.00,2013-09-22 03:33:00,
2013-09-21 23:34:00,59.4,57.0,29.76,SSW,202,0.0,0.0,92,0.00,,---,0.58,VWS V14.00,2013-09-22 03:34:00,
2013-09-21 23:35:00,59.0,56.7,29.76,SSW,202,0.0,0.0,92,0.00,,---,0.58,VWS V14.00,2013-09-22 03:35:00,
2013-09-21 23:36:00,59.2,56.9,29.76,SSW,202,0.0,0.0,92,0.00,,---,0.58,VWS V14.00,2013-09-22 03:36:00,
2013-09-21 23:37:00,59.2,56.9,29.76,SSW,202,0.0,0.0,92,0.00,,---,0.58,VWS V14.00,2013-09-22 03:37:00,
2013-09-21 23:38:00,59.2,56.9,29.76,SSW,202,0.0,0.0,92,0.00,,---,0.58,VWS V14.00,2013-09-22 03:38:00,
2013-09-21 23:39:00,59.2,56.9,29.76,SSW,202,0.0,0.0,92,0.00,,---,0.58,VWS V14.00,2013-09-22 03:39:00,
2013-09-21 23:40:00,58.8,56.8,29.76,SSW,202,0.0,0.0,93,0.00,,---,0.00,VWS V14.00,2013-09-22 03:40:00,
2013-09-21 23:41:00,59.2,56.9,29.76,SSW,202,0.0,0.0,92,0.00,,---,0.58,VWS V14.00,2013-09-22 03:41:00,
2013-09-21 23:42:00,59.2,56.9,29.76,SSW,202,0.0,0.0,92,0.00,,---,0.58,VWS V14.00,2013-09-22 03:42:00,
2013-09-21 23:43:00,59.2,56.9,29.76,SSW,202,0.0,0.0,92,0.00,,---,0.58,VWS V14.00,2013-09-22 03:43:00,
2013-09-21 23:44:00,59.2,56.9,29.76,SSW,202,0.0,0.0,92,0.00,,---,0.58,VWS V14.00,2013-09-22 03:44:00,
2013-09-21 23:45:00,58.6,56.6,29.76,SSW,202,0.0,0.0,93,0.00,,---,0.00,VWS V14.00,2013-09-22 03:45:00,
2013-09-21 23:46:00,59.2,56.9,29.76,SSW,202,0.0,0.0,92,0.00,,---,0.58,VWS V14.00,2013-09-22 03:46:00,
2013-09-21 23:47:00,59.0,56.7,29.76,SSW,202,0.0,0.0,92,0.00,,---,0.58,VWS V14.00,2013-09-22 03:47:00,
2013-09-21 23:48:00,59.0,56.7,29.76,SSW,202,0.0,0.0,92,0.00,,---,0.58,VWS V14.00,2013-09-22 03:48:00,
2013-09-21 23:49:00,59.0,56.7,29.76,SSW,202,0.0,0.0,92,0.00,,---,0.58,VWS V14.00,2013-09-22 03:49:00,
2013-09-21 23:50:00,58.5,56.5,29.76,SSW,202,0.0,0.0,93,0.00,,---,0.00,VWS V14.00,2013-09-22 03:50:00,
2013-09-21 23:51:00,59.0,56.7,29.76,SSW,202,0.0,0.0,92,0.00,,---,0.58,VWS V14.00,2013-09-22 03:51:00,
2013-09-21 23:52:00,59.0,57.0,29.76,SSW,202,0.0,0.0,93,0.00,,---,0.58,VWS V14.00,2013-09-22 03:52:00,
2013-09-21 23:53:00,59.0,57.0,29.76,SSW,202,0.0,0.0,93,0.00,,---,0.58,VWS V14.00,2013-09-22 03:53:00,
2013-09-21 23:54:00,59.0,57.0,29.76,SSW,202,0.0,0.0,93,0.00,,---,0.58,VWS V14.00,2013-09-22 03:54:00,
2013-09-21 23:55:00,58.5,56.5,29.76,SSW,202,0.0,0.0,93,0.00,,---,0.00,VWS V14.00,2013-09-22 03:55:00,
2013-09-21 23:56:00,59.0,57.0,29.76,SSW,202,0.0,0.0,93,0.00,,---,0.58,VWS V14.00,2013-09-22 03:56:00,
2013-09-21 23:57:00,59.0,56.7,29.76,SSW,202,0.0,0.0,92,0.00,,---,0.58,VWS V14.00,2013-09-22 03:57:00,
2013-09-21 23:58:00,58.8,56.8,29.76,SSW,202,0.0,0.0,93,0.00,,---,0.58,VWS V14.00,2013-09-22 03:58:00,
2013-09-21 23:59:00,58.8,56.8,29.76,SSW,202,0.0,0.0,93,0.00,,---,0.58,VWS V14.00,2013-09-22 03:59:00,